Wetterdaten: Samstag, 13.08.2016
Datum Zeit Temp. A. Temp. A. max Feuchte A. Luftdruck Regen Wind Richtung Richtung Sonnenschein ET UV Solar Taupunkt Windben
13.08.2016 00:00 12,9 C 13,0 C 91 % 1027,5 hPa 0,0 mm 0,7 km/h (0 Bft) S-SO 151 0 min 0,000 mm 0,0 UV-I 0 W/m 11,5 C 3,2 km/h (1 Bft)
13.08.2016 00:01 12,9 C 12,9 C 91 % 1027,4 hPa 0,0 mm 0,1 km/h (0 Bft) S-SO 151 0 min 0,000 mm 0,0 UV-I 0 W/m 11,5 C 1,6 km/h (1 Bft)
13.08.2016 00:02 12,9 C 12,9 C 91 % 1027,5 hPa 0,0 mm 2,5 km/h (1 Bft) S 175 0 min 0,000 mm 0,0 UV-I 0 W/m 11,5 C 4,8 km/h (1 Bft)
13.08.2016 00:03 12,9 C 12,9 C 91 % 1027,4 hPa 0,0 mm 1,1 km/h (1 Bft) S 175 0 min 0,000 mm 0,0 UV-I 0 W/m 11,5 C 3,2 km/h (1 Bft)
13.08.2016 00:04 12,9 C 12,9 C 91 % 1027,4 hPa 0,0 mm 1,2 km/h (1 Bft) S 175 0 min 0,000 mm 0,0 UV-I 0 W/m 11,5 C 1,6 km/h (1 Bft)
13.08.2016 00:05 12,8 C 12,9 C 91 % 1027,4 hPa 0,0 mm 0,8 km/h (0 Bft) S 175 0 min 0,000 mm 0,0 UV-I 0 W/m 11,4 C 3,2 km/h (1 Bft)
13.08.2016 00:06 12,8 C 12,8 C 91 % 1027,4 hPa 0,0 mm 0,1 km/h (0 Bft) S 175 0 min 0,000 mm 0,0 UV-I 0 W/m 11,4 C 1,6 km/h (1 Bft)
13.08.2016 00:07 12,8 C 12,8 C 91 % 1027,4 hPa 0,0 mm 0,0 km/h (0 Bft) S 175 0 min 0,000 mm 0,0 UV-I 0 W/m 11,4 C 0,0 km/h (0 Bft)
13.08.2016 00:08 12,7 C 12,8 C 91 % 1027,4 hPa 0,0 mm 0,1 km/h (0 Bft) S 175 0 min 0,000 mm 0,0 UV-I 0 W/m 11,3 C 1,6 km/h (1 Bft)
13.08.2016 00:09 12,7 C 12,7 C 92 % 1027,4 hPa 0,0 mm 0,4 km/h (0 Bft) S 175 0 min 0,000 mm 0,0 UV-I 0 W/m 11,4 C 1,6 km/h (1 Bft)
13.08.2016 00:10 12,6 C 12,7 C 92 % 1027,3 hPa 0,0 mm 0,3 km/h (0 Bft) S 175 0 min 0,000 mm 0,0 UV-I 0 W/m 11,3 C 1,6 km/h (1 Bft)
13.08.2016 00:11 12,6 C 12,6 C 92 % 1027,3 hPa 0,0 mm 0,0 km/h (0 Bft) S 175 0 min 0,000 mm 0,0 UV-I 0 W/m 11,3 C 0,0 km/h (0 Bft)
13.08.2016 00:12 12,6 C 12,6 C 92 % 1027,4 hPa 0,0 mm 0,8 km/h (0 Bft) S 175 0 min 0,000 mm 0,0 UV-I 0 W/m 11,3 C 1,6 km/h (1 Bft)
13.08.2016 00:13 12,6 C 12,6 C 92 % 1027,3 hPa 0,0 mm 1,5 km/h (1 Bft) S 175 0 min 0,000 mm 0,0 UV-I 0 W/m 11,3 C 4,8 km/h (1 Bft)
13.08.2016 00:14 12,5 C 12,6 C 92 % 1027,3 hPa 0,0 mm 1,3 km/h (1 Bft) S 175 0 min 0,000 mm 0,0 UV-I 0 W/m 11,2 C 3,2 km/h (1 Bft)
13.08.2016 00:15 12,5 C 12,5 C 92 % 1027,3 hPa 0,0 mm 0,3 km/h (0 Bft) S 175 0 min 0,000 mm 0,0 UV-I 0 W/m 11,2 C 1,6 km/h (1 Bft)
13.08.2016 00:16 12,4 C 12,5 C 92 % 1027,3 hPa 0,0 mm 0,3 km/h (0 Bft) S 175 0 min 0,000 mm 0,0 UV-I 0 W/m 11,1 C 1,6 km/h (1 Bft)
13.08.2016 00:17 12,4 C 12,4 C 92 % 1027,2 hPa 0,0 mm 0,0 km/h (0 Bft) S 175 0 min 0,000 mm 0,0 UV-I 0 W/m 11,1 C 0,0 km/h (0 Bft)
13.08.2016 00:18 12,4 C 12,4 C 92 % 1027,2 hPa 0,0 mm 0,0 km/h (0 Bft) S 175 0 min 0,000 mm 0,0 UV-I 0 W/m 11,1 C 0,0 km/h (0 Bft)
13.08.2016 00:19 12,4 C 12,4 C 92 % 1027,2 hPa 0,0 mm 0,0 km/h (0 Bft) S 175 0 min 0,000 mm 0,0 UV-I 0 W/m 11,1 C 0,0 km/h (0 Bft)
13.08.2016 00:20 12,4 C 12,4 C 92 % 1027,2 hPa 0,0 mm 0,0 km/h (0 Bft) S 175 0 min 0,000 mm 0,0 UV-I 0 W/m 11,1 C 0,0 km/h (0 Bft)
13.08.2016 00:21 12,4 C 12,4 C 92 % 1027,2 hPa 0,0 mm 0,0 km/h (0 Bft) S 175 0 min 0,000 mm 0,0 UV-I 0 W/m 11,1 C 0,0 km/h (0 Bft)
13.08.2016 00:22 12,3 C 12,4 C 92 % 1027,2 hPa 0,0 mm 0,0 km/h (0 Bft) S 175 0 min 0,000 mm 0,0 UV-I 0 W/m 11,0 C 0,0 km/h (0 Bft)
13.08.2016 00:23 12,3 C 12,3 C 92 % 1027,2 hPa 0,0 mm 0,0 km/h (0 Bft) S 175 0 min 0,000 mm 0,0 UV-I 0 W/m 11,0 C 0,0 km/h (0 Bft)
13.08.2016 00:24 12,4 C 12,4 C 93 % 1027,2 hPa 0,0 mm 0,0 km/h (0 Bft) S 175 0 min 0,000 mm 0,0 UV-I 0 W/m 11,3 C 0,0 km/h (0 Bft)
13.08.2016 00:25 12,4 C 12,4 C 93 % 1027,2 hPa 0,0 mm 1,9 km/h (1 Bft) S 175 0 min 0,000 mm 0,0 UV-I 0 W/m 11,3 C 3,2 km/h (1 Bft)
13.08.2016 00:26 12,5 C 12,5 C 93 % 1027,2 hPa 0,0 mm 2,8 km/h (1 Bft) S 172 0 min 0,000 mm 0,0 UV-I 0 W/m 11,4 C 3,2 km/h (1 Bft)
13.08.2016 00:27 12,6 C 12,6 C 93 % 1027,2 hPa 0,0 mm 3,5 km/h (1 Bft) SO 136 0 min 0,000 mm 0,0 UV-I 0 W/m 11,5 C 6,4 km/h (2 Bft)
13.08.2016 00:28 12,6 C 12,6 C 93 % 1027,2 hPa 0,0 mm 4,1 km/h (1 Bft) O-SO 117 0 min 0,000 mm 0,0 UV-I 0 W/m 11,5 C 6,4 km/h (2 Bft)
13.08.2016 00:29 12,6 C 12,6 C 93 % 1027,1 hPa 0,0 mm 3,2 km/h (1 Bft) O-SO 118 0 min 0,000 mm 0,0 UV-I 0 W/m 11,5 C 4,8 km/h (1 Bft)
13.08.2016 00:30 12,6 C 12,6 C 93 % 1027,1 hPa 0,0 mm 2,0 km/h (1 Bft) O-SO 118 0 min 0,000 mm 0,0 UV-I 0 W/m 11,5 C 3,2 km/h (1 Bft)
13.08.2016 00:31 12,6 C 12,6 C 92 % 1027,1 hPa 0,0 mm 1,4 km/h (1 Bft) O-SO 118 0 min 0,000 mm 0,0 UV-I 0 W/m 11,3 C 3,2 km/h (1 Bft)
13.08.2016 00:32 12,5 C 12,6 C 92 % 1027,1 hPa 0,0 mm 0,8 km/h (0 Bft) O-SO 118 0 min 0,000 mm 0,0 UV-I 0 W/m 11,2 C 1,6 km/h (1 Bft)
13.08.2016 00:33 12,4 C 12,5 C 92 % 1027,1 hPa 0,0 mm 0,6 km/h (0 Bft) O-SO 118 0 min 0,000 mm 0,0 UV-I 0 W/m 11,1 C 1,6 km/h (1 Bft)
13.08.2016 00:34 12,4 C 12,4 C 92 % 1027,2 hPa 0,0 mm 0,9 km/h (0 Bft) O-SO 118 0 min 0,000 mm 0,0 UV-I 0 W/m 11,1 C 3,2 km/h (1 Bft)
13.08.2016 00:35 12,4 C 12,4 C 92 % 1027,1 hPa 0,0 mm 1,5 km/h (1 Bft) O-SO 118 0 min 0,000 mm 0,0 UV-I 0 W/m 11,1 C 3,2 km/h (1 Bft)
13.08.2016 00:36 12,4 C 12,4 C 92 % 1027,1 hPa 0,0 mm 1,5 km/h (1 Bft) O-SO 118 0 min 0,000 mm 0,0 UV-I 0 W/m 11,1 C 3,2 km/h (1 Bft)
13.08.2016 00:37 12,4 C 12,4 C 93 % 1027,2 hPa 0,0 mm 1,1 km/h (1 Bft) O-SO 118 0 min 0,000 mm 0,0 UV-I 0 W/m 11,3 C 3,2 km/h (1 Bft)
13.08.2016 00:38 12,4 C 12,4 C 93 % 1027,2 hPa 0,0 mm 1,7 km/h (1 Bft) O-SO 118 0 min 0,000 mm 0,0 UV-I 0 W/m 11,3 C 3,2 km/h (1 Bft)
13.08.2016 00:39 12,4 C 12,4 C 93 % 1027,1 hPa 0,0 mm 0,7 km/h (0 Bft) O-SO 118 0 min 0,000 mm 0,0 UV-I 0 W/m 11,3 C 1,6 km/h (1 Bft)
13.08.2016 00:40 12,4 C 12,4 C 93 % 1027,2 hPa 0,0 mm 0,4 km/h (0 Bft) O-SO 118 0 min 0,000 mm 0,0 UV-I 0 W/m 11,3 C 1,6 km/h (1 Bft)
13.08.2016 00:41 12,4 C 12,4 C 92 % 1027,2 hPa 0,0 mm 0,2 km/h (0 Bft) O-SO 118 0 min 0,000 mm 0,0 UV-I 0 W/m 11,1 C 1,6 km/h (1 Bft)
13.08.2016 00:42 12,4 C 12,4 C 92 % 1027,2 hPa 0,0 mm 0,0 km/h (0 Bft) O-SO 118 0 min 0,000 mm 0,0 UV-I 0 W/m 11,1 C 0,0 km/h (0 Bft)
13.08.2016 00:43 12,4 C 12,4 C 92 % 1027,2 hPa 0,0 mm 0,0 km/h (0 Bft) O-SO 118 0 min 0,000 mm 0,0 UV-I 0 W/m 11,1 C 0,0 km/h (0 Bft)
13.08.2016 00:44 12,3 C 12,4 C 92 % 1027,2 hPa 0,0 mm 0,3 km/h (0 Bft) O-NO 73 0 min 0,000 mm 0,0 UV-I 0 W/m 11,0 C 1,6 km/h (1 Bft)
13.08.2016 00:45 12,3 C 12,3 C 92 % 1027,2 hPa 0,0 mm 0,2 km/h (0 Bft) O-NO 73 0 min 0,000 mm 0,0 UV-I 0 W/m 11,0 C 1,6 km/h (1 Bft)
13.08.2016 00:46 12,3 C 12,3 C 93 % 1027,1 hPa 0,0 mm 0,2 km/h (0 Bft) O-NO 73 0 min 0,000 mm 0,0 UV-I 0 W/m 11,2 C 1,6 km/h (1 Bft)
13.08.2016 00:47 12,3 C 12,3 C 93 % 1027,1 hPa 0,0 mm 1,5 km/h (1 Bft) O-NO 77 0 min 0,000 mm 0,0 UV-I 0 W/m 11,2 C 3,2 km/h (1 Bft)
13.08.2016 00:48 12,3 C 12,3 C 93 % 1027,1 hPa 0,0 mm 0,4 km/h (0 Bft) O-NO 77 0 min 0,000 mm 0,0 UV-I 0 W/m 11,2 C 1,6 km/h (1 Bft)
13.08.2016 00:49 12,2 C 12,3 C 93 % 1027,1 hPa 0,0 mm 0,0 km/h (0 Bft) O-NO 77 0 min 0,000 mm 0,0 UV-I 0 W/m 11,1 C 0,0 km/h (0 Bft)
13.08.2016 00:50 12,2 C 12,2 C 93 % 1027,1 hPa 0,0 mm 0,4 km/h (0 Bft) O-NO 77 0 min 0,000 mm 0,0 UV-I 0 W/m 11,1 C 1,6 km/h (1 Bft)
13.08.2016 00:51 12,2 C 12,2 C 93 % 1027,1 hPa 0,0 mm 0,7 km/h (0 Bft) O-NO 77 0 min 0,000 mm 0,0 UV-I 0 W/m 11,1 C 1,6 km/h (1 Bft)
13.08.2016 00:52 12,2 C 12,2 C 93 % 1027,0 hPa 0,0 mm 0,0 km/h (0 Bft) O-NO 74 0 min 0,000 mm 0,0 UV-I 0 W/m 11,1 C 0,0 km/h (0 Bft)
13.08.2016 00:53 12,2 C 12,2 C 93 % 1027,1 hPa 0,0 mm 0,1 km/h (0 Bft) O-NO 74 0 min 0,000 mm 0,0 UV-I 0 W/m 11,1 C 1,6 km/h (1 Bft)
13.08.2016 00:54 12,2 C 12,2 C 93 % 1027,0 hPa 0,0 mm 0,1 km/h (0 Bft) O-NO 74 0 min 0,000 mm 0,0 UV-I 0 W/m 11,1 C 1,6 km/h (1 Bft)
13.08.2016 00:55 12,2 C 12,2 C 93 % 1027,0 hPa 0,0 mm 0,0 km/h (0 Bft) O-NO 74 0 min 0,000 mm 0,0 UV-I 0 W/m 11,1 C 0,0 km/h (0 Bft)
13.08.2016 00:56 12,2 C 12,2 C 93 % 1027,0 hPa 0,0 mm 0,3 km/h (0 Bft) O-NO 57 0 min 0,000 mm 0,0 UV-I 0 W/m 11,1 C 1,6 km/h (1 Bft)
13.08.2016 00:57 12,2 C 12,2 C 94 % 1027,0 hPa 0,0 mm 0,7 km/h (0 Bft) NW 323 0 min 0,000 mm 0,0 UV-I 0 W/m 11,3 C 3,2 km/h (1 Bft)
13.08.2016 00:58 12,2 C 12,2 C 94 % 1027,0 hPa 0,0 mm 0,0 km/h (0 Bft) NW 323 0 min 0,000 mm 0,0 UV-I 0 W/m 11,3 C 0,0 km/h (0 Bft)
13.08.2016 00:59 12,2 C 12,2 C 93 % 1027,0 hPa 0,0 mm 0,0 km/h (0 Bft) NW 323 0 min 0,000 mm 0,0 UV-I 0 W/m 11,1 C 0,0 km/h (0 Bft)
13.08.2016 01:00 12,2 C 12,2 C 93 % 1027,0 hPa 0,0 mm 0,0 km/h (0 Bft) NW 323 0 min 0,000 mm 0,0 UV-I 0 W/m 11,1 C 0,0 km/h (0 Bft)
13.08.2016 01:01 12,2 C 12,2 C 93 % 1027,0 hPa 0,0 mm 0,0 km/h (0 Bft) NW 323 0 min 0,000 mm 0,0 UV-I 0 W/m 11,1 C 0,0 km/h (0 Bft)
13.08.2016 01:02 12,1 C 12,2 C 93 % 1027,0 hPa 0,0 mm 0,1 km/h (0 Bft) NW 323 0 min 0,000 mm 0,0 UV-I 0 W/m 11,0 C 1,6 km/h (1 Bft)
13.08.2016 01:03 12,1 C 12,2 C 93 % 1027,0 hPa 0,0 mm 0,7 km/h (0 Bft) W 265 0 min 0,000 mm 0,0 UV-I 0 W/m 11,0 C 1,6 km/h (1 Bft)
13.08.2016 01:04 12,1 C 12,2 C 93 % 1027,0 hPa 0,0 mm 0,7 km/h (0 Bft) W 266 0 min 0,000 mm 0,0 UV-I 0 W/m 11,0 C 1,6 km/h (1 Bft)
13.08.2016 01:05 12,1 C 12,2 C 93 % 1027,0 hPa 0,0 mm 0,6 km/h (0 Bft) W 266 0 min 0,000 mm 0,0 UV-I 0 W/m 11,0 C 1,6 km/h (1 Bft)
13.08.2016 01:06 12,1 C 12,1 C 93 % 1026,9 hPa 0,0 mm 0,5 km/h (0 Bft) W 266 0 min 0,000 mm 0,0 UV-I 0 W/m 11,0 C 1,6 km/h (1 Bft)
13.08.2016 01:07 12,1 C 12,1 C 93 % 1026,9 hPa 0,0 mm 0,8 km/h (0 Bft) W 266 0 min 0,000 mm 0,0 UV-I 0 W/m 11,0 C 1,6 km/h (1 Bft)
13.08.2016 01:08 12,1 C 12,1 C 94 % 1026,9 hPa 0,0 mm 0,0 km/h (0 Bft) W 266 0 min 0,000 mm 0,0 UV-I 0 W/m 11,2 C 0,0 km/h (0 Bft)
13.08.2016 01:09 12,1 C 12,1 C 94 % 1026,9 hPa 0,0 mm 0,7 km/h (0 Bft) W 266 0 min 0,000 mm 0,0 UV-I 0 W/m 11,2 C 1,6 km/h (1 Bft)
13.08.2016 01:10 12,1 C 12,1 C 94 % 1026,9 hPa 0,0 mm 0,2 km/h (0 Bft) W 266 0 min 0,000 mm 0,0 UV-I 0 W/m 11,2 C 1,6 km/h (1 Bft)
13.08.2016 01:11 12,1 C 12,1 C 94 % 1026,9 hPa 0,0 mm 0,0 km/h (0 Bft) W 266 0 min 0,000 mm 0,0 UV-I 0 W/m 11,2 C 0,0 km/h (0 Bft)
13.08.2016 01:12 12,0 C 12,1 C 94 % 1026,9 hPa 0,0 mm 0,0 km/h (0 Bft) W 266 0 min 0,000 mm 0,0 UV-I 0 W/m 11,1 C 0,0 km/h (0 Bft)
13.08.2016 01:13 12,0 C 12,0 C 94 % 1026,9 hPa 0,0 mm 0,0 km/h (0 Bft) W 266 0 min 0,000 mm 0,0 UV-I 0 W/m 11,1 C 0,0 km/h (0 Bft)
13.08.2016 01:14 11,9 C 12,0 C 94 % 1026,9 hPa 0,0 mm 0,0 km/h (0 Bft) W 266 0 min 0,000 mm 0,0 UV-I 0 W/m 11,0 C 0,0 km/h (0 Bft)
13.08.2016 01:15 11,9 C 11,9 C 94 % 1026,9 hPa 0,0 mm 0,0 km/h (0 Bft) W 266 0 min 0,000 mm 0,0 UV-I 0 W/m 11,0 C 0,0 km/h (0 Bft)
13.08.2016 01:16 11,9 C 11,9 C 94 % 1026,9 hPa 0,0 mm 0,0 km/h (0 Bft) W 266 0 min 0,000 mm 0,0 UV-I 0 W/m 11,0 C 0,0 km/h (0 Bft)
13.08.2016 01:17 11,9 C 11,9 C 94 % 1026,9 hPa 0,0 mm 0,0 km/h (0 Bft) W 266 0 min 0,000 mm 0,0 UV-I 0 W/m 11,0 C 0,0 km/h (0 Bft)
13.08.2016 01:18 11,9 C 11,9 C 94 % 1026,9 hPa 0,0 mm 0,0 km/h (0 Bft) W 266 0 min 0,000 mm 0,0 UV-I 0 W/m 11,0 C 0,0 km/h (0 Bft)
13.08.2016 01:19 11,9 C 11,9 C 94 % 1026,9 hPa 0,0 mm 0,1 km/h (0 Bft) W 266 0 min 0,000 mm 0,0 UV-I 0 W/m 11,0 C 1,6 km/h (1 Bft)
13.08.2016 01:20 11,9 C 11,9 C 94 % 1026,9 hPa 0,0 mm 0,2 km/h (0 Bft) W 266 0 min 0,000 mm 0,0 UV-I 0 W/m 11,0 C 1,6 km/h (1 Bft)
13.08.2016 01:21 11,9 C 11,9 C 94 % 1026,9 hPa 0,0 mm 0,5 km/h (0 Bft) W 266 0 min 0,000 mm 0,0 UV-I 0 W/m 11,0 C 1,6 km/h (1 Bft)
13.08.2016 01:22 11,8 C 11,9 C 94 % 1026,9 hPa 0,0 mm 0,7 km/h (0 Bft) W 266 0 min 0,000 mm 0,0 UV-I 0 W/m 10,9 C 1,6 km/h (1 Bft)
13.08.2016 01:23 11,9 C 11,9 C 94 % 1026,9 hPa 0,0 mm 0,3 km/h (0 Bft) W 266 0 min 0,000 mm 0,0 UV-I 0 W/m 11,0 C 1,6 km/h (1 Bft)
13.08.2016 01:24 11,9 C 11,9 C 94 % 1027,0 hPa 0,0 mm 0,0 km/h (0 Bft) W 266 0 min 0,000 mm 0,0 UV-I 0 W/m 11,0 C 0,0 km/h (0 Bft)
13.08.2016 01:25 11,8 C 11,9 C 94 % 1026,9 hPa 0,0 mm 0,0 km/h (0 Bft) W 266 0 min 0,000 mm 0,0 UV-I 0 W/m 10,9 C 0,0 km/h (0 Bft)
13.08.2016 01:26 11,9 C 11,9 C 94 % 1027,0 hPa 0,0 mm 0,0 km/h (0 Bft) W 266 0 min 0,000 mm 0,0 UV-I 0 W/m 11,0 C 0,0 km/h (0 Bft)
13.08.2016 01:27 11,9 C 11,9 C 95 % 1026,9 hPa 0,0 mm 0,0 km/h (0 Bft) W 266 0 min 0,000 mm 0,0 UV-I 0 W/m 11,1 C 0,0 km/h (0 Bft)
13.08.2016 01:28 11,9 C 11,9 C 95 % 1026,9 hPa 0,0 mm 0,0 km/h (0 Bft) W 266 0 min 0,000 mm 0,0 UV-I 0 W/m 11,1 C 0,0 km/h (0 Bft)
13.08.2016 01:29 11,9 C 11,9 C 94 % 1026,9 hPa 0,0 mm 0,0 km/h (0 Bft) W 266 0 min 0,000 mm 0,0 UV-I 0 W/m 11,0 C 0,0 km/h (0 Bft)
13.08.2016 01:30 11,9 C 11,9 C 94 % 1026,9 hPa 0,0 mm 0,8 km/h (0 Bft) W 266 0 min 0,000 mm 0,0 UV-I 0 W/m 11,0 C 3,2 km/h (1 Bft)
13.08.2016 01:31 11,8 C 11,9 C 94 % 1026,9 hPa 0,0 mm 0,7 km/h (0 Bft) W 266 0 min 0,000 mm 0,0 UV-I 0 W/m 10,9 C 3,2 km/h (1 Bft)
13.08.2016 01:32 11,8 C 11,8 C 94 % 1026,9 hPa 0,0 mm 0,1 km/h (0 Bft) W 266 0 min 0,000 mm 0,0 UV-I 0 W/m 10,9 C 1,6 km/h (1 Bft)
13.08.2016 01:33 11,8 C 11,8 C 94 % 1026,9 hPa 0,0 mm 0,2 km/h (0 Bft) W 266 0 min 0,000 mm 0,0 UV-I 0 W/m 10,9 C 1,6 km/h (1 Bft)
13.08.2016 01:34 11,8 C 11,8 C 94 % 1026,9 hPa 0,0 mm 1,5 km/h (1 Bft) W 266 0 min 0,000 mm 0,0 UV-I 0 W/m 10,9 C 3,2 km/h (1 Bft)
13.08.2016 01:35 11,7 C 11,8 C 94 % 1026,9 hPa 0,0 mm 0,6 km/h (0 Bft) W 266 0 min 0,000 mm 0,0 UV-I 0 W/m 10,8 C 1,6 km/h (1 Bft)
13.08.2016 01:36 11,7 C 11,8 C 94 % 1026,9 hPa 0,0 mm 2,0 km/h (1 Bft) W 266 0 min 0,000 mm 0,0 UV-I 0 W/m 10,8 C 3,2 km/h (1 Bft)
13.08.2016 01:37 11,7 C 11,8 C 94 % 1026,9 hPa 0,0 mm 1,9 km/h (1 Bft) W 266 0 min 0,000 mm 0,0 UV-I 0 W/m 10,8 C 3,2 km/h (1 Bft)
13.08.2016 01:38 11,7 C 11,7 C 94 % 1026,9 hPa 0,0 mm 0,6 km/h (0 Bft) W 266 0 min 0,000 mm 0,0 UV-I 0 W/m 10,8 C 1,6 km/h (1 Bft)
13.08.2016 01:39 11,7 C 11,7 C 94 % 1026,8 hPa 0,0 mm 0,2 km/h (0 Bft) W 266 0 min 0,000 mm 0,0 UV-I 0 W/m 10,8 C 1,6 km/h (1 Bft)
13.08.2016 01:40 11,7 C 11,7 C 94 % 1026,9 hPa 0,0 mm 0,5 km/h (0 Bft) W 266 0 min 0,000 mm 0,0 UV-I 0 W/m 10,8 C 1,6 km/h (1 Bft)
13.08.2016 01:41 11,6 C 11,7 C 94 % 1026,9 hPa 0,0 mm 1,3 km/h (1 Bft) W 266 0 min 0,000 mm 0,0 UV-I 0 W/m 10,7 C 3,2 km/h (1 Bft)
13.08.2016 01:42 11,6 C 11,6 C 94 % 1026,9 hPa 0,0 mm 0,1 km/h (0 Bft) W 266 0 min 0,000 mm 0,0 UV-I 0 W/m 10,7 C 1,6 km/h (1 Bft)
13.08.2016 01:43 11,6 C 11,6 C 94 % 1026,8 hPa 0,0 mm 0,1 km/h (0 Bft) W 266 0 min 0,000 mm 0,0 UV-I 0 W/m 10,7 C 1,6 km/h (1 Bft)
13.08.2016 01:44 11,6 C 11,6 C 94 % 1026,9 hPa 0,0 mm 0,0 km/h (0 Bft) W 266 0 min 0,000 mm 0,0 UV-I 0 W/m 10,7 C 0,0 km/h (0 Bft)
13.08.2016 01:45 11,6 C 11,6 C 94 % 1026,9 hPa 0,0 mm 0,1 km/h (0 Bft) W 266 0 min 0,000 mm 0,0 UV-I 0 W/m 10,7 C 1,6 km/h (1 Bft)
13.08.2016 01:46 11,6 C 11,6 C 94 % 1026,8 hPa 0,0 mm 1,4 km/h (1 Bft) W 266 0 min 0,000 mm 0,0 UV-I 0 W/m 10,7 C 1,6 km/h (1 Bft)
13.08.2016 01:47 11,6 C 11,6 C 94 % 1026,8 hPa 0,0 mm 0,1 km/h (0 Bft) W 266 0 min 0,000 mm 0,0 UV-I 0 W/m 10,7 C 1,6 km/h (1 Bft)
13.08.2016 01:48 11,6 C 11,6 C 94 % 1026,8 hPa 0,0 mm 0,2 km/h (0 Bft) W 266 0 min 0,000 mm 0,0 UV-I 0 W/m 10,7 C 1,6 km/h (1 Bft)
13.08.2016 01:49 11,5 C 11,6 C 94 % 1026,8 hPa 0,0 mm 0,0 km/h (0 Bft) W 266 0 min 0,000 mm 0,0 UV-I 0 W/m 10,6 C 0,0 km/h (0 Bft)
13.08.2016 01:50 11,4 C 11,5 C 94 % 1026,8 hPa 0,0 mm 0,0 km/h (0 Bft) W 266 0 min 0,000 mm 0,0 UV-I 0 W/m 10,5 C 0,0 km/h (0 Bft)
13.08.2016 01:51 11,4 C 11,4 C 93 % 1026,8 hPa 0,0 mm 0,2 km/h (0 Bft) W 266 0 min 0,000 mm 0,0 UV-I 0 W/m 10,3 C 1,6 km/h (1 Bft)
13.08.2016 01:52 11,3 C 11,4 C 93 % 1026,8 hPa 0,0 mm 0,0 km/h (0 Bft) W 266 0 min 0,000 mm 0,0 UV-I 0 W/m 10,2 C 0,0 km/h (0 Bft)
13.08.2016 01:53 11,3 C 11,3 C 93 % 1026,8 hPa 0,0 mm 0,0 km/h (0 Bft) W 266 0 min 0,000 mm 0,0 UV-I 0 W/m 10,2 C 0,0 km/h (0 Bft)
13.08.2016 01:54 11,2 C 11,3 C 94 % 1026,8 hPa 0,0 mm 0,3 km/h (0 Bft) W 266 0 min 0,000 mm 0,0 UV-I 0 W/m 10,3 C 1,6 km/h (1 Bft)
13.08.2016 01:55 11,2 C 11,2 C 94 % 1026,8 hPa 0,0 mm 0,5 km/h (0 Bft) W 266 0 min 0,000 mm 0,0 UV-I 0 W/m 10,3 C 1,6 km/h (1 Bft)
13.08.2016 01:56 11,2 C 11,2 C 94 % 1026,8 hPa 0,0 mm 0,0 km/h (0 Bft) W 266 0 min 0,000 mm 0,0 UV-I 0 W/m 10,3 C 0,0 km/h (0 Bft)
13.08.2016 01:57 11,2 C 11,2 C 94 % 1026,7 hPa 0,0 mm 0,0 km/h (0 Bft) W 266 0 min 0,000 mm 0,0 UV-I 0 W/m 10,3 C 0,0 km/h (0 Bft)
13.08.2016 01:58 11,1 C 11,2 C 94 % 1026,8 hPa 0,0 mm 0,0 km/h (0 Bft) W 266 0 min 0,000 mm 0,0 UV-I 0 W/m 10,2 C 0,0 km/h (0 Bft)
13.08.2016 01:59 11,1 C 11,1 C 94 % 1026,8 hPa 0,0 mm 0,0 km/h (0 Bft) W 266 0 min 0,000 mm 0,0 UV-I 0 W/m 10,2 C 0,0 km/h (0 Bft)
13.08.2016 02:00 11,1 C 11,2 C 94 % 1026,8 hPa 0,0 mm 0,1 km/h (0 Bft) W 266 0 min 0,000 mm 0,0 UV-I 0 W/m 10,2 C 1,6 km/h (1 Bft)
13.08.2016 02:01 11,1 C 11,1 C 94 % 1026,8 hPa 0,0 mm 0,0 km/h (0 Bft) W 266 0 min 0,000 mm 0,0 UV-I 0 W/m 10,2 C 0,0 km/h (0 Bft)
13.08.2016 02:02 11,1 C 11,1 C 95 % 1026,7 hPa 0,0 mm 0,9 km/h (0 Bft) W 266 0 min 0,000 mm 0,0 UV-I 0 W/m 10,3 C 1,6 km/h (1 Bft)
13.08.2016 02:03 11,1 C 11,1 C 94 % 1026,7 hPa 0,0 mm 0,3 km/h (0 Bft) W 266 0 min 0,000 mm 0,0 UV-I 0 W/m 10,2 C 1,6 km/h (1 Bft)
13.08.2016 02:04 11,0 C 11,1 C 94 % 1026,7 hPa 0,0 mm 0,0 km/h (0 Bft) W 266 0 min 0,000 mm 0,0 UV-I 0 W/m 10,1 C 0,0 km/h (0 Bft)
13.08.2016 02:05 11,0 C 11,0 C 94 % 1026,7 hPa 0,0 mm 0,0 km/h (0 Bft) W 266 0 min 0,000 mm 0,0 UV-I 0 W/m 10,1 C 0,0 km/h (0 Bft)
13.08.2016 02:06 10,9 C 11,0 C 94 % 1026,7 hPa 0,0 mm 0,0 km/h (0 Bft) W 266 0 min 0,000 mm 0,0 UV-I 0 W/m 10,0 C 0,0 km/h (0 Bft)
13.08.2016 02:07 10,9 C 10,9 C 94 % 1026,7 hPa 0,0 mm 0,1 km/h (0 Bft) W 266 0 min 0,000 mm 0,0 UV-I 0 W/m 10,0 C 1,6 km/h (1 Bft)
13.08.2016 02:08 10,9 C 10,9 C 94 % 1026,7 hPa 0,0 mm 0,0 km/h (0 Bft) W 266 0 min 0,000 mm 0,0 UV-I 0 W/m 10,0 C 0,0 km/h (0 Bft)
13.08.2016 02:09 10,9 C 10,9 C 95 % 1026,7 hPa 0,0 mm 0,0 km/h (0 Bft) W 266 0 min 0,000 mm 0,0 UV-I 0 W/m 10,1 C 0,0 km/h (0 Bft)
13.08.2016 02:10 10,9 C 10,9 C 95 % 1026,7 hPa 0,0 mm 0,1 km/h (0 Bft) W 266 0 min 0,000 mm 0,0 UV-I 0 W/m 10,1 C 1,6 km/h (1 Bft)
13.08.2016 02:11 10,9 C 10,9 C 95 % 1026,7 hPa 0,0 mm 0,1 km/h (0 Bft) W 266 0 min 0,000 mm 0,0 UV-I 0 W/m 10,1 C 1,6 km/h (1 Bft)
13.08.2016 02:12 10,9 C 10,9 C 95 % 1026,6 hPa 0,0 mm 0,2 km/h (0 Bft) W 266 0 min 0,000 mm 0,0 UV-I 0 W/m 10,1 C 1,6 km/h (1 Bft)
13.08.2016 02:13 10,9 C 10,9 C 95 % 1026,7 hPa 0,0 mm 0,0 km/h (0 Bft) W 266 0 min 0,000 mm 0,0 UV-I 0 W/m 10,1 C 0,0 km/h (0 Bft)
13.08.2016 02:14 10,9 C 10,9 C 95 % 1026,6 hPa 0,0 mm 0,0 km/h (0 Bft) W 266 0 min 0,000 mm 0,0 UV-I 0 W/m 10,1 C 0,0 km/h (0 Bft)
13.08.2016 02:15 10,9 C 10,9 C 95 % 1026,6 hPa 0,0 mm 0,0 km/h (0 Bft) W 266 0 min 0,000 mm 0,0 UV-I 0 W/m 10,1 C 0,0 km/h (0 Bft)
13.08.2016 02:16 10,9 C 10,9 C 95 % 1026,6 hPa 0,0 mm 0,7 km/h (0 Bft) W 266 0 min 0,000 mm 0,0 UV-I 0 W/m 10,1 C 1,6 km/h (1 Bft)
13.08.2016 02:17 10,9 C 10,9 C 95 % 1026,6 hPa 0,0 mm 0,1 km/h (0 Bft) W 266 0 min 0,000 mm 0,0 UV-I 0 W/m 10,1 C 1,6 km/h (1 Bft)
13.08.2016 02:18 10,9 C 10,9 C 95 % 1026,6 hPa 0,0 mm 0,0 km/h (0 Bft) W 266 0 min 0,000 mm 0,0 UV-I 0 W/m 10,1 C 0,0 km/h (0 Bft)
13.08.2016 02:19 11,0 C 11,0 C 95 % 1026,6 hPa 0,0 mm 0,0 km/h (0 Bft) W 266 0 min 0,000 mm 0,0 UV-I 0 W/m 10,2 C 0,0 km/h (0 Bft)
13.08.2016 02:20 11,0 C 11,0 C 95 % 1026,6 hPa 0,0 mm 0,0 km/h (0 Bft) W 266 0 min 0,000 mm 0,0 UV-I 0 W/m 10,2 C 0,0 km/h (0 Bft)
13.08.2016 02:21 11,0 C 11,0 C 95 % 1026,6 hPa 0,0 mm 0,4 km/h (0 Bft) W 266 0 min 0,000 mm 0,0 UV-I 0 W/m 10,2 C 1,6 km/h (1 Bft)
13.08.2016 02:22 11,1 C 11,1 C 95 % 1026,6 hPa 0,0 mm 2,3 km/h (1 Bft) W 266 0 min 0,000 mm 0,0 UV-I 0 W/m 10,3 C 3,2 km/h (1 Bft)
13.08.2016 02:23 11,1 C 11,1 C 95 % 1026,6 hPa 0,0 mm 1,4 km/h (1 Bft) W 266 0 min 0,000 mm 0,0 UV-I 0 W/m 10,3 C 3,2 km/h (1 Bft)
13.08.2016 02:24 11,2 C 11,2 C 95 % 1026,6 hPa 0,0 mm 0,7 km/h (0 Bft) W 266 0 min 0,000 mm 0,0 UV-I 0 W/m 10,4 C 1,6 km/h (1 Bft)
13.08.2016 02:25 11,2 C 11,2 C 95 % 1026,5 hPa 0,0 mm 0,1 km/h (0 Bft) W 266 0 min 0,000 mm 0,0 UV-I 0 W/m 10,4 C 1,6 km/h (1 Bft)
13.08.2016 02:26 11,1 C 11,2 C 96 % 1026,6 hPa 0,0 mm 0,3 km/h (0 Bft) W 266 0 min 0,000 mm 0,0 UV-I 0 W/m 10,5 C 1,6 km/h (1 Bft)
13.08.2016 02:27 11,2 C 11,2 C 95 % 1026,5 hPa 0,0 mm 0,0 km/h (0 Bft) W 266 0 min 0,000 mm 0,0 UV-I 0 W/m 10,4 C 0,0 km/h (0 Bft)
13.08.2016 02:28 11,2 C 11,2 C 96 % 1026,6 hPa 0,0 mm 1,3 km/h (1 Bft) W 266 0 min 0,000 mm 0,0 UV-I 0 W/m 10,6 C 3,2 km/h (1 Bft)
13.08.2016 02:29 11,2 C 11,2 C 96 % 1026,6 hPa 0,0 mm 1,1 km/h (1 Bft) W-SW 244 0 min 0,000 mm 0,0 UV-I 0 W/m 10,6 C 3,2 km/h (1 Bft)
13.08.2016 02:30 11,2 C 11,2 C 95 % 1026,5 hPa 0,0 mm 0,5 km/h (0 Bft) W-SW 244 0 min 0,000 mm 0,0 UV-I 0 W/m 10,4 C 1,6 km/h (1 Bft)
13.08.2016 02:31 11,2 C 11,2 C 95 % 1026,6 hPa 0,0 mm 0,0 km/h (0 Bft) W-SW 244 0 min 0,000 mm 0,0 UV-I 0 W/m 10,4 C 0,0 km/h (0 Bft)
13.08.2016 02:32 11,2 C 11,2 C 95 % 1026,5 hPa 0,0 mm 0,0 km/h (0 Bft) W-SW 244 0 min 0,000 mm 0,0 UV-I 0 W/m 10,4 C 0,0 km/h (0 Bft)
13.08.2016 02:33 11,2 C 11,2 C 96 % 1026,5 hPa 0,0 mm 0,0 km/h (0 Bft) W 269 0 min 0,000 mm 0,0 UV-I 0 W/m 10,6 C 0,0 km/h (0 Bft)
13.08.2016 02:34 11,3 C 11,3 C 96 % 1026,5 hPa 0,0 mm 0,0 km/h (0 Bft) W 269 0 min 0,000 mm 0,0 UV-I 0 W/m 10,7 C 0,0 km/h (0 Bft)
13.08.2016 02:35 11,3 C 11,3 C 96 % 1026,5 hPa 0,0 mm 0,0 km/h (0 Bft) W 269 0 min 0,000 mm 0,0 UV-I 0 W/m 10,7 C 0,0 km/h (0 Bft)
13.08.2016 02:36 11,3 C 11,3 C 95 % 1026,5 hPa 0,0 mm 0,0 km/h (0 Bft) W 269 0 min 0,000 mm 0,0 UV-I 0 W/m 10,5 C 0,0 km/h (0 Bft)
13.08.2016 02:37 11,3 C 11,3 C 95 % 1026,5 hPa 0,0 mm 0,0 km/h (0 Bft) W 269 0 min 0,000 mm 0,0 UV-I 0 W/m 10,5 C 0,0 km/h (0 Bft)
13.08.2016 02:38 11,3 C 11,3 C 95 % 1026,5 hPa 0,0 mm 0,0 km/h (0 Bft) W 269 0 min 0,000 mm 0,0 UV-I 0 W/m 10,5 C 0,0 km/h (0 Bft)
13.08.2016 02:39 11,3 C 11,3 C 95 % 1026,5 hPa 0,0 mm 0,0 km/h (0 Bft) W 269 0 min 0,000 mm 0,0 UV-I 0 W/m 10,5 C 0,0 km/h (0 Bft)
13.08.2016 02:40 11,3 C 11,3 C 95 % 1026,5 hPa 0,0 mm 0,7 km/h (0 Bft) W 279 0 min 0,000 mm 0,0 UV-I 0 W/m 10,5 C 1,6 km/h (1 Bft)
13.08.2016 02:41 11,3 C 11,3 C 95 % 1026,5 hPa 0,0 mm 0,7 km/h (0 Bft) W 279 0 min 0,000 mm 0,0 UV-I 0 W/m 10,5 C 1,6 km/h (1 Bft)
13.08.2016 02:42 11,3 C 11,3 C 95 % 1026,5 hPa 0,0 mm 0,0 km/h (0 Bft) W 279 0 min 0,000 mm 0,0 UV-I 0 W/m 10,5 C 0,0 km/h (0 Bft)
13.08.2016 02:43 11,3 C 11,3 C 95 % 1026,5 hPa 0,0 mm 0,1 km/h (0 Bft) W 279 0 min 0,000 mm 0,0 UV-I 0 W/m 10,5 C 1,6 km/h (1 Bft)
13.08.2016 02:44 11,3 C 11,3 C 95 % 1026,5 hPa 0,0 mm 0,2 km/h (0 Bft) W 279 0 min 0,000 mm 0,0 UV-I 0 W/m 10,5 C 1,6 km/h (1 Bft)
13.08.2016 02:45 11,3 C 11,3 C 95 % 1026,5 hPa 0,0 mm 0,3 km/h (0 Bft) W 279 0 min 0,000 mm 0,0 UV-I 0 W/m 10,5 C 1,6 km/h (1 Bft)
13.08.2016 02:46 11,3 C 11,3 C 95 % 1026,5 hPa 0,0 mm 0,1 km/h (0 Bft) W 279 0 min 0,000 mm 0,0 UV-I 0 W/m 10,5 C 1,6 km/h (1 Bft)
13.08.2016 02:47 11,3 C 11,3 C 95 % 1026,5 hPa 0,0 mm 0,2 km/h (0 Bft) W 272 0 min 0,000 mm 0,0 UV-I 0 W/m 10,5 C 1,6 km/h (1 Bft)
13.08.2016 02:48 11,3 C 11,3 C 95 % 1026,5 hPa 0,0 mm 0,5 km/h (0 Bft) W 272 0 min 0,000 mm 0,0 UV-I 0 W/m 10,5 C 1,6 km/h (1 Bft)
13.08.2016 02:49 11,3 C 11,3 C 95 % 1026,5 hPa 0,0 mm 0,1 km/h (0 Bft) W 272 0 min 0,000 mm 0,0 UV-I 0 W/m 10,5 C 1,6 km/h (1 Bft)
13.08.2016 02:50 11,3 C 11,3 C 95 % 1026,5 hPa 0,0 mm 0,0 km/h (0 Bft) W 272 0 min 0,000 mm 0,0 UV-I 0 W/m 10,5 C 0,0 km/h (0 Bft)
13.08.2016 02:51 11,3 C 11,3 C 95 % 1026,5 hPa 0,0 mm 0,0 km/h (0 Bft) W 272 0 min 0,000 mm 0,0 UV-I 0 W/m 10,5 C 0,0 km/h (0 Bft)
13.08.2016 02:52 11,3 C 11,3 C 94 % 1026,5 hPa 0,0 mm 0,1 km/h (0 Bft) W 272 0 min 0,000 mm 0,0 UV-I 0 W/m 10,4 C 1,6 km/h (1 Bft)
13.08.2016 02:53 11,3 C 11,3 C 94 % 1026,5 hPa 0,0 mm 0,0 km/h (0 Bft) W 272 0 min 0,000 mm 0,0 UV-I 0 W/m 10,4 C 0,0 km/h (0 Bft)
13.08.2016 02:54 11,3 C 11,3 C 94 % 1026,5 hPa 0,0 mm 0,5 km/h (0 Bft) NW 319 0 min 0,000 mm 0,0 UV-I 0 W/m 10,4 C 3,2 km/h (1 Bft)
13.08.2016 02:55 11,3 C 11,3 C 94 % 1026,5 hPa 0,0 mm 0,0 km/h (0 Bft) NW 319 0 min 0,000 mm 0,0 UV-I 0 W/m 10,4 C 0,0 km/h (0 Bft)
13.08.2016 02:56 11,3 C 11,3 C 94 % 1026,4 hPa 0,0 mm 0,0 km/h (0 Bft) NW 319 0 min 0,000 mm 0,0 UV-I 0 W/m 10,4 C 0,0 km/h (0 Bft)
13.08.2016 02:57 11,3 C 11,3 C 94 % 1026,4 hPa 0,0 mm 0,0 km/h (0 Bft) NW 319 0 min 0,000 mm 0,0 UV-I 0 W/m 10,4 C 0,0 km/h (0 Bft)
13.08.2016 02:58 11,2 C 11,3 C 94 % 1026,4 hPa 0,0 mm 1,2 km/h (1 Bft) W 274 0 min 0,000 mm 0,0 UV-I 0 W/m 10,3 C 3,2 km/h (1 Bft)
13.08.2016 02:59 11,3 C 11,3 C 94 % 1026,4 hPa 0,0 mm 0,7 km/h (0 Bft) W 273 0 min 0,000 mm 0,0 UV-I 0 W/m 10,4 C 3,2 km/h (1 Bft)
13.08.2016 03:00 11,2 C 11,3 C 94 % 1026,4 hPa 0,0 mm 0,1 km/h (0 Bft) W 273 0 min 0,000 mm 0,0 UV-I 0 W/m 10,3 C 1,6 km/h (1 Bft)
13.08.2016 03:01 11,2 C 11,2 C 94 % 1026,4 hPa 0,0 mm 0,1 km/h (0 Bft) W 273 0 min 0,000 mm 0,0 UV-I 0 W/m 10,3 C 1,6 km/h (1 Bft)
13.08.2016 03:02 11,2 C 11,2 C 94 % 1026,4 hPa 0,0 mm 0,0 km/h (0 Bft) W 273 0 min 0,000 mm 0,0 UV-I 0 W/m 10,3 C 0,0 km/h (0 Bft)
13.08.2016 03:03 11,2 C 11,2 C 95 % 1026,4 hPa 0,0 mm 0,2 km/h (0 Bft) W 273 0 min 0,000 mm 0,0 UV-I 0 W/m 10,4 C 1,6 km/h (1 Bft)
13.08.2016 03:04 11,2 C 11,2 C 95 % 1026,3 hPa 0,0 mm 0,0 km/h (0 Bft) W 273 0 min 0,000 mm 0,0 UV-I 0 W/m 10,4 C 0,0 km/h (0 Bft)
13.08.2016 03:05 11,2 C 11,2 C 95 % 1026,3 hPa 0,0 mm 0,0 km/h (0 Bft) W 273 0 min 0,000 mm 0,0 UV-I 0 W/m 10,4 C 0,0 km/h (0 Bft)
13.08.2016 03:06 11,1 C 11,2 C 95 % 1026,3 hPa 0,0 mm 0,0 km/h (0 Bft) W 273 0 min 0,000 mm 0,0 UV-I 0 W/m 10,3 C 0,0 km/h (0 Bft)
13.08.2016 03:07 11,1 C 11,1 C 95 % 1026,4 hPa 0,0 mm 0,0 km/h (0 Bft) W 273 0 min 0,000 mm 0,0 UV-I 0 W/m 10,3 C 0,0 km/h (0 Bft)
13.08.2016 03:08 11,2 C 11,2 C 95 % 1026,3 hPa 0,0 mm 0,0 km/h (0 Bft) W 273 0 min 0,000 mm 0,0 UV-I 0 W/m 10,4 C 0,0 km/h (0 Bft)
13.08.2016 03:09 11,2 C 11,2 C 95 % 1026,3 hPa 0,0 mm 0,0 km/h (0 Bft) W 273 0 min 0,000 mm 0,0 UV-I 0 W/m 10,4 C 0,0 km/h (0 Bft)
13.08.2016 03:10 11,2 C 11,2 C 95 % 1026,3 hPa 0,0 mm 0,0 km/h (0 Bft) W 273 0 min 0,000 mm 0,0 UV-I 0 W/m 10,4 C 0,0 km/h (0 Bft)
13.08.2016 03:11 11,2 C 11,2 C 95 % 1026,3 hPa 0,0 mm 0,0 km/h (0 Bft) W 273 0 min 0,000 mm 0,0 UV-I 0 W/m 10,4 C 0,0 km/h (0 Bft)
13.08.2016 03:12 11,2 C 11,2 C 95 % 1026,3 hPa 0,0 mm 0,0 km/h (0 Bft) W 273 0 min 0,000 mm 0,0 UV-I 0 W/m 10,4 C 0,0 km/h (0 Bft)
13.08.2016 03:13 11,2 C 11,2 C 95 % 1026,3 hPa 0,0 mm 0,1 km/h (0 Bft) W 273 0 min 0,000 mm 0,0 UV-I 0 W/m 10,4 C 1,6 km/h (1 Bft)
13.08.2016 03:14 11,2 C 11,2 C 95 % 1026,3 hPa 0,0 mm 0,0 km/h (0 Bft) W 273 0 min 0,000 mm 0,0 UV-I 0 W/m 10,4 C 0,0 km/h (0 Bft)
13.08.2016 03:15 11,2 C 11,2 C 95 % 1026,3 hPa 0,0 mm 0,0 km/h (0 Bft) W 273 0 min 0,000 mm 0,0 UV-I 0 W/m 10,4 C 0,0 km/h (0 Bft)
13.08.2016 03:16 11,2 C 11,2 C 95 % 1026,2 hPa 0,0 mm 0,0 km/h (0 Bft) W 273 0 min 0,000 mm 0,0 UV-I 0 W/m 10,4 C 0,0 km/h (0 Bft)
13.08.2016 03:17 11,0 C 11,2 C 95 % 1026,2 hPa 0,0 mm 0,1 km/h (0 Bft) W 273 0 min 0,000 mm 0,0 UV-I 0 W/m 10,2 C 1,6 km/h (1 Bft)
13.08.2016 03:18 10,9 C 11,1 C 94 % 1026,2 hPa 0,0 mm 0,2 km/h (0 Bft) W 273 0 min 0,000 mm 0,0 UV-I 0 W/m 10,0 C 1,6 km/h (1 Bft)
13.08.2016 03:19 10,9 C 10,9 C 95 % 1026,2 hPa 0,0 mm 0,0 km/h (0 Bft) W 273 0 min 0,000 mm 0,0 UV-I 0 W/m 10,1 C 0,0 km/h (0 Bft)
13.08.2016 03:20 10,9 C 10,9 C 95 % 1026,2 hPa 0,0 mm 0,2 km/h (0 Bft) W 273 0 min 0,000 mm 0,0 UV-I 0 W/m 10,1 C 1,6 km/h (1 Bft)
13.08.2016 03:21 10,9 C 10,9 C 95 % 1026,2 hPa 0,0 mm 0,0 km/h (0 Bft) W 273 0 min 0,000 mm 0,0 UV-I 0 W/m 10,1 C 0,0 km/h (0 Bft)
13.08.2016 03:22 10,9 C 10,9 C 95 % 1026,2 hPa 0,0 mm 0,2 km/h (0 Bft) W 273 0 min 0,000 mm 0,0 UV-I 0 W/m 10,1 C 1,6 km/h (1 Bft)
13.08.2016 03:23 10,8 C 10,9 C 95 % 1026,2 hPa 0,0 mm 0,0 km/h (0 Bft) W 273 0 min 0,000 mm 0,0 UV-I 0 W/m 10,0 C 0,0 km/h (0 Bft)
13.08.2016 03:24 10,8 C 10,8 C 95 % 1026,2 hPa 0,0 mm 0,2 km/h (0 Bft) W 273 0 min 0,000 mm 0,0 UV-I 0 W/m 10,0 C 1,6 km/h (1 Bft)
13.08.2016 03:25 10,8 C 10,8 C 95 % 1026,2 hPa 0,0 mm 0,1 km/h (0 Bft) W 273 0 min 0,000 mm 0,0 UV-I 0 W/m 10,0 C 1,6 km/h (1 Bft)
13.08.2016 03:26 10,8 C 10,8 C 95 % 1026,2 hPa 0,0 mm 0,0 km/h (0 Bft) W 273 0 min 0,000 mm 0,0 UV-I 0 W/m 10,0 C 0,0 km/h (0 Bft)
13.08.2016 03:27 10,7 C 10,8 C 95 % 1026,2 hPa 0,0 mm 0,0 km/h (0 Bft) W 273 0 min 0,000 mm 0,0 UV-I 0 W/m 9,9 C 0,0 km/h (0 Bft)
13.08.2016 03:28 10,7 C 10,7 C 95 % 1026,2 hPa 0,0 mm 0,0 km/h (0 Bft) W 273 0 min 0,000 mm 0,0 UV-I 0 W/m 9,9 C 0,0 km/h (0 Bft)
13.08.2016 03:29 10,6 C 10,7 C 95 % 1026,2 hPa 0,0 mm 0,0 km/h (0 Bft) W 273 0 min 0,000 mm 0,0 UV-I 0 W/m 9,8 C 0,0 km/h (0 Bft)
13.08.2016 03:30 10,6 C 10,6 C 95 % 1026,2 hPa 0,0 mm 0,0 km/h (0 Bft) W 273 0 min 0,000 mm 0,0 UV-I 0 W/m 9,8 C 0,0 km/h (0 Bft)
13.08.2016 03:31 10,6 C 10,6 C 95 % 1026,2 hPa 0,0 mm 0,0 km/h (0 Bft) W 273 0 min 0,000 mm 0,0 UV-I 0 W/m 9,8 C 0,0 km/h (0 Bft)
13.08.2016 03:32 10,6 C 10,6 C 95 % 1026,2 hPa 0,0 mm 0,0 km/h (0 Bft) W 273 0 min 0,000 mm 0,0 UV-I 0 W/m 9,8 C 0,0 km/h (0 Bft)
13.08.2016 03:33 10,6 C 10,6 C 95 % 1026,2 hPa 0,0 mm 0,0 km/h (0 Bft) W 273 0 min 0,000 mm 0,0 UV-I 0 W/m 9,8 C 0,0 km/h (0 Bft)
13.08.2016 03:34 10,6 C 10,6 C 95 % 1026,2 hPa 0,0 mm 0,1 km/h (0 Bft) W 273 0 min 0,000 mm 0,0 UV-I 0 W/m 9,8 C 1,6 km/h (1 Bft)
13.08.2016 03:35 10,5 C 10,6 C 95 % 1026,2 hPa 0,0 mm 0,0 km/h (0 Bft) W 273 0 min 0,000 mm 0,0 UV-I 0 W/m 9,7 C 0,0 km/h (0 Bft)
13.08.2016 03:36 10,5 C 10,6 C 95 % 1026,1 hPa 0,0 mm 0,0 km/h (0 Bft) W 273 0 min 0,000 mm 0,0 UV-I 0 W/m 9,7 C 0,0 km/h (0 Bft)
13.08.2016 03:37 10,5 C 10,6 C 95 % 1026,1 hPa 0,0 mm 0,0 km/h (0 Bft) W 273 0 min 0,000 mm 0,0 UV-I 0 W/m 9,7 C 0,0 km/h (0 Bft)
13.08.2016 03:39 10,6 C 10,6 C 95 % 1026,1 hPa 0,0 mm 0,0 km/h (0 Bft) W 273 0 min 0,000 mm 0,0 UV-I 0 W/m 9,8 C 0,0 km/h (0 Bft)
13.08.2016 03:40 10,5 C 10,6 C 95 % 1026,1 hPa 0,0 mm 0,0 km/h (0 Bft) W 273 0 min 0,000 mm 0,0 UV-I 0 W/m 9,7 C 0,0 km/h (0 Bft)
13.08.2016 03:41 10,4 C 10,6 C 95 % 1026,1 hPa 0,0 mm 0,0 km/h (0 Bft) W 273 0 min 0,000 mm 0,0 UV-I 0 W/m 9,6 C 0,0 km/h (0 Bft)
13.08.2016 03:42 10,4 C 10,4 C 95 % 1026,1 hPa 0,0 mm 0,0 km/h (0 Bft) W 273 0 min 0,000 mm 0,0 UV-I 0 W/m 9,6 C 0,0 km/h (0 Bft)
13.08.2016 03:43 10,4 C 10,4 C 95 % 1026,1 hPa 0,0 mm 0,1 km/h (0 Bft) W 273 0 min 0,000 mm 0,0 UV-I 0 W/m 9,6 C 1,6 km/h (1 Bft)
13.08.2016 03:44 10,4 C 10,4 C 95 % 1026,1 hPa 0,0 mm 0,0 km/h (0 Bft) W 273 0 min 0,000 mm 0,0 UV-I 0 W/m 9,6 C 0,0 km/h (0 Bft)
13.08.2016 03:45 10,3 C 10,4 C 95 % 1026,1 hPa 0,0 mm 0,0 km/h (0 Bft) W 273 0 min 0,000 mm 0,0 UV-I 0 W/m 9,5 C 0,0 km/h (0 Bft)
13.08.2016 03:46 10,2 C 10,3 C 95 % 1026,1 hPa 0,0 mm 0,0 km/h (0 Bft) W 273 0 min 0,000 mm 0,0 UV-I 0 W/m 9,4 C 0,0 km/h (0 Bft)
13.08.2016 03:47 10,2 C 10,2 C 95 % 1026,1 hPa 0,0 mm 0,1 km/h (0 Bft) W 273 0 min 0,000 mm 0,0 UV-I 0 W/m 9,4 C 1,6 km/h (1 Bft)
13.08.2016 03:48 10,2 C 10,2 C 95 % 1026,0 hPa 0,0 mm 0,0 km/h (0 Bft) W 273 0 min 0,000 mm 0,0 UV-I 0 W/m 9,4 C 0,0 km/h (0 Bft)
13.08.2016 03:49 10,2 C 10,2 C 95 % 1026,0 hPa 0,0 mm 0,0 km/h (0 Bft) W 273 0 min 0,000 mm 0,0 UV-I 0 W/m 9,4 C 0,0 km/h (0 Bft)
13.08.2016 03:50 10,2 C 10,3 C 95 % 1026,0 hPa 0,0 mm 0,0 km/h (0 Bft) W 273 0 min 0,000 mm 0,0 UV-I 0 W/m 9,4 C 0,0 km/h (0 Bft)
13.08.2016 03:51 10,2 C 10,2 C 95 % 1026,1 hPa 0,0 mm 0,0 km/h (0 Bft) W 273 0 min 0,000 mm 0,0 UV-I 0 W/m 9,4 C 0,0 km/h (0 Bft)
13.08.2016 03:52 10,2 C 10,2 C 95 % 1026,0 hPa 0,0 mm 0,0 km/h (0 Bft) W 273 0 min 0,000 mm 0,0 UV-I 0 W/m 9,4 C 0,0 km/h (0 Bft)
13.08.2016 03:53 10,2 C 10,2 C 95 % 1026,0 hPa 0,0 mm 0,0 km/h (0 Bft) W 273 0 min 0,000 mm 0,0 UV-I 0 W/m 9,4 C 0,0 km/h (0 Bft)
13.08.2016 03:54 10,2 C 10,2 C 96 % 1026,0 hPa 0,0 mm 0,2 km/h (0 Bft) W 273 0 min 0,000 mm 0,0 UV-I 0 W/m 9,6 C 1,6 km/h (1 Bft)
13.08.2016 03:55 10,2 C 10,2 C 96 % 1026,0 hPa 0,0 mm 0,0 km/h (0 Bft) W 273 0 min 0,000 mm 0,0 UV-I 0 W/m 9,6 C 0,0 km/h (0 Bft)
13.08.2016 03:56 10,2 C 10,2 C 96 % 1026,0 hPa 0,0 mm 0,0 km/h (0 Bft) W 273 0 min 0,000 mm 0,0 UV-I 0 W/m 9,6 C 0,0 km/h (0 Bft)
13.08.2016 03:57 10,1 C 10,2 C 96 % 1026,0 hPa 0,0 mm 0,0 km/h (0 Bft) W 273 0 min 0,000 mm 0,0 UV-I 0 W/m 9,5 C 0,0 km/h (0 Bft)
13.08.2016 03:58 10,1 C 10,2 C 96 % 1026,0 hPa 0,0 mm 0,0 km/h (0 Bft) W 273 0 min 0,000 mm 0,0 UV-I 0 W/m 9,5 C 0,0 km/h (0 Bft)
13.08.2016 03:59 10,1 C 10,2 C 96 % 1026,0 hPa 0,0 mm 0,0 km/h (0 Bft) W 273 0 min 0,000 mm 0,0 UV-I 0 W/m 9,5 C 0,0 km/h (0 Bft)
13.08.2016 04:00 10,2 C 10,2 C 96 % 1026,0 hPa 0,0 mm 0,0 km/h (0 Bft) W 273 0 min 0,000 mm 0,0 UV-I 0 W/m 9,6 C 0,0 km/h (0 Bft)
13.08.2016 04:01 10,2 C 10,2 C 96 % 1026,0 hPa 0,0 mm 0,0 km/h (0 Bft) W 273 0 min 0,000 mm 0,0 UV-I 0 W/m 9,6 C 0,0 km/h (0 Bft)
13.08.2016 04:02 10,1 C 10,2 C 96 % 1026,0 hPa 0,0 mm 0,0 km/h (0 Bft) W 273 0 min 0,000 mm 0,0 UV-I 0 W/m 9,5 C 0,0 km/h (0 Bft)
13.08.2016 04:03 10,1 C 10,1 C 95 % 1026,0 hPa 0,0 mm 0,1 km/h (0 Bft) W 273 0 min 0,000 mm 0,0 UV-I 0 W/m 9,3 C 1,6 km/h (1 Bft)
13.08.2016 04:04 10,1 C 10,1 C 95 % 1026,0 hPa 0,0 mm 0,0 km/h (0 Bft) W 273 0 min 0,000 mm 0,0 UV-I 0 W/m 9,3 C 0,0 km/h (0 Bft)
13.08.2016 04:05 10,1 C 10,1 C 96 % 1026,0 hPa 0,0 mm 0,0 km/h (0 Bft) W 273 0 min 0,000 mm 0,0 UV-I 0 W/m 9,5 C 0,0 km/h (0 Bft)
13.08.2016 04:06 10,1 C 10,1 C 96 % 1026,0 hPa 0,0 mm 0,3 km/h (0 Bft) W 273 0 min 0,000 mm 0,0 UV-I 0 W/m 9,5 C 1,6 km/h (1 Bft)
13.08.2016 04:07 10,1 C 10,1 C 96 % 1025,9 hPa 0,0 mm 0,0 km/h (0 Bft) W 273 0 min 0,000 mm 0,0 UV-I 0 W/m 9,5 C 0,0 km/h (0 Bft)
13.08.2016 04:08 10,1 C 10,1 C 96 % 1025,9 hPa 0,0 mm 0,0 km/h (0 Bft) W 273 0 min 0,000 mm 0,0 UV-I 0 W/m 9,5 C 0,0 km/h (0 Bft)
13.08.2016 04:09 10,2 C 10,2 C 96 % 1025,9 hPa 0,0 mm 0,2 km/h (0 Bft) W 273 0 min 0,000 mm 0,0 UV-I 0 W/m 9,6 C 1,6 km/h (1 Bft)
13.08.2016 04:10 10,3 C 10,3 C 96 % 1025,9 hPa 0,0 mm 0,1 km/h (0 Bft) W 273 0 min 0,000 mm 0,0 UV-I 0 W/m 9,7 C 1,6 km/h (1 Bft)
13.08.2016 04:11 10,3 C 10,3 C 96 % 1025,9 hPa 0,0 mm 0,0 km/h (0 Bft) W 273 0 min 0,000 mm 0,0 UV-I 0 W/m 9,7 C 0,0 km/h (0 Bft)
13.08.2016 04:12 10,3 C 10,3 C 96 % 1025,9 hPa 0,0 mm 0,1 km/h (0 Bft) W 273 0 min 0,000 mm 0,0 UV-I 0 W/m 9,7 C 1,6 km/h (1 Bft)
13.08.2016 04:13 10,3 C 10,3 C 96 % 1025,9 hPa 0,0 mm 0,7 km/h (0 Bft) W 273 0 min 0,000 mm 0,0 UV-I 0 W/m 9,7 C 1,6 km/h (1 Bft)
13.08.2016 04:14 10,3 C 10,3 C 96 % 1025,9 hPa 0,0 mm 0,2 km/h (0 Bft) W 273 0 min 0,000 mm 0,0 UV-I 0 W/m 9,7 C 1,6 km/h (1 Bft)
13.08.2016 04:15 10,3 C 10,3 C 96 % 1025,9 hPa 0,0 mm 0,3 km/h (0 Bft) W 273 0 min 0,000 mm 0,0 UV-I 0 W/m 9,7 C 1,6 km/h (1 Bft)
13.08.2016 04:16 10,4 C 10,4 C 96 % 1025,8 hPa 0,0 mm 0,0 km/h (0 Bft) W 273 0 min 0,000 mm 0,0 UV-I 0 W/m 9,8 C 0,0 km/h (0 Bft)
13.08.2016 04:17 10,4 C 10,4 C 96 % 1025,8 hPa 0,0 mm 0,0 km/h (0 Bft) W 273 0 min 0,000 mm 0,0 UV-I 0 W/m 9,8 C 0,0 km/h (0 Bft)
13.08.2016 04:18 10,4 C 10,4 C 96 % 1025,9 hPa 0,0 mm 0,2 km/h (0 Bft) W 273 0 min 0,000 mm 0,0 UV-I 0 W/m 9,8 C 1,6 km/h (1 Bft)
13.08.2016 04:19 10,4 C 10,4 C 96 % 1025,8 hPa 0,0 mm 0,2 km/h (0 Bft) W 273 0 min 0,000 mm 0,0 UV-I 0 W/m 9,8 C 1,6 km/h (1 Bft)
13.08.2016 04:20 10,4 C 10,4 C 95 % 1025,9 hPa 0,0 mm 0,0 km/h (0 Bft) W 273 0 min 0,000 mm 0,0 UV-I 0 W/m 9,6 C 0,0 km/h (0 Bft)
13.08.2016 04:21 10,4 C 10,4 C 95 % 1025,9 hPa 0,0 mm 0,0 km/h (0 Bft) W 273 0 min 0,000 mm 0,0 UV-I 0 W/m 9,6 C 0,0 km/h (0 Bft)
13.08.2016 04:22 10,4 C 10,4 C 96 % 1025,9 hPa 0,0 mm 0,0 km/h (0 Bft) W 273 0 min 0,000 mm 0,0 UV-I 0 W/m 9,8 C 0,0 km/h (0 Bft)
13.08.2016 04:23 10,4 C 10,5 C 96 % 1025,9 hPa 0,0 mm 0,0 km/h (0 Bft) W 273 0 min 0,000 mm 0,0 UV-I 0 W/m 9,8 C 0,0 km/h (0 Bft)
13.08.2016 04:24 10,4 C 10,4 C 95 % 1025,9 hPa 0,0 mm 0,3 km/h (0 Bft) W 273 0 min 0,000 mm 0,0 UV-I 0 W/m 9,6 C 1,6 km/h (1 Bft)
13.08.2016 04:25 10,4 C 10,4 C 95 % 1025,9 hPa 0,0 mm 0,2 km/h (0 Bft) W 273 0 min 0,000 mm 0,0 UV-I 0 W/m 9,6 C 1,6 km/h (1 Bft)
13.08.2016 04:26 10,4 C 10,4 C 95 % 1025,8 hPa 0,0 mm 0,1 km/h (0 Bft) W 273 0 min 0,000 mm 0,0 UV-I 0 W/m 9,6 C 1,6 km/h (1 Bft)
13.08.2016 04:27 10,4 C 10,4 C 95 % 1025,8 hPa 0,0 mm 0,0 km/h (0 Bft) W 273 0 min 0,000 mm 0,0 UV-I 0 W/m 9,6 C 0,0 km/h (0 Bft)
13.08.2016 04:28 10,4 C 10,4 C 95 % 1025,8 hPa 0,0 mm 0,0 km/h (0 Bft) W 273 0 min 0,000 mm 0,0 UV-I 0 W/m 9,6 C 0,0 km/h (0 Bft)
13.08.2016 04:29 10,4 C 10,4 C 95 % 1025,8 hPa 0,0 mm 0,0 km/h (0 Bft) W 273 0 min 0,000 mm 0,0 UV-I 0 W/m 9,6 C 0,0 km/h (0 Bft)
13.08.2016 04:30 10,3 C 10,4 C 95 % 1025,8 hPa 0,0 mm 0,0 km/h (0 Bft) W 273 0 min 0,000 mm 0,0 UV-I 0 W/m 9,5 C 0,0 km/h (0 Bft)
13.08.2016 04:31 10,3 C 10,3 C 95 % 1025,7 hPa 0,0 mm 0,0 km/h (0 Bft) W 273 0 min 0,000 mm 0,0 UV-I 0 W/m 9,5 C 0,0 km/h (0 Bft)
13.08.2016 04:32 10,3 C 10,3 C 95 % 1025,7 hPa 0,0 mm 0,0 km/h (0 Bft) W 273 0 min 0,000 mm 0,0 UV-I 0 W/m 9,5 C 0,0 km/h (0 Bft)
13.08.2016 04:33 10,3 C 10,3 C 95 % 1025,7 hPa 0,0 mm 0,1 km/h (0 Bft) W 273 0 min 0,000 mm 0,0 UV-I 0 W/m 9,5 C 1,6 km/h (1 Bft)
13.08.2016 04:34 10,2 C 10,3 C 95 % 1025,7 hPa 0,0 mm 0,0 km/h (0 Bft) W 273 0 min 0,000 mm 0,0 UV-I 0 W/m 9,4 C 0,0 km/h (0 Bft)
13.08.2016 04:35 10,2 C 10,2 C 95 % 1025,7 hPa 0,0 mm 0,3 km/h (0 Bft) W 273 0 min 0,000 mm 0,0 UV-I 0 W/m 9,4 C 1,6 km/h (1 Bft)
13.08.2016 04:36 10,1 C 10,2 C 95 % 1025,7 hPa 0,0 mm 0,0 km/h (0 Bft) W 273 0 min 0,000 mm 0,0 UV-I 0 W/m 9,3 C 0,0 km/h (0 Bft)
13.08.2016 04:37 10,1 C 10,1 C 95 % 1025,7 hPa 0,0 mm 0,0 km/h (0 Bft) W 273 0 min 0,000 mm 0,0 UV-I 0 W/m 9,3 C 0,0 km/h (0 Bft)
13.08.2016 04:38 10,0 C 10,1 C 95 % 1025,7 hPa 0,0 mm 0,1 km/h (0 Bft) W 273 0 min 0,000 mm 0,0 UV-I 0 W/m 9,2 C 1,6 km/h (1 Bft)
13.08.2016 04:39 10,0 C 10,0 C 95 % 1025,7 hPa 0,0 mm 0,2 km/h (0 Bft) W 273 0 min 0,000 mm 0,0 UV-I 0 W/m 9,2 C 1,6 km/h (1 Bft)
13.08.2016 04:40 10,0 C 10,0 C 95 % 1025,7 hPa 0,0 mm 0,1 km/h (0 Bft) W 273 0 min 0,000 mm 0,0 UV-I 0 W/m 9,2 C 1,6 km/h (1 Bft)
13.08.2016 04:41 9,9 C 10,0 C 95 % 1025,7 hPa 0,0 mm 0,0 km/h (0 Bft) W 273 0 min 0,000 mm 0,0 UV-I 0 W/m 9,1 C 0,0 km/h (0 Bft)
13.08.2016 04:42 9,9 C 9,9 C 95 % 1025,7 hPa 0,0 mm 0,0 km/h (0 Bft) W 273 0 min 0,000 mm 0,0 UV-I 0 W/m 9,1 C 0,0 km/h (0 Bft)
13.08.2016 04:43 9,9 C 9,9 C 95 % 1025,7 hPa 0,0 mm 0,0 km/h (0 Bft) W 273 0 min 0,000 mm 0,0 UV-I 0 W/m 9,1 C 0,0 km/h (0 Bft)
13.08.2016 04:44 9,9 C 9,9 C 95 % 1025,7 hPa 0,0 mm 0,0 km/h (0 Bft) W 273 0 min 0,000 mm 0,0 UV-I 0 W/m 9,1 C 0,0 km/h (0 Bft)
13.08.2016 04:45 9,8 C 9,9 C 95 % 1025,7 hPa 0,0 mm 0,3 km/h (0 Bft) W 273 0 min 0,000 mm 0,0 UV-I 0 W/m 9,0 C 1,6 km/h (1 Bft)
13.08.2016 04:46 9,8 C 9,8 C 95 % 1025,7 hPa 0,0 mm 0,6 km/h (0 Bft) W 273 0 min 0,000 mm 0,0 UV-I 0 W/m 9,0 C 1,6 km/h (1 Bft)
13.08.2016 04:47 9,7 C 9,8 C 95 % 1025,7 hPa 0,0 mm 0,5 km/h (0 Bft) W 273 0 min 0,000 mm 0,0 UV-I 0 W/m 8,9 C 1,6 km/h (1 Bft)
13.08.2016 04:48 9,7 C 9,7 C 95 % 1025,7 hPa 0,0 mm 0,2 km/h (0 Bft) W 273 0 min 0,000 mm 0,0 UV-I 0 W/m 8,9 C 1,6 km/h (1 Bft)
13.08.2016 04:49 9,7 C 9,7 C 95 % 1025,7 hPa 0,0 mm 0,3 km/h (0 Bft) W 273 0 min 0,000 mm 0,0 UV-I 0 W/m 8,9 C 1,6 km/h (1 Bft)
13.08.2016 04:50 9,7 C 9,7 C 95 % 1025,7 hPa 0,0 mm 0,1 km/h (0 Bft) W 273 0 min 0,000 mm 0,0 UV-I 0 W/m 8,9 C 1,6 km/h (1 Bft)
13.08.2016 04:51 9,6 C 9,7 C 95 % 1025,7 hPa 0,0 mm 0,2 km/h (0 Bft) W 273 0 min 0,000 mm 0,0 UV-I 0 W/m 8,8 C 1,6 km/h (1 Bft)
13.08.2016 04:52 9,6 C 9,6 C 95 % 1025,7 hPa 0,0 mm 0,1 km/h (0 Bft) W 273 0 min 0,000 mm 0,0 UV-I 0 W/m 8,8 C 1,6 km/h (1 Bft)
13.08.2016 04:53 9,6 C 9,6 C 95 % 1025,7 hPa 0,0 mm 0,3 km/h (0 Bft) W 273 0 min 0,000 mm 0,0 UV-I 0 W/m 8,8 C 1,6 km/h (1 Bft)
13.08.2016 04:54 9,6 C 9,6 C 95 % 1025,6 hPa 0,0 mm 1,5 km/h (1 Bft) W-NW 291 0 min 0,000 mm 0,0 UV-I 0 W/m 8,8 C 3,2 km/h (1 Bft)
13.08.2016 04:55 9,5 C 9,6 C 95 % 1025,6 hPa 0,0 mm 0,1 km/h (0 Bft) W-NW 291 0 min 0,000 mm 0,0 UV-I 0 W/m 8,7 C 1,6 km/h (1 Bft)
13.08.2016 04:56 9,5 C 9,5 C 95 % 1025,6 hPa 0,0 mm 0,1 km/h (0 Bft) W-NW 291 0 min 0,000 mm 0,0 UV-I 0 W/m 8,7 C 1,6 km/h (1 Bft)
13.08.2016 04:57 9,5 C 9,5 C 95 % 1025,6 hPa 0,0 mm 0,1 km/h (0 Bft) W-NW 291 0 min 0,000 mm 0,0 UV-I 0 W/m 8,7 C 1,6 km/h (1 Bft)
13.08.2016 04:58 9,5 C 9,6 C 95 % 1025,6 hPa 0,0 mm 0,0 km/h (0 Bft) W-NW 291 0 min 0,000 mm 0,0 UV-I 0 W/m 8,7 C 0,0 km/h (0 Bft)
13.08.2016 04:59 9,4 C 9,5 C 95 % 1025,6 hPa 0,0 mm 0,0 km/h (0 Bft) W-NW 291 0 min 0,000 mm 0,0 UV-I 0 W/m 8,6 C 0,0 km/h (0 Bft)
13.08.2016 05:00 9,5 C 9,5 C 95 % 1025,6 hPa 0,0 mm 0,0 km/h (0 Bft) W-NW 291 0 min 0,000 mm 0,0 UV-I 0 W/m 8,7 C 0,0 km/h (0 Bft)
13.08.2016 05:01 9,4 C 9,5 C 95 % 1025,6 hPa 0,0 mm 0,0 km/h (0 Bft) W-NW 291 0 min 0,000 mm 0,0 UV-I 0 W/m 8,6 C 0,0 km/h (0 Bft)
13.08.2016 05:02 9,4 C 9,4 C 95 % 1025,5 hPa 0,0 mm 0,0 km/h (0 Bft) W-NW 291 0 min 0,000 mm 0,0 UV-I 0 W/m 8,6 C 0,0 km/h (0 Bft)
13.08.2016 05:03 9,4 C 9,4 C 95 % 1025,5 hPa 0,0 mm 0,0 km/h (0 Bft) W-NW 291 0 min 0,000 mm 0,0 UV-I 0 W/m 8,6 C 0,0 km/h (0 Bft)
13.08.2016 05:04 9,4 C 9,4 C 95 % 1025,5 hPa 0,0 mm 0,1 km/h (0 Bft) W-NW 291 0 min 0,000 mm 0,0 UV-I 0 W/m 8,6 C 1,6 km/h (1 Bft)
13.08.2016 05:05 9,3 C 9,4 C 95 % 1025,5 hPa 0,0 mm 0,0 km/h (0 Bft) W-NW 291 0 min 0,000 mm 0,0 UV-I 0 W/m 8,5 C 0,0 km/h (0 Bft)
13.08.2016 05:06 9,4 C 9,4 C 95 % 1025,5 hPa 0,0 mm 0,0 km/h (0 Bft) W-NW 291 0 min 0,000 mm 0,0 UV-I 0 W/m 8,6 C 0,0 km/h (0 Bft)
13.08.2016 05:07 9,4 C 9,4 C 95 % 1025,5 hPa 0,0 mm 0,3 km/h (0 Bft) W-NW 291 0 min 0,000 mm 0,0 UV-I 0 W/m 8,6 C 1,6 km/h (1 Bft)
13.08.2016 05:08 9,4 C 9,4 C 95 % 1025,5 hPa 0,0 mm 0,0 km/h (0 Bft) W-NW 291 0 min 0,000 mm 0,0 UV-I 0 W/m 8,6 C 0,0 km/h (0 Bft)
13.08.2016 05:09 9,4 C 9,4 C 96 % 1025,5 hPa 0,0 mm 0,0 km/h (0 Bft) W-NW 291 0 min 0,000 mm 0,0 UV-I 0 W/m 8,8 C 0,0 km/h (0 Bft)
13.08.2016 05:10 9,4 C 9,4 C 96 % 1025,6 hPa 0,0 mm 0,1 km/h (0 Bft) W-NW 291 0 min 0,000 mm 0,0 UV-I 0 W/m 8,8 C 1,6 km/h (1 Bft)
13.08.2016 05:11 9,5 C 9,6 C 96 % 1025,5 hPa 0,0 mm 0,0 km/h (0 Bft) W-NW 291 0 min 0,000 mm 0,0 UV-I 0 W/m 8,9 C 0,0 km/h (0 Bft)
13.08.2016 05:12 9,5 C 9,5 C 96 % 1025,6 hPa 0,0 mm 0,0 km/h (0 Bft) W-NW 291 0 min 0,000 mm 0,0 UV-I 0 W/m 8,9 C 0,0 km/h (0 Bft)
13.08.2016 05:13 9,5 C 9,5 C 96 % 1025,5 hPa 0,0 mm 0,1 km/h (0 Bft) W-NW 291 0 min 0,000 mm 0,0 UV-I 0 W/m 8,9 C 1,6 km/h (1 Bft)
13.08.2016 05:14 9,5 C 9,6 C 96 % 1025,5 hPa 0,0 mm 0,0 km/h (0 Bft) W-NW 291 0 min 0,000 mm 0,0 UV-I 0 W/m 8,9 C 0,0 km/h (0 Bft)
13.08.2016 05:15 9,5 C 9,6 C 96 % 1025,6 hPa 0,0 mm 0,0 km/h (0 Bft) W-NW 291 0 min 0,000 mm 0,0 UV-I 0 W/m 8,9 C 0,0 km/h (0 Bft)
13.08.2016 05:16 9,5 C 9,5 C 96 % 1025,5 hPa 0,0 mm 0,7 km/h (0 Bft) W-NW 291 0 min 0,000 mm 0,0 UV-I 0 W/m 8,9 C 3,2 km/h (1 Bft)
13.08.2016 05:17 9,5 C 9,5 C 96 % 1025,5 hPa 0,0 mm 0,1 km/h (0 Bft) W-NW 291 0 min 0,000 mm 0,0 UV-I 0 W/m 8,9 C 1,6 km/h (1 Bft)
13.08.2016 05:18 9,4 C 9,5 C 96 % 1025,5 hPa 0,0 mm 0,7 km/h (0 Bft) W-NW 291 0 min 0,000 mm 0,0 UV-I 0 W/m 8,8 C 1,6 km/h (1 Bft)
13.08.2016 05:19 9,5 C 9,5 C 96 % 1025,5 hPa 0,0 mm 0,6 km/h (0 Bft) W-NW 291 0 min 0,000 mm 0,0 UV-I 0 W/m 8,9 C 1,6 km/h (1 Bft)
13.08.2016 05:20 9,5 C 9,5 C 96 % 1025,5 hPa 0,0 mm 1,8 km/h (1 Bft) W-NW 295 0 min 0,000 mm 0,0 UV-I 0 W/m 8,9 C 4,8 km/h (1 Bft)
13.08.2016 05:21 9,6 C 9,6 C 96 % 1025,5 hPa 0,0 mm 0,2 km/h (0 Bft) W-NW 295 0 min 0,000 mm 0,0 UV-I 0 W/m 9,0 C 1,6 km/h (1 Bft)
13.08.2016 05:22 9,6 C 9,6 C 96 % 1025,4 hPa 0,0 mm 1,3 km/h (1 Bft) W-NW 295 0 min 0,000 mm 0,0 UV-I 0 W/m 9,0 C 3,2 km/h (1 Bft)
13.08.2016 05:23 9,6 C 9,6 C 96 % 1025,5 hPa 0,0 mm 0,3 km/h (0 Bft) W-NW 295 0 min 0,000 mm 0,0 UV-I 0 W/m 9,0 C 1,6 km/h (1 Bft)
13.08.2016 05:24 9,6 C 9,6 C 96 % 1025,4 hPa 0,0 mm 0,5 km/h (0 Bft) W-NW 295 0 min 0,000 mm 0,0 UV-I 0 W/m 9,0 C 1,6 km/h (1 Bft)
13.08.2016 05:25 9,6 C 9,6 C 96 % 1025,4 hPa 0,0 mm 0,3 km/h (0 Bft) W-NW 295 0 min 0,000 mm 0,0 UV-I 0 W/m 9,0 C 1,6 km/h (1 Bft)
13.08.2016 05:26 9,6 C 9,6 C 96 % 1025,4 hPa 0,0 mm 0,4 km/h (0 Bft) W-NW 295 0 min 0,000 mm 0,0 UV-I 0 W/m 9,0 C 1,6 km/h (1 Bft)
13.08.2016 05:27 9,7 C 9,7 C 96 % 1025,4 hPa 0,0 mm 0,1 km/h (0 Bft) W-NW 295 0 min 0,000 mm 0,0 UV-I 0 W/m 9,1 C 1,6 km/h (1 Bft)
13.08.2016 05:28 9,7 C 9,7 C 96 % 1025,4 hPa 0,0 mm 1,8 km/h (1 Bft) W-NW 296 0 min 0,000 mm 0,0 UV-I 0 W/m 9,1 C 3,2 km/h (1 Bft)
13.08.2016 05:29 9,7 C 9,7 C 96 % 1025,4 hPa 0,0 mm 1,5 km/h (1 Bft) W-NW 295 0 min 0,000 mm 0,0 UV-I 0 W/m 9,1 C 3,2 km/h (1 Bft)
13.08.2016 05:30 9,8 C 9,8 C 96 % 1025,4 hPa 0,0 mm 1,1 km/h (1 Bft) W-NW 296 0 min 0,000 mm 0,0 UV-I 0 W/m 9,2 C 3,2 km/h (1 Bft)
13.08.2016 05:31 9,8 C 9,8 C 96 % 1025,4 hPa 0,0 mm 1,5 km/h (1 Bft) W-NW 296 0 min 0,000 mm 0,0 UV-I 0 W/m 9,2 C 3,2 km/h (1 Bft)
13.08.2016 05:32 9,8 C 9,8 C 96 % 1025,4 hPa 0,0 mm 0,5 km/h (0 Bft) W-NW 296 0 min 0,000 mm 0,0 UV-I 0 W/m 9,2 C 1,6 km/h (1 Bft)
13.08.2016 05:33 9,9 C 9,9 C 96 % 1025,4 hPa 0,0 mm 1,5 km/h (1 Bft) NW 305 0 min 0,000 mm 0,0 UV-I 0 W/m 9,3 C 4,8 km/h (1 Bft)
13.08.2016 05:34 9,9 C 9,9 C 96 % 1025,5 hPa 0,0 mm 0,9 km/h (0 Bft) NW 305 0 min 0,000 mm 0,0 UV-I 0 W/m 9,3 C 3,2 km/h (1 Bft)
13.08.2016 05:35 9,9 C 9,9 C 96 % 1025,5 hPa 0,0 mm 0,3 km/h (0 Bft) NW 305 0 min 0,000 mm 0,0 UV-I 0 W/m 9,3 C 1,6 km/h (1 Bft)
13.08.2016 05:36 9,9 C 9,9 C 96 % 1025,5 hPa 0,0 mm 0,0 km/h (0 Bft) NW 305 0 min 0,000 mm 0,0 UV-I 0 W/m 9,3 C 0,0 km/h (0 Bft)
13.08.2016 05:37 9,8 C 9,9 C 96 % 1025,5 hPa 0,0 mm 0,3 km/h (0 Bft) NW 305 0 min 0,000 mm 0,0 UV-I 0 W/m 9,2 C 1,6 km/h (1 Bft)
13.08.2016 05:38 9,9 C 9,9 C 96 % 1025,5 hPa 0,0 mm 0,1 km/h (0 Bft) NW 305 0 min 0,000 mm 0,0 UV-I 0 W/m 9,3 C 1,6 km/h (1 Bft)
13.08.2016 05:39 10,1 C 10,1 C 96 % 1025,5 hPa 0,0 mm 0,5 km/h (0 Bft) NW 305 0 min 0,000 mm 0,0 UV-I 0 W/m 9,5 C 1,6 km/h (1 Bft)
13.08.2016 05:40 10,1 C 10,1 C 96 % 1025,5 hPa 0,0 mm 0,1 km/h (0 Bft) NW 305 0 min 0,000 mm 0,0 UV-I 0 W/m 9,5 C 1,6 km/h (1 Bft)
13.08.2016 05:41 10,1 C 10,1 C 96 % 1025,5 hPa 0,0 mm 0,0 km/h (0 Bft) NW 305 0 min 0,000 mm 0,0 UV-I 0 W/m 9,5 C 0,0 km/h (0 Bft)
13.08.2016 05:42 10,2 C 10,2 C 96 % 1025,5 hPa 0,0 mm 0,0 km/h (0 Bft) NW 305 0 min 0,000 mm 0,0 UV-I 0 W/m 9,6 C 0,0 km/h (0 Bft)
13.08.2016 05:43 10,1 C 10,2 C 96 % 1025,5 hPa 0,0 mm 0,0 km/h (0 Bft) NW 305 0 min 0,000 mm 0,0 UV-I 0 W/m 9,5 C 0,0 km/h (0 Bft)
13.08.2016 05:44 10,1 C 10,1 C 96 % 1025,5 hPa 0,0 mm 0,0 km/h (0 Bft) NW 305 0 min 0,000 mm 0,0 UV-I 0 W/m 9,5 C 0,0 km/h (0 Bft)
13.08.2016 05:45 10,1 C 10,1 C 95 % 1025,5 hPa 0,0 mm 0,0 km/h (0 Bft) NW 305 0 min 0,000 mm 0,0 UV-I 0 W/m 9,3 C 0,0 km/h (0 Bft)
13.08.2016 05:46 10,1 C 10,1 C 95 % 1025,5 hPa 0,0 mm 0,4 km/h (0 Bft) NW 305 0 min 0,000 mm 0,0 UV-I 0 W/m 9,3 C 1,6 km/h (1 Bft)
13.08.2016 05:47 10,1 C 10,1 C 95 % 1025,5 hPa 0,0 mm 0,1 km/h (0 Bft) NW 305 0 min 0,000 mm 0,0 UV-I 0 W/m 9,3 C 1,6 km/h (1 Bft)
13.08.2016 05:48 10,1 C 10,1 C 95 % 1025,5 hPa 0,0 mm 0,1 km/h (0 Bft) NW 305 0 min 0,000 mm 0,0 UV-I 0 W/m 9,3 C 1,6 km/h (1 Bft)
13.08.2016 05:49 10,1 C 10,1 C 95 % 1025,5 hPa 0,0 mm 0,0 km/h (0 Bft) NW 305 0 min 0,000 mm 0,0 UV-I 0 W/m 9,3 C 0,0 km/h (0 Bft)
13.08.2016 05:50 10,1 C 10,1 C 95 % 1025,4 hPa 0,0 mm 0,0 km/h (0 Bft) NW 305 0 min 0,000 mm 0,0 UV-I 0 W/m 9,3 C 0,0 km/h (0 Bft)
13.08.2016 05:51 10,0 C 10,1 C 95 % 1025,5 hPa 0,0 mm 0,0 km/h (0 Bft) NW 305 0 min 0,000 mm 0,0 UV-I 0 W/m 9,2 C 0,0 km/h (0 Bft)
13.08.2016 05:52 9,9 C 10,0 C 94 % 1025,5 hPa 0,0 mm 0,3 km/h (0 Bft) NW 305 0 min 0,000 mm 0,0 UV-I 0 W/m 9,0 C 1,6 km/h (1 Bft)
13.08.2016 05:53 9,8 C 9,9 C 94 % 1025,5 hPa 0,0 mm 0,7 km/h (0 Bft) NW 305 0 min 0,000 mm 0,0 UV-I 0 W/m 8,9 C 1,6 km/h (1 Bft)
13.08.2016 05:54 9,8 C 9,8 C 94 % 1025,4 hPa 0,0 mm 0,2 km/h (0 Bft) NW 305 0 min 0,000 mm 0,0 UV-I 0 W/m 8,9 C 1,6 km/h (1 Bft)
13.08.2016 05:55 9,7 C 9,8 C 95 % 1025,5 hPa 0,0 mm 0,0 km/h (0 Bft) NW 305 0 min 0,000 mm 0,0 UV-I 0 W/m 8,9 C 0,0 km/h (0 Bft)
13.08.2016 05:56 9,7 C 9,7 C 95 % 1025,5 hPa 0,0 mm 0,0 km/h (0 Bft) NW 305 0 min 0,000 mm 0,0 UV-I 0 W/m 8,9 C 0,0 km/h (0 Bft)
13.08.2016 05:57 9,7 C 9,7 C 95 % 1025,4 hPa 0,0 mm 0,1 km/h (0 Bft) NW 305 0 min 0,000 mm 0,0 UV-I 0 W/m 8,9 C 1,6 km/h (1 Bft)
13.08.2016 05:58 9,7 C 9,7 C 95 % 1025,4 hPa 0,0 mm 0,1 km/h (0 Bft) NW 305 0 min 0,000 mm 0,0 UV-I 0 W/m 8,9 C 1,6 km/h (1 Bft)
13.08.2016 05:59 9,6 C 9,7 C 95 % 1025,4 hPa 0,0 mm 0,5 km/h (0 Bft) NW 305 0 min 0,000 mm 0,0 UV-I 0 W/m 8,8 C 1,6 km/h (1 Bft)
13.08.2016 06:00 9,6 C 9,7 C 95 % 1025,3 hPa 0,0 mm 0,1 km/h (0 Bft) NW 305 0 min 0,000 mm 0,0 UV-I 0 W/m 8,8 C 1,6 km/h (1 Bft)
13.08.2016 06:01 9,5 C 9,6 C 95 % 1025,4 hPa 0,0 mm 0,3 km/h (0 Bft) NW 305 0 min 0,000 mm 0,0 UV-I 0 W/m 8,7 C 1,6 km/h (1 Bft)
13.08.2016 06:02 9,5 C 9,5 C 95 % 1025,4 hPa 0,0 mm 0,0 km/h (0 Bft) NW 305 0 min 0,000 mm 0,0 UV-I 0 W/m 8,7 C 0,0 km/h (0 Bft)
13.08.2016 06:03 9,5 C 9,6 C 95 % 1025,4 hPa 0,0 mm 0,1 km/h (0 Bft) NW 305 0 min 0,000 mm 0,0 UV-I 0 W/m 8,7 C 1,6 km/h (1 Bft)
13.08.2016 06:04 9,5 C 9,5 C 95 % 1025,4 hPa 0,0 mm 0,4 km/h (0 Bft) NW 305 0 min 0,000 mm 0,0 UV-I 0 W/m 8,7 C 1,6 km/h (1 Bft)
13.08.2016 06:05 9,5 C 9,6 C 95 % 1025,4 hPa 0,0 mm 0,2 km/h (0 Bft) NW 305 0 min 0,000 mm 0,0 UV-I 0 W/m 8,7 C 1,6 km/h (1 Bft)
13.08.2016 06:06 9,4 C 9,5 C 95 % 1025,4 hPa 0,0 mm 0,7 km/h (0 Bft) NW 305 0 min 0,000 mm 0,0 UV-I 0 W/m 8,6 C 1,6 km/h (1 Bft)
13.08.2016 06:07 9,4 C 9,5 C 95 % 1025,4 hPa 0,0 mm 0,3 km/h (0 Bft) NW 305 0 min 0,000 mm 0,0 UV-I 0 W/m 8,6 C 1,6 km/h (1 Bft)
13.08.2016 06:08 9,4 C 9,4 C 95 % 1025,4 hPa 0,0 mm 0,4 km/h (0 Bft) NW 305 0 min 0,000 mm 0,0 UV-I 0 W/m 8,6 C 1,6 km/h (1 Bft)
13.08.2016 06:09 9,4 C 9,4 C 95 % 1025,4 hPa 0,0 mm 0,3 km/h (0 Bft) NW 305 0 min 0,000 mm 0,0 UV-I 0 W/m 8,6 C 1,6 km/h (1 Bft)
13.08.2016 06:10 9,3 C 9,4 C 95 % 1025,4 hPa 0,0 mm 0,3 km/h (0 Bft) NW 305 0 min 0,000 mm 0,0 UV-I 0 W/m 8,5 C 1,6 km/h (1 Bft)
13.08.2016 06:11 9,3 C 9,3 C 95 % 1025,3 hPa 0,0 mm 0,1 km/h (0 Bft) NW 305 0 min 0,000 mm 0,0 UV-I 0 W/m 8,5 C 1,6 km/h (1 Bft)
13.08.2016 06:12 9,3 C 9,3 C 95 % 1025,4 hPa 0,0 mm 0,0 km/h (0 Bft) NW 305 0 min 0,000 mm 0,0 UV-I 5 W/m 8,5 C 0,0 km/h (0 Bft)
13.08.2016 06:13 9,3 C 9,4 C 95 % 1025,4 hPa 0,0 mm 0,2 km/h (0 Bft) NW 305 0 min 0,000 mm 0,0 UV-I 5 W/m 8,5 C 1,6 km/h (1 Bft)
13.08.2016 06:14 9,3 C 9,3 C 95 % 1025,4 hPa 0,0 mm 0,1 km/h (0 Bft) NW 305 0 min 0,000 mm 0,0 UV-I 5 W/m 8,5 C 1,6 km/h (1 Bft)
13.08.2016 06:15 9,2 C 9,3 C 95 % 1025,4 hPa 0,0 mm 0,0 km/h (0 Bft) NW 305 0 min 0,000 mm 0,0 UV-I 5 W/m 8,4 C 0,0 km/h (0 Bft)
13.08.2016 06:16 9,2 C 9,2 C 95 % 1025,4 hPa 0,0 mm 0,0 km/h (0 Bft) NW 305 0 min 0,000 mm 0,0 UV-I 5 W/m 8,4 C 0,0 km/h (0 Bft)
13.08.2016 06:17 9,2 C 9,2 C 95 % 1025,4 hPa 0,0 mm 0,0 km/h (0 Bft) NW 305 0 min 0,000 mm 0,0 UV-I 5 W/m 8,4 C 0,0 km/h (0 Bft)
13.08.2016 06:18 9,2 C 9,2 C 95 % 1025,4 hPa 0,0 mm 0,0 km/h (0 Bft) NW 305 0 min 0,000 mm 0,0 UV-I 7 W/m 8,4 C 0,0 km/h (0 Bft)
13.08.2016 06:19 9,2 C 9,2 C 95 % 1025,4 hPa 0,0 mm 0,0 km/h (0 Bft) NW 305 0 min 0,000 mm 0,0 UV-I 7 W/m 8,4 C 0,0 km/h (0 Bft)
13.08.2016 06:20 9,1 C 9,2 C 95 % 1025,4 hPa 0,0 mm 0,0 km/h (0 Bft) NW 305 0 min 0,000 mm 0,0 UV-I 7 W/m 8,3 C 0,0 km/h (0 Bft)
13.08.2016 06:21 9,1 C 9,1 C 95 % 1025,4 hPa 0,0 mm 0,2 km/h (0 Bft) NW 305 0 min 0,000 mm 0,0 UV-I 7 W/m 8,3 C 1,6 km/h (1 Bft)
13.08.2016 06:22 9,1 C 9,1 C 95 % 1025,4 hPa 0,0 mm 0,7 km/h (0 Bft) NW 305 0 min 0,000 mm 0,0 UV-I 7 W/m 8,3 C 1,6 km/h (1 Bft)
13.08.2016 06:23 9,0 C 9,1 C 95 % 1025,4 hPa 0,0 mm 0,0 km/h (0 Bft) NW 305 0 min 0,000 mm 0,0 UV-I 7 W/m 8,2 C 0,0 km/h (0 Bft)
13.08.2016 06:24 9,1 C 9,1 C 95 % 1025,4 hPa 0,0 mm 0,1 km/h (0 Bft) NW 305 0 min 0,000 mm 0,0 UV-I 9 W/m 8,3 C 1,6 km/h (1 Bft)
13.08.2016 06:25 9,1 C 9,1 C 95 % 1025,4 hPa 0,0 mm 2,7 km/h (1 Bft) N-NW 329 0 min 0,000 mm 0,0 UV-I 9 W/m 8,3 C 4,8 km/h (1 Bft)
13.08.2016 06:26 9,1 C 9,1 C 95 % 1025,4 hPa 0,0 mm 1,2 km/h (1 Bft) N-NW 329 0 min 0,000 mm 0,0 UV-I 9 W/m 8,3 C 1,6 km/h (1 Bft)
13.08.2016 06:27 9,1 C 9,1 C 95 % 1025,4 hPa 0,0 mm 0,9 km/h (0 Bft) N-NW 329 0 min 0,000 mm 0,0 UV-I 9 W/m 8,3 C 3,2 km/h (1 Bft)
13.08.2016 06:28 9,2 C 9,2 C 96 % 1025,4 hPa 0,0 mm 0,2 km/h (0 Bft) N-NW 329 0 min 0,000 mm 0,0 UV-I 11 W/m 8,6 C 1,6 km/h (1 Bft)
13.08.2016 06:29 9,2 C 9,2 C 96 % 1025,4 hPa 0,0 mm 0,2 km/h (0 Bft) N-NW 329 0 min 0,000 mm 0,0 UV-I 11 W/m 8,6 C 1,6 km/h (1 Bft)
13.08.2016 06:30 9,2 C 9,2 C 96 % 1025,4 hPa 0,0 mm 0,0 km/h (0 Bft) N-NW 329 0 min 0,000 mm 0,0 UV-I 11 W/m 8,6 C 0,0 km/h (0 Bft)
13.08.2016 06:31 9,2 C 9,2 C 96 % 1025,4 hPa 0,0 mm 1,2 km/h (1 Bft) N-NW 329 0 min 0,000 mm 0,0 UV-I 11 W/m 8,6 C 3,2 km/h (1 Bft)
13.08.2016 06:32 9,3 C 9,3 C 96 % 1025,4 hPa 0,0 mm 0,9 km/h (0 Bft) N-NW 329 0 min 0,000 mm 0,0 UV-I 12 W/m 8,7 C 3,2 km/h (1 Bft)
13.08.2016 06:33 9,3 C 9,3 C 96 % 1025,4 hPa 0,0 mm 0,6 km/h (0 Bft) N-NW 329 0 min 0,000 mm 0,0 UV-I 12 W/m 8,7 C 1,6 km/h (1 Bft)
13.08.2016 06:34 9,3 C 9,3 C 96 % 1025,3 hPa 0,0 mm 0,6 km/h (0 Bft) N-NW 329 0 min 0,000 mm 0,0 UV-I 12 W/m 8,7 C 3,2 km/h (1 Bft)
13.08.2016 06:35 9,3 C 9,3 C 96 % 1025,3 hPa 0,0 mm 0,2 km/h (0 Bft) N-NW 329 0 min 0,000 mm 0,0 UV-I 12 W/m 8,7 C 1,6 km/h (1 Bft)
13.08.2016 06:36 9,3 C 9,3 C 96 % 1025,3 hPa 0,0 mm 0,0 km/h (0 Bft) N-NW 329 0 min 0,000 mm 0,0 UV-I 14 W/m 8,7 C 0,0 km/h (0 Bft)
13.08.2016 06:37 9,3 C 9,3 C 96 % 1025,3 hPa 0,0 mm 0,0 km/h (0 Bft) N-NW 329 0 min 0,000 mm 0,0 UV-I 14 W/m 8,7 C 0,0 km/h (0 Bft)
13.08.2016 06:38 9,3 C 9,3 C 96 % 1025,4 hPa 0,0 mm 0,0 km/h (0 Bft) N-NW 329 0 min 0,000 mm 0,0 UV-I 14 W/m 8,7 C 0,0 km/h (0 Bft)
13.08.2016 06:39 9,3 C 9,3 C 96 % 1025,4 hPa 0,0 mm 0,1 km/h (0 Bft) N-NW 329 0 min 0,000 mm 0,0 UV-I 14 W/m 8,7 C 1,6 km/h (1 Bft)
13.08.2016 06:40 9,3 C 9,3 C 96 % 1025,4 hPa 0,0 mm 0,0 km/h (0 Bft) N-NW 329 0 min 0,000 mm 0,0 UV-I 16 W/m 8,7 C 0,0 km/h (0 Bft)
13.08.2016 06:41 9,3 C 9,3 C 96 % 1025,4 hPa 0,0 mm 0,0 km/h (0 Bft) N-NW 329 0 min 0,000 mm 0,0 UV-I 16 W/m 8,7 C 0,0 km/h (0 Bft)
13.08.2016 06:42 9,3 C 9,3 C 96 % 1025,4 hPa 0,0 mm 0,0 km/h (0 Bft) N-NW 329 0 min 0,000 mm 0,0 UV-I 16 W/m 8,7 C 0,0 km/h (0 Bft)
13.08.2016 06:43 9,4 C 9,4 C 96 % 1025,4 hPa 0,0 mm 0,0 km/h (0 Bft) N-NW 329 0 min 0,000 mm 0,0 UV-I 18 W/m 8,8 C 0,0 km/h (0 Bft)
13.08.2016 06:44 9,4 C 9,4 C 96 % 1025,4 hPa 0,0 mm 0,4 km/h (0 Bft) N-NW 329 0 min 0,000 mm 0,0 UV-I 18 W/m 8,8 C 3,2 km/h (1 Bft)
13.08.2016 06:45 9,3 C 9,4 C 96 % 1025,3 hPa 0,0 mm 0,6 km/h (0 Bft) N-NW 329 0 min 0,000 mm 0,0 UV-I 18 W/m 8,7 C 3,2 km/h (1 Bft)
13.08.2016 06:46 9,4 C 9,4 C 96 % 1025,2 hPa 0,0 mm 0,1 km/h (0 Bft) N-NW 329 0 min 0,000 mm 0,0 UV-I 18 W/m 8,8 C 1,6 km/h (1 Bft)
13.08.2016 06:47 9,4 C 9,4 C 96 % 1025,3 hPa 0,0 mm 0,4 km/h (0 Bft) N-NW 329 0 min 0,000 mm 0,0 UV-I 18 W/m 8,8 C 1,6 km/h (1 Bft)
13.08.2016 06:48 9,4 C 9,4 C 96 % 1025,3 hPa 0,0 mm 0,2 km/h (0 Bft) N-NW 329 0 min 0,000 mm 0,0 UV-I 18 W/m 8,8 C 1,6 km/h (1 Bft)
13.08.2016 06:49 9,4 C 9,4 C 96 % 1025,3 hPa 0,0 mm 2,1 km/h (1 Bft) N-NO 17 0 min 0,000 mm 0,0 UV-I 18 W/m 8,8 C 4,8 km/h (1 Bft)
13.08.2016 06:50 9,4 C 9,4 C 96 % 1025,3 hPa 0,0 mm 0,8 km/h (0 Bft) N 355 0 min 0,000 mm 0,0 UV-I 19 W/m 8,8 C 3,2 km/h (1 Bft)
13.08.2016 06:51 9,4 C 9,4 C 96 % 1025,3 hPa 0,0 mm 0,3 km/h (0 Bft) N 355 0 min 0,000 mm 0,0 UV-I 19 W/m 8,8 C 1,6 km/h (1 Bft)
13.08.2016 06:52 9,5 C 9,5 C 96 % 1025,3 hPa 0,0 mm 1,1 km/h (1 Bft) N-NW 348 0 min 0,000 mm 0,0 UV-I 19 W/m 8,9 C 3,2 km/h (1 Bft)
13.08.2016 06:53 9,6 C 9,6 C 96 % 1025,3 hPa 0,0 mm 0,7 km/h (0 Bft) N-NW 348 0 min 0,000 mm 0,0 UV-I 19 W/m 9,0 C 3,2 km/h (1 Bft)
13.08.2016 06:54 9,6 C 9,6 C 96 % 1025,3 hPa 0,0 mm 0,5 km/h (0 Bft) N-NW 348 0 min 0,000 mm 0,0 UV-I 19 W/m 9,0 C 1,6 km/h (1 Bft)
13.08.2016 06:55 9,7 C 9,7 C 96 % 1025,3 hPa 0,0 mm 0,2 km/h (0 Bft) N-NW 348 0 min 0,000 mm 0,0 UV-I 19 W/m 9,1 C 1,6 km/h (1 Bft)
13.08.2016 06:56 9,7 C 9,7 C 96 % 1025,3 hPa 0,0 mm 0,3 km/h (0 Bft) N-NW 348 0 min 0,000 mm 0,0 UV-I 21 W/m 9,1 C 1,6 km/h (1 Bft)
13.08.2016 06:57 9,7 C 9,7 C 96 % 1025,3 hPa 0,0 mm 1,1 km/h (1 Bft) N-NW 348 0 min 0,000 mm 0,0 UV-I 21 W/m 9,1 C 1,6 km/h (1 Bft)
13.08.2016 06:58 9,7 C 9,7 C 96 % 1025,3 hPa 0,0 mm 0,5 km/h (0 Bft) N-NW 348 0 min 0,000 mm 0,0 UV-I 21 W/m 9,1 C 1,6 km/h (1 Bft)
13.08.2016 06:59 9,8 C 9,8 C 96 % 1025,4 hPa 0,0 mm 0,0 km/h (0 Bft) N-NW 348 0 min 0,000 mm 0,0 UV-I 21 W/m 9,2 C 0,0 km/h (0 Bft)
13.08.2016 07:00 9,8 C 9,8 C 96 % 1025,4 hPa 0,0 mm 0,0 km/h (0 Bft) N-NW 348 0 min 0,000 mm 0,0 UV-I 21 W/m 9,2 C 0,0 km/h (0 Bft)
13.08.2016 07:01 9,9 C 9,9 C 96 % 1025,4 hPa 0,0 mm 0,1 km/h (0 Bft) N-NW 348 0 min 0,000 mm 0,0 UV-I 21 W/m 9,3 C 1,6 km/h (1 Bft)
13.08.2016 07:02 9,9 C 9,9 C 96 % 1025,4 hPa 0,0 mm 0,4 km/h (0 Bft) N-NW 348 0 min 0,000 mm 0,0 UV-I 21 W/m 9,3 C 3,2 km/h (1 Bft)
13.08.2016 07:03 10,0 C 10,0 C 96 % 1025,4 hPa 0,0 mm 2,5 km/h (1 Bft) W-SW 257 0 min 0,000 mm 0,0 UV-I 23 W/m 9,4 C 4,8 km/h (1 Bft)
13.08.2016 07:04 10,2 C 10,2 C 96 % 1025,4 hPa 0,0 mm 2,3 km/h (1 Bft) W 279 0 min 0,000 mm 0,0 UV-I 25 W/m 9,6 C 3,2 km/h (1 Bft)
13.08.2016 07:05 10,3 C 10,3 C 96 % 1025,4 hPa 0,0 mm 1,7 km/h (1 Bft) W-NW 290 0 min 0,000 mm 0,0 UV-I 23 W/m 9,7 C 3,2 km/h (1 Bft)
13.08.2016 07:06 10,4 C 10,4 C 96 % 1025,4 hPa 0,0 mm 0,1 km/h (0 Bft) W-NW 290 0 min 0,000 mm 0,0 UV-I 21 W/m 9,8 C 1,6 km/h (1 Bft)
13.08.2016 07:07 10,4 C 10,5 C 96 % 1025,4 hPa 0,0 mm 0,1 km/h (0 Bft) W-NW 290 0 min 0,000 mm 0,0 UV-I 23 W/m 9,8 C 1,6 km/h (1 Bft)
13.08.2016 07:08 10,5 C 10,5 C 96 % 1025,4 hPa 0,0 mm 0,0 km/h (0 Bft) W-NW 290 0 min 0,000 mm 0,0 UV-I 23 W/m 9,9 C 0,0 km/h (0 Bft)
13.08.2016 07:09 10,6 C 10,6 C 95 % 1025,4 hPa 0,0 mm 0,3 km/h (0 Bft) W-NW 290 0 min 0,000 mm 0,0 UV-I 23 W/m 9,8 C 1,6 km/h (1 Bft)
13.08.2016 07:10 10,6 C 10,6 C 95 % 1025,4 hPa 0,0 mm 1,0 km/h (0 Bft) W-NW 290 0 min 0,000 mm 0,0 UV-I 23 W/m 9,8 C 1,6 km/h (1 Bft)
13.08.2016 07:11 10,7 C 10,7 C 95 % 1025,4 hPa 0,0 mm 0,2 km/h (0 Bft) W-NW 290 0 min 0,000 mm 0,0 UV-I 23 W/m 9,9 C 1,6 km/h (1 Bft)
13.08.2016 07:12 10,7 C 10,7 C 95 % 1025,5 hPa 0,0 mm 0,2 km/h (0 Bft) W-NW 290 0 min 0,000 mm 0,0 UV-I 25 W/m 9,9 C 1,6 km/h (1 Bft)
13.08.2016 07:13 10,8 C 10,8 C 95 % 1025,5 hPa 0,0 mm 0,1 km/h (0 Bft) W-NW 290 0 min 0,000 mm 0,0 UV-I 25 W/m 10,0 C 1,6 km/h (1 Bft)
13.08.2016 07:14 10,9 C 10,9 C 95 % 1025,4 hPa 0,0 mm 0,1 km/h (0 Bft) W-NW 290 0 min 0,000 mm 0,0 UV-I 23 W/m 10,1 C 1,6 km/h (1 Bft)
13.08.2016 07:15 11,0 C 11,0 C 94 % 1025,5 hPa 0,0 mm 0,3 km/h (0 Bft) W-NW 290 0 min 0,000 mm 0,0 UV-I 23 W/m 10,1 C 1,6 km/h (1 Bft)
13.08.2016 07:16 11,1 C 11,1 C 94 % 1025,5 hPa 0,0 mm 0,1 km/h (0 Bft) W-NW 290 0 min 0,000 mm 0,0 UV-I 23 W/m 10,2 C 1,6 km/h (1 Bft)
13.08.2016 07:17 11,1 C 11,1 C 93 % 1025,4 hPa 0,0 mm 0,0 km/h (0 Bft) W-NW 290 0 min 0,000 mm 0,0 UV-I 23 W/m 10,0 C 0,0 km/h (0 Bft)
13.08.2016 07:18 11,2 C 11,2 C 93 % 1025,4 hPa 0,0 mm 0,3 km/h (0 Bft) W-NW 290 0 min 0,000 mm 0,0 UV-I 26 W/m 10,1 C 1,6 km/h (1 Bft)
13.08.2016 07:19 11,2 C 11,2 C 93 % 1025,4 hPa 0,0 mm 0,3 km/h (0 Bft) W-NW 290 0 min 0,000 mm 0,0 UV-I 25 W/m 10,1 C 1,6 km/h (1 Bft)
13.08.2016 07:20 11,2 C 11,2 C 93 % 1025,4 hPa 0,0 mm 0,0 km/h (0 Bft) W-NW 290 0 min 0,000 mm 0,0 UV-I 25 W/m 10,1 C 0,0 km/h (0 Bft)
13.08.2016 07:21 11,3 C 11,3 C 93 % 1025,4 hPa 0,0 mm 0,6 km/h (0 Bft) W-NW 290 0 min 0,000 mm 0,0 UV-I 26 W/m 10,2 C 1,6 km/h (1 Bft)
13.08.2016 07:22 11,3 C 11,3 C 93 % 1025,4 hPa 0,0 mm 0,6 km/h (0 Bft) W-NW 290 0 min 0,000 mm 0,0 UV-I 26 W/m 10,2 C 1,6 km/h (1 Bft)
13.08.2016 07:23 11,3 C 11,3 C 93 % 1025,4 hPa 0,0 mm 0,3 km/h (0 Bft) W-NW 290 0 min 0,000 mm 0,0 UV-I 26 W/m 10,2 C 1,6 km/h (1 Bft)
13.08.2016 07:24 11,3 C 11,3 C 93 % 1025,4 hPa 0,0 mm 0,4 km/h (0 Bft) W-NW 290 0 min 0,000 mm 0,0 UV-I 26 W/m 10,2 C 1,6 km/h (1 Bft)
13.08.2016 07:25 11,3 C 11,3 C 93 % 1025,4 hPa 0,0 mm 1,2 km/h (1 Bft) W-NW 290 0 min 0,000 mm 0,0 UV-I 26 W/m 10,2 C 1,6 km/h (1 Bft)
13.08.2016 07:26 11,3 C 11,3 C 93 % 1025,4 hPa 0,0 mm 1,5 km/h (1 Bft) W-NW 290 0 min 0,000 mm 0,0 UV-I 26 W/m 10,2 C 3,2 km/h (1 Bft)
13.08.2016 07:27 11,4 C 11,4 C 93 % 1025,3 hPa 0,0 mm 2,1 km/h (1 Bft) W-NW 290 0 min 0,000 mm 0,0 UV-I 26 W/m 10,3 C 3,2 km/h (1 Bft)
13.08.2016 07:28 11,4 C 11,4 C 93 % 1025,3 hPa 0,0 mm 1,7 km/h (1 Bft) S-SW 192 0 min 0,000 mm 0,0 UV-I 28 W/m 10,3 C 3,2 km/h (1 Bft)
13.08.2016 07:29 11,4 C 11,4 C 93 % 1025,4 hPa 0,0 mm 1,3 km/h (1 Bft) S-SW 201 0 min 0,000 mm 0,0 UV-I 30 W/m 10,3 C 3,2 km/h (1 Bft)
13.08.2016 07:30 11,4 C 11,4 C 93 % 1025,4 hPa 0,0 mm 1,7 km/h (1 Bft) S-SW 201 0 min 0,000 mm 0,0 UV-I 67 W/m 10,3 C 3,2 km/h (1 Bft)
13.08.2016 07:31 11,4 C 11,4 C 93 % 1025,3 hPa 0,0 mm 0,6 km/h (0 Bft) S-SW 201 0 min 0,000 mm 0,5 UV-I 58 W/m 10,3 C 3,2 km/h (1 Bft)
13.08.2016 07:32 11,5 C 11,5 C 93 % 1025,3 hPa 0,0 mm 1,1 km/h (1 Bft) S-SW 201 0 min 0,000 mm 0,0 UV-I 44 W/m 10,4 C 1,6 km/h (1 Bft)
13.08.2016 07:33 11,5 C 11,6 C 93 % 1025,3 hPa 0,0 mm 1,2 km/h (1 Bft) S-SW 201 0 min 0,000 mm 0,0 UV-I 47 W/m 10,4 C 1,6 km/h (1 Bft)
13.08.2016 07:34 11,5 C 11,5 C 93 % 1025,3 hPa 0,0 mm 0,1 km/h (0 Bft) S-SW 201 0 min 0,000 mm 0,0 UV-I 44 W/m 10,4 C 1,6 km/h (1 Bft)
13.08.2016 07:35 11,5 C 11,5 C 93 % 1025,3 hPa 0,0 mm 0,5 km/h (0 Bft) S-SW 199 0 min 0,000 mm 0,0 UV-I 70 W/m 10,4 C 1,6 km/h (1 Bft)
13.08.2016 07:36 11,6 C 11,6 C 93 % 1025,3 hPa 0,0 mm 0,9 km/h (0 Bft) S-SW 200 0 min 0,000 mm 0,5 UV-I 123 W/m 10,5 C 1,6 km/h (1 Bft)
13.08.2016 07:37 11,6 C 11,6 C 93 % 1025,3 hPa 0,0 mm 0,4 km/h (0 Bft) S-SW 200 1 min 0,000 mm 0,6 UV-I 169 W/m 10,5 C 1,6 km/h (1 Bft)
13.08.2016 07:38 11,5 C 11,6 C 92 % 1025,3 hPa 0,0 mm 1,1 km/h (1 Bft) S-SW 199 1 min 0,000 mm 0,6 UV-I 186 W/m 10,2 C 3,2 km/h (1 Bft)
13.08.2016 07:39 11,6 C 11,6 C 93 % 1025,3 hPa 0,0 mm 0,7 km/h (0 Bft) S-SW 199 1 min 0,000 mm 0,6 UV-I 186 W/m 10,5 C 1,6 km/h (1 Bft)
13.08.2016 07:40 11,6 C 11,6 C 93 % 1025,3 hPa 0,0 mm 0,9 km/h (0 Bft) S-SW 195 1 min 0,000 mm 0,7 UV-I 188 W/m 10,5 C 1,6 km/h (1 Bft)
13.08.2016 07:41 11,6 C 11,6 C 93 % 1025,3 hPa 0,0 mm 1,7 km/h (1 Bft) S-SW 194 1 min 0,000 mm 0,7 UV-I 195 W/m 10,5 C 3,2 km/h (1 Bft)
13.08.2016 07:42 11,7 C 11,7 C 94 % 1025,3 hPa 0,0 mm 0,0 km/h (0 Bft) S-SW 194 1 min 0,000 mm 0,7 UV-I 200 W/m 10,8 C 0,0 km/h (0 Bft)
13.08.2016 07:43 11,7 C 11,7 C 93 % 1025,2 hPa 0,0 mm 0,1 km/h (0 Bft) S-SW 194 1 min 0,000 mm 0,7 UV-I 204 W/m 10,6 C 1,6 km/h (1 Bft)
13.08.2016 07:44 11,8 C 11,8 C 93 % 1025,3 hPa 0,0 mm 0,7 km/h (0 Bft) S-SW 194 1 min 0,000 mm 0,7 UV-I 206 W/m 10,7 C 1,6 km/h (1 Bft)
13.08.2016 07:45 12,1 C 12,1 C 94 % 1025,3 hPa 0,0 mm 0,1 km/h (0 Bft) S-SW 195 1 min 0,000 mm 0,7 UV-I 209 W/m 11,2 C 1,6 km/h (1 Bft)
13.08.2016 07:46 12,1 C 12,1 C 92 % 1025,3 hPa 0,0 mm 2,7 km/h (1 Bft) N 350 1 min 0,000 mm 0,7 UV-I 211 W/m 10,8 C 4,8 km/h (1 Bft)
13.08.2016 07:47 12,2 C 12,2 C 92 % 1025,3 hPa 0,0 mm 0,9 km/h (0 Bft) N 350 1 min 0,000 mm 0,8 UV-I 216 W/m 10,9 C 1,6 km/h (1 Bft)
13.08.2016 07:48 12,4 C 12,4 C 93 % 1025,3 hPa 0,0 mm 0,3 km/h (0 Bft) N 349 1 min 0,000 mm 0,8 UV-I 218 W/m 11,3 C 1,6 km/h (1 Bft)
13.08.2016 07:49 12,6 C 12,6 C 93 % 1025,2 hPa 0,0 mm 0,0 km/h (0 Bft) N 350 1 min 0,000 mm 0,8 UV-I 221 W/m 11,5 C 0,0 km/h (0 Bft)
13.08.2016 07:50 12,5 C 12,6 C 91 % 1025,3 hPa 0,0 mm 0,1 km/h (0 Bft) N 350 1 min 0,000 mm 0,8 UV-I 223 W/m 11,1 C 1,6 km/h (1 Bft)
13.08.2016 07:51 12,5 C 12,5 C 92 % 1025,2 hPa 0,0 mm 1,3 km/h (1 Bft) N 349 1 min 0,000 mm 0,8 UV-I 225 W/m 11,2 C 3,2 km/h (1 Bft)
13.08.2016 07:52 12,5 C 12,5 C 92 % 1025,1 hPa 0,0 mm 1,3 km/h (1 Bft) N 355 1 min 0,000 mm 0,8 UV-I 229 W/m 11,2 C 3,2 km/h (1 Bft)
13.08.2016 07:53 12,5 C 12,5 C 92 % 1025,2 hPa 0,0 mm 1,6 km/h (1 Bft) N 355 1 min 0,000 mm 0,8 UV-I 232 W/m 11,2 C 3,2 km/h (1 Bft)
13.08.2016 07:54 12,4 C 12,5 C 91 % 1025,2 hPa 0,0 mm 1,4 km/h (1 Bft) N 360 1 min 0,000 mm 0,9 UV-I 236 W/m 11,0 C 3,2 km/h (1 Bft)
13.08.2016 07:55 12,4 C 12,4 C 92 % 1025,1 hPa 0,0 mm 1,0 km/h (0 Bft) N 360 1 min 0,000 mm 0,9 UV-I 237 W/m 11,1 C 3,2 km/h (1 Bft)
13.08.2016 07:56 12,4 C 12,4 C 92 % 1025,1 hPa 0,0 mm 1,9 km/h (1 Bft) N-NW 336 1 min 0,000 mm 0,9 UV-I 239 W/m 11,1 C 4,8 km/h (1 Bft)
13.08.2016 07:57 12,4 C 12,4 C 93 % 1025,1 hPa 0,0 mm 1,5 km/h (1 Bft) NO 40 1 min 0,000 mm 0,9 UV-I 243 W/m 11,3 C 3,2 km/h (1 Bft)
13.08.2016 07:58 12,6 C 12,6 C 94 % 1025,2 hPa 0,0 mm 0,5 km/h (0 Bft) NO 40 1 min 0,000 mm 0,9 UV-I 244 W/m 11,7 C 3,2 km/h (1 Bft)
13.08.2016 07:59 12,7 C 12,7 C 92 % 1025,1 hPa 0,0 mm 1,1 km/h (1 Bft) NO 40 1 min 0,000 mm 0,9 UV-I 248 W/m 11,4 C 3,2 km/h (1 Bft)
13.08.2016 08:00 12,8 C 12,8 C 93 % 1025,1 hPa 0,0 mm 1,0 km/h (0 Bft) NO 40 1 min 0,000 mm 1,0 UV-I 251 W/m 11,7 C 1,6 km/h (1 Bft)
13.08.2016 08:01 12,9 C 12,9 C 93 % 1025,1 hPa 0,0 mm 1,4 km/h (1 Bft) N-NO 33 1 min 0,051 mm 1,0 UV-I 253 W/m 11,8 C 3,2 km/h (1 Bft)
13.08.2016 08:02 13,2 C 13,2 C 91 % 1025,1 hPa 0,0 mm 1,0 km/h (0 Bft) NO 43 1 min 0,000 mm 1,0 UV-I 255 W/m 11,8 C 3,2 km/h (1 Bft)
13.08.2016 08:03 13,3 C 13,3 C 91 % 1025,1 hPa 0,0 mm 1,3 km/h (1 Bft) NO 43 1 min 0,000 mm 1,0 UV-I 258 W/m 11,9 C 3,2 km/h (1 Bft)
13.08.2016 08:04 13,4 C 13,4 C 89 % 1025,1 hPa 0,0 mm 0,7 km/h (0 Bft) NO 43 1 min 0,000 mm 1,0 UV-I 260 W/m 11,6 C 1,6 km/h (1 Bft)
13.08.2016 08:05 13,5 C 13,5 C 89 % 1025,1 hPa 0,0 mm 0,0 km/h (0 Bft) NO 43 1 min 0,000 mm 1,0 UV-I 265 W/m 11,7 C 0,0 km/h (0 Bft)
13.08.2016 08:06 13,6 C 13,6 C 89 % 1025,1 hPa 0,0 mm 0,3 km/h (0 Bft) NO 43 1 min 0,000 mm 1,1 UV-I 267 W/m 11,8 C 1,6 km/h (1 Bft)
13.08.2016 08:07 13,7 C 13,7 C 88 % 1025,2 hPa 0,0 mm 0,9 km/h (0 Bft) NO 43 1 min 0,000 mm 1,1 UV-I 271 W/m 11,7 C 1,6 km/h (1 Bft)
13.08.2016 08:08 13,8 C 13,8 C 90 % 1025,1 hPa 0,0 mm 1,2 km/h (1 Bft) NO 43 1 min 0,000 mm 1,1 UV-I 272 W/m 12,2 C 3,2 km/h (1 Bft)
13.08.2016 08:09 13,8 C 13,8 C 89 % 1025,1 hPa 0,0 mm 1,7 km/h (1 Bft) NO 44 1 min 0,000 mm 1,1 UV-I 274 W/m 12,0 C 3,2 km/h (1 Bft)
13.08.2016 08:10 13,8 C 13,8 C 89 % 1025,1 hPa 0,0 mm 1,0 km/h (0 Bft) NO 44 1 min 0,000 mm 1,1 UV-I 276 W/m 12,0 C 3,2 km/h (1 Bft)
13.08.2016 08:11 13,9 C 13,9 C 88 % 1025,1 hPa 0,0 mm 0,2 km/h (0 Bft) NO 44 1 min 0,000 mm 1,2 UV-I 281 W/m 11,9 C 1,6 km/h (1 Bft)
13.08.2016 08:12 14,0 C 14,0 C 88 % 1025,0 hPa 0,0 mm 0,0 km/h (0 Bft) NO 44 1 min 0,000 mm 1,2 UV-I 283 W/m 12,0 C 0,0 km/h (0 Bft)
13.08.2016 08:13 13,9 C 14,0 C 88 % 1025,1 hPa 0,0 mm 1,8 km/h (1 Bft) NO 44 1 min 0,000 mm 1,2 UV-I 285 W/m 11,9 C 3,2 km/h (1 Bft)
13.08.2016 08:14 13,9 C 13,9 C 89 % 1025,0 hPa 0,0 mm 0,8 km/h (0 Bft) NO 44 1 min 0,000 mm 1,2 UV-I 288 W/m 12,1 C 1,6 km/h (1 Bft)
13.08.2016 08:15 14,0 C 14,0 C 87 % 1025,0 hPa 0,0 mm 1,1 km/h (1 Bft) NO 44 1 min 0,000 mm 1,2 UV-I 290 W/m 11,9 C 3,2 km/h (1 Bft)
13.08.2016 08:16 14,1 C 14,1 C 89 % 1025,0 hPa 0,0 mm 1,1 km/h (1 Bft) NO 44 1 min 0,000 mm 1,3 UV-I 290 W/m 12,3 C 3,2 km/h (1 Bft)
13.08.2016 08:17 14,2 C 14,2 C 87 % 1025,0 hPa 0,0 mm 1,0 km/h (0 Bft) NO 44 1 min 0,000 mm 1,3 UV-I 297 W/m 12,1 C 1,6 km/h (1 Bft)
13.08.2016 08:18 14,2 C 14,2 C 85 % 1025,0 hPa 0,0 mm 0,5 km/h (0 Bft) NO 44 1 min 0,000 mm 1,3 UV-I 299 W/m 11,7 C 1,6 km/h (1 Bft)
13.08.2016 08:19 14,3 C 14,3 C 85 % 1025,1 hPa 0,0 mm 0,6 km/h (0 Bft) NO 44 1 min 0,000 mm 1,3 UV-I 302 W/m 11,8 C 1,6 km/h (1 Bft)
13.08.2016 08:20 14,3 C 14,3 C 87 % 1025,1 hPa 0,0 mm 0,0 km/h (0 Bft) NO 44 1 min 0,000 mm 1,3 UV-I 302 W/m 12,2 C 0,0 km/h (0 Bft)
13.08.2016 08:21 14,4 C 14,4 C 86 % 1025,0 hPa 0,0 mm 0,0 km/h (0 Bft) NO 44 1 min 0,000 mm 1,4 UV-I 306 W/m 12,1 C 0,0 km/h (0 Bft)
13.08.2016 08:22 14,6 C 14,6 C 88 % 1025,0 hPa 0,0 mm 0,2 km/h (0 Bft) NO 44 1 min 0,000 mm 1,4 UV-I 308 W/m 12,6 C 1,6 km/h (1 Bft)
13.08.2016 08:23 14,7 C 14,7 C 87 % 1025,0 hPa 0,0 mm 0,1 km/h (0 Bft) NO 44 1 min 0,000 mm 1,4 UV-I 313 W/m 12,6 C 1,6 km/h (1 Bft)
13.08.2016 08:24 14,7 C 14,7 C 84 % 1025,0 hPa 0,0 mm 0,3 km/h (0 Bft) NO 44 1 min 0,000 mm 1,4 UV-I 315 W/m 12,0 C 1,6 km/h (1 Bft)
13.08.2016 08:25 14,9 C 14,9 C 88 % 1025,0 hPa 0,0 mm 0,7 km/h (0 Bft) N-NO 22 1 min 0,000 mm 1,5 UV-I 318 W/m 12,9 C 1,6 km/h (1 Bft)
13.08.2016 08:26 14,9 C 14,9 C 84 % 1025,0 hPa 0,0 mm 0,9 km/h (0 Bft) N-NO 22 1 min 0,000 mm 1,5 UV-I 320 W/m 12,2 C 3,2 km/h (1 Bft)
13.08.2016 08:27 14,9 C 14,9 C 88 % 1025,0 hPa 0,0 mm 0,8 km/h (0 Bft) N-NO 22 1 min 0,000 mm 1,5 UV-I 322 W/m 12,9 C 1,6 km/h (1 Bft)
13.08.2016 08:28 14,8 C 14,9 C 86 % 1025,0 hPa 0,0 mm 1,3 km/h (1 Bft) NO 56 1 min 0,000 mm 1,5 UV-I 327 W/m 12,5 C 3,2 km/h (1 Bft)
13.08.2016 08:29 14,7 C 14,8 C 84 % 1025,0 hPa 0,0 mm 0,2 km/h (0 Bft) NO 56 1 min 0,000 mm 1,6 UV-I 330 W/m 12,0 C 1,6 km/h (1 Bft)
13.08.2016 08:30 14,6 C 14,7 C 84 % 1025,0 hPa 0,0 mm 0,1 km/h (0 Bft) NO 56 1 min 0,000 mm 1,6 UV-I 332 W/m 11,9 C 1,6 km/h (1 Bft)
13.08.2016 08:31 14,6 C 14,7 C 85 % 1025,0 hPa 0,0 mm 0,0 km/h (0 Bft) NO 56 1 min 0,000 mm 1,6 UV-I 336 W/m 12,1 C 0,0 km/h (0 Bft)
13.08.2016 08:32 14,7 C 14,7 C 85 % 1025,0 hPa 0,0 mm 0,1 km/h (0 Bft) NO 56 1 min 0,000 mm 1,7 UV-I 336 W/m 12,2 C 1,6 km/h (1 Bft)
13.08.2016 08:33 14,7 C 14,7 C 85 % 1025,0 hPa 0,0 mm 0,6 km/h (0 Bft) NO 56 1 min 0,000 mm 1,7 UV-I 341 W/m 12,2 C 1,6 km/h (1 Bft)
13.08.2016 08:34 14,8 C 14,8 C 87 % 1025,0 hPa 0,0 mm 1,1 km/h (1 Bft) NO 55 1 min 0,000 mm 1,7 UV-I 346 W/m 12,7 C 3,2 km/h (1 Bft)
13.08.2016 08:35 14,8 C 14,8 C 83 % 1025,0 hPa 0,0 mm 0,6 km/h (0 Bft) NO 55 1 min 0,000 mm 1,7 UV-I 348 W/m 11,9 C 1,6 km/h (1 Bft)
13.08.2016 08:36 14,9 C 14,9 C 86 % 1025,0 hPa 0,0 mm 1,2 km/h (1 Bft) N 5 1 min 0,000 mm 1,8 UV-I 350 W/m 12,6 C 3,2 km/h (1 Bft)
13.08.2016 08:37 15,1 C 15,1 C 87 % 1025,0 hPa 0,0 mm 2,1 km/h (1 Bft) NW 323 1 min 0,000 mm 1,8 UV-I 353 W/m 13,0 C 4,8 km/h (1 Bft)
13.08.2016 08:38 15,1 C 15,2 C 89 % 1025,0 hPa 0,0 mm 0,6 km/h (0 Bft) NW 323 1 min 0,000 mm 1,8 UV-I 355 W/m 13,3 C 1,6 km/h (1 Bft)
13.08.2016 08:39 15,2 C 15,2 C 86 % 1025,0 hPa 0,0 mm 0,3 km/h (0 Bft) NW 323 1 min 0,000 mm 1,8 UV-I 359 W/m 12,9 C 1,6 km/h (1 Bft)
13.08.2016 08:40 15,2 C 15,2 C 86 % 1025,0 hPa 0,0 mm 0,1 km/h (0 Bft) NW 323 1 min 0,000 mm 1,9 UV-I 364 W/m 12,9 C 1,6 km/h (1 Bft)
13.08.2016 08:41 15,2 C 15,2 C 86 % 1025,0 hPa 0,0 mm 0,0 km/h (0 Bft) NW 323 1 min 0,000 mm 1,9 UV-I 366 W/m 12,9 C 0,0 km/h (0 Bft)
13.08.2016 08:42 15,1 C 15,2 C 83 % 1025,0 hPa 0,0 mm 0,0 km/h (0 Bft) NW 323 1 min 0,000 mm 1,9 UV-I 369 W/m 12,2 C 0,0 km/h (0 Bft)
13.08.2016 08:43 15,1 C 15,1 C 84 % 1025,1 hPa 0,0 mm 0,5 km/h (0 Bft) NW 323 1 min 0,000 mm 2,0 UV-I 371 W/m 12,4 C 1,6 km/h (1 Bft)
13.08.2016 08:44 15,2 C 15,2 C 83 % 1025,1 hPa 0,0 mm 1,9 km/h (1 Bft) O 95 1 min 0,000 mm 2,0 UV-I 374 W/m 12,3 C 3,2 km/h (1 Bft)
13.08.2016 08:45 15,2 C 15,2 C 84 % 1025,0 hPa 0,0 mm 1,4 km/h (1 Bft) O 95 1 min 0,000 mm 2,0 UV-I 378 W/m 12,5 C 3,2 km/h (1 Bft)
13.08.2016 08:46 15,3 C 15,3 C 86 % 1025,1 hPa 0,0 mm 0,3 km/h (0 Bft) O 95 1 min 0,000 mm 2,0 UV-I 381 W/m 13,0 C 1,6 km/h (1 Bft)
13.08.2016 08:47 15,3 C 15,3 C 84 % 1025,1 hPa 0,0 mm 2,2 km/h (1 Bft) O-NO 71 1 min 0,000 mm 2,1 UV-I 383 W/m 12,6 C 3,2 km/h (1 Bft)
13.08.2016 08:48 15,3 C 15,3 C 84 % 1025,1 hPa 0,0 mm 2,2 km/h (1 Bft) O-NO 71 1 min 0,000 mm 2,1 UV-I 387 W/m 12,6 C 3,2 km/h (1 Bft)
13.08.2016 08:49 15,5 C 15,5 C 86 % 1025,1 hPa 0,0 mm 1,5 km/h (1 Bft) O-NO 71 1 min 0,000 mm 2,1 UV-I 390 W/m 13,2 C 1,6 km/h (1 Bft)
13.08.2016 08:50 15,4 C 15,5 C 84 % 1025,1 hPa 0,0 mm 1,1 km/h (1 Bft) O-NO 71 1 min 0,000 mm 2,1 UV-I 392 W/m 12,7 C 1,6 km/h (1 Bft)
13.08.2016 08:51 15,4 C 15,4 C 83 % 1025,0 hPa 0,0 mm 0,6 km/h (0 Bft) O-NO 71 1 min 0,000 mm 2,1 UV-I 396 W/m 12,5 C 1,6 km/h (1 Bft)
13.08.2016 08:52 15,3 C 15,4 C 84 % 1025,0 hPa 0,0 mm 0,0 km/h (0 Bft) O-NO 71 1 min 0,000 mm 2,2 UV-I 401 W/m 12,6 C 0,0 km/h (0 Bft)
13.08.2016 08:53 15,4 C 15,4 C 85 % 1025,0 hPa 0,0 mm 0,0 km/h (0 Bft) O-NO 71 1 min 0,000 mm 2,2 UV-I 403 W/m 12,9 C 0,0 km/h (0 Bft)
13.08.2016 08:54 15,3 C 15,4 C 83 % 1025,0 hPa 0,0 mm 0,1 km/h (0 Bft) O-NO 71 1 min 0,000 mm 2,2 UV-I 406 W/m 12,4 C 1,6 km/h (1 Bft)
13.08.2016 08:55 15,3 C 15,3 C 83 % 1025,0 hPa 0,0 mm 0,3 km/h (0 Bft) O-NO 71 1 min 0,000 mm 2,2 UV-I 408 W/m 12,4 C 1,6 km/h (1 Bft)
13.08.2016 08:56 15,4 C 15,4 C 84 % 1025,0 hPa 0,0 mm 0,0 km/h (0 Bft) O-NO 71 1 min 0,000 mm 2,2 UV-I 410 W/m 12,7 C 0,0 km/h (0 Bft)
13.08.2016 08:57 15,7 C 15,7 C 84 % 1025,0 hPa 0,0 mm 0,1 km/h (0 Bft) O-NO 71 1 min 0,000 mm 2,3 UV-I 413 W/m 13,0 C 1,6 km/h (1 Bft)
13.08.2016 08:58 15,9 C 15,9 C 83 % 1025,0 hPa 0,0 mm 0,4 km/h (0 Bft) O-NO 71 1 min 0,000 mm 2,3 UV-I 417 W/m 13,0 C 1,6 km/h (1 Bft)
13.08.2016 08:59 16,1 C 16,1 C 87 % 1025,0 hPa 0,0 mm 0,1 km/h (0 Bft) O-NO 71 1 min 0,000 mm 2,3 UV-I 420 W/m 13,9 C 1,6 km/h (1 Bft)
13.08.2016 09:00 16,1 C 16,1 C 83 % 1025,1 hPa 0,0 mm 0,1 km/h (0 Bft) O-NO 71 1 min 0,178 mm 2,3 UV-I 422 W/m 13,2 C 1,6 km/h (1 Bft)
13.08.2016 09:01 16,1 C 16,1 C 84 % 1024,9 hPa 0,0 mm 0,1 km/h (0 Bft) O-NO 71 1 min 0,000 mm 2,4 UV-I 424 W/m 13,4 C 1,6 km/h (1 Bft)
13.08.2016 09:02 16,2 C 16,2 C 82 % 1025,0 hPa 0,0 mm 0,1 km/h (0 Bft) O-NO 71 1 min 0,000 mm 2,4 UV-I 427 W/m 13,1 C 1,6 km/h (1 Bft)
13.08.2016 09:03 16,3 C 16,3 C 81 % 1025,0 hPa 0,0 mm 1,0 km/h (0 Bft) NO 43 1 min 0,000 mm 2,4 UV-I 429 W/m 13,0 C 3,2 km/h (1 Bft)
13.08.2016 09:04 16,4 C 16,4 C 82 % 1025,0 hPa 0,0 mm 1,4 km/h (1 Bft) NO 43 1 min 0,000 mm 2,4 UV-I 434 W/m 13,3 C 3,2 km/h (1 Bft)
13.08.2016 09:05 16,6 C 16,6 C 79 % 1025,0 hPa 0,0 mm 1,8 km/h (1 Bft) NO 40 1 min 0,000 mm 2,5 UV-I 436 W/m 12,9 C 3,2 km/h (1 Bft)
13.08.2016 09:06 16,7 C 16,7 C 79 % 1025,0 hPa 0,0 mm 2,1 km/h (1 Bft) NW 321 1 min 0,000 mm 2,5 UV-I 438 W/m 13,0 C 3,2 km/h (1 Bft)
13.08.2016 09:07 16,8 C 16,8 C 79 % 1025,0 hPa 0,0 mm 1,0 km/h (0 Bft) NW 325 1 min 0,000 mm 2,5 UV-I 441 W/m 13,1 C 1,6 km/h (1 Bft)
13.08.2016 09:08 16,9 C 16,9 C 81 % 1024,9 hPa 0,0 mm 2,0 km/h (1 Bft) NO 51 1 min 0,000 mm 2,5 UV-I 443 W/m 13,6 C 3,2 km/h (1 Bft)
13.08.2016 09:09 16,9 C 16,9 C 83 % 1024,9 hPa 0,0 mm 0,5 km/h (0 Bft) NO 51 1 min 0,000 mm 2,5 UV-I 448 W/m 14,0 C 3,2 km/h (1 Bft)
13.08.2016 09:10 16,9 C 17,0 C 81 % 1024,9 hPa 0,0 mm 0,2 km/h (0 Bft) NO 51 1 min 0,000 mm 2,6 UV-I 450 W/m 13,6 C 1,6 km/h (1 Bft)
13.08.2016 09:11 16,8 C 16,9 C 80 % 1024,9 hPa 0,0 mm 1,4 km/h (1 Bft) NO 51 1 min 0,000 mm 2,6 UV-I 454 W/m 13,3 C 1,6 km/h (1 Bft)
13.08.2016 09:12 16,8 C 16,8 C 83 % 1024,9 hPa 0,0 mm 1,3 km/h (1 Bft) NO 51 1 min 0,000 mm 2,6 UV-I 454 W/m 13,9 C 3,2 km/h (1 Bft)
13.08.2016 09:13 16,9 C 16,9 C 79 % 1024,9 hPa 0,0 mm 1,1 km/h (1 Bft) NO 51 1 min 0,000 mm 2,7 UV-I 457 W/m 13,2 C 1,6 km/h (1 Bft)
13.08.2016 09:14 16,8 C 16,9 C 81 % 1025,0 hPa 0,0 mm 0,8 km/h (0 Bft) NO 51 1 min 0,000 mm 2,7 UV-I 461 W/m 13,5 C 3,2 km/h (1 Bft)
13.08.2016 09:15 16,9 C 16,9 C 83 % 1025,0 hPa 0,0 mm 0,1 km/h (0 Bft) NO 51 1 min 0,000 mm 2,7 UV-I 466 W/m 14,0 C 1,6 km/h (1 Bft)
13.08.2016 09:16 16,9 C 16,9 C 83 % 1024,9 hPa 0,0 mm 1,0 km/h (0 Bft) NO 51 1 min 0,000 mm 2,7 UV-I 468 W/m 14,0 C 3,2 km/h (1 Bft)
13.08.2016 09:17 17,0 C 17,0 C 85 % 1024,9 hPa 0,0 mm 1,9 km/h (1 Bft) NO 50 1 min 0,000 mm 2,8 UV-I 469 W/m 14,5 C 3,2 km/h (1 Bft)
13.08.2016 09:18 16,9 C 17,0 C 82 % 1024,9 hPa 0,0 mm 1,6 km/h (1 Bft) NO 50 1 min 0,000 mm 2,8 UV-I 471 W/m 13,8 C 3,2 km/h (1 Bft)
13.08.2016 09:19 16,9 C 17,0 C 83 % 1025,0 hPa 0,0 mm 1,0 km/h (0 Bft) NO 50 1 min 0,000 mm 2,8 UV-I 475 W/m 14,0 C 1,6 km/h (1 Bft)
13.08.2016 09:20 16,8 C 16,9 C 81 % 1025,0 hPa 0,0 mm 2,4 km/h (1 Bft) NO 50 1 min 0,000 mm 2,8 UV-I 478 W/m 13,5 C 3,2 km/h (1 Bft)
13.08.2016 09:21 16,6 C 16,8 C 80 % 1025,0 hPa 0,0 mm 2,1 km/h (1 Bft) NO 50 1 min 0,000 mm 2,8 UV-I 483 W/m 13,1 C 3,2 km/h (1 Bft)
13.08.2016 09:22 16,6 C 16,6 C 80 % 1025,0 hPa 0,0 mm 1,3 km/h (1 Bft) NO 50 1 min 0,000 mm 2,9 UV-I 485 W/m 13,1 C 1,6 km/h (1 Bft)
13.08.2016 09:23 16,6 C 16,6 C 80 % 1025,0 hPa 0,0 mm 0,7 km/h (0 Bft) NO 50 1 min 0,000 mm 2,9 UV-I 487 W/m 13,1 C 1,6 km/h (1 Bft)
13.08.2016 09:24 16,7 C 16,7 C 80 % 1025,0 hPa 0,0 mm 0,5 km/h (0 Bft) NO 50 1 min 0,000 mm 2,9 UV-I 490 W/m 13,2 C 1,6 km/h (1 Bft)
13.08.2016 09:25 16,8 C 16,8 C 80 % 1024,9 hPa 0,0 mm 0,0 km/h (0 Bft) NO 50 1 min 0,000 mm 2,9 UV-I 492 W/m 13,3 C 0,0 km/h (0 Bft)
13.08.2016 09:26 16,9 C 16,9 C 81 % 1024,9 hPa 0,0 mm 0,1 km/h (0 Bft) NO 50 1 min 0,000 mm 3,0 UV-I 494 W/m 13,6 C 1,6 km/h (1 Bft)
13.08.2016 09:27 17,0 C 17,0 C 83 % 1025,0 hPa 0,0 mm 0,4 km/h (0 Bft) NO 50 1 min 0,000 mm 3,0 UV-I 497 W/m 14,1 C 1,6 km/h (1 Bft)
13.08.2016 09:28 17,0 C 17,0 C 78 % 1024,9 hPa 0,0 mm 0,7 km/h (0 Bft) NO 50 1 min 0,000 mm 3,0 UV-I 501 W/m 13,1 C 1,6 km/h (1 Bft)
13.08.2016 09:29 16,9 C 17,0 C 79 % 1024,9 hPa 0,0 mm 0,0 km/h (0 Bft) NO 50 1 min 0,000 mm 3,0 UV-I 503 W/m 13,2 C 0,0 km/h (0 Bft)
13.08.2016 09:30 16,9 C 16,9 C 80 % 1024,9 hPa 0,0 mm 0,0 km/h (0 Bft) NO 50 1 min 0,000 mm 3,1 UV-I 504 W/m 13,4 C 0,0 km/h (0 Bft)
13.08.2016 09:31 17,2 C 17,2 C 84 % 1024,9 hPa 0,0 mm 0,0 km/h (0 Bft) N-NW 348 1 min 0,000 mm 3,1 UV-I 508 W/m 14,5 C 0,0 km/h (0 Bft)
13.08.2016 09:32 17,5 C 17,5 C 83 % 1024,9 hPa 0,0 mm 0,0 km/h (0 Bft) N-NW 348 1 min 0,000 mm 3,1 UV-I 510 W/m 14,6 C 0,0 km/h (0 Bft)
13.08.2016 09:33 17,7 C 17,7 C 83 % 1024,8 hPa 0,0 mm 0,0 km/h (0 Bft) N-NW 337 1 min 0,000 mm 3,1 UV-I 515 W/m 14,8 C 0,0 km/h (0 Bft)
13.08.2016 09:34 17,8 C 17,8 C 77 % 1024,8 hPa 0,0 mm 0,0 km/h (0 Bft) N-NW 337 1 min 0,000 mm 3,2 UV-I 515 W/m 13,7 C 0,0 km/h (0 Bft)
13.08.2016 09:35 17,7 C 17,8 C 82 % 1024,9 hPa 0,0 mm 0,0 km/h (0 Bft) NW 315 1 min 0,000 mm 3,2 UV-I 519 W/m 14,6 C 0,0 km/h (0 Bft)
13.08.2016 09:36 17,7 C 17,7 C 79 % 1024,9 hPa 0,0 mm 0,0 km/h (0 Bft) NW 315 1 min 0,000 mm 3,2 UV-I 520 W/m 14,0 C 0,0 km/h (0 Bft)
13.08.2016 09:37 17,8 C 17,8 C 77 % 1024,8 hPa 0,0 mm 0,0 km/h (0 Bft) NW 315 1 min 0,000 mm 3,2 UV-I 520 W/m 13,7 C 0,0 km/h (0 Bft)
13.08.2016 09:38 17,8 C 17,8 C 75 % 1024,9 hPa 0,0 mm 0,0 km/h (0 Bft) NW 315 1 min 0,000 mm 3,3 UV-I 524 W/m 13,3 C 0,0 km/h (0 Bft)
13.08.2016 09:39 17,8 C 17,8 C 74 % 1024,8 hPa 0,0 mm 0,0 km/h (0 Bft) NW 315 1 min 0,000 mm 3,3 UV-I 531 W/m 13,1 C 0,0 km/h (0 Bft)
13.08.2016 09:40 17,6 C 17,8 C 75 % 1024,8 hPa 0,0 mm 0,0 km/h (0 Bft) NW 315 1 min 0,000 mm 3,3 UV-I 533 W/m 13,1 C 0,0 km/h (0 Bft)
13.08.2016 09:41 17,5 C 17,6 C 77 % 1024,8 hPa 0,0 mm 0,0 km/h (0 Bft) NW 315 1 min 0,000 mm 3,3 UV-I 534 W/m 13,4 C 0,0 km/h (0 Bft)
13.08.2016 09:42 17,6 C 17,6 C 77 % 1024,8 hPa 0,0 mm 0,0 km/h (0 Bft) NW 315 1 min 0,000 mm 3,4 UV-I 538 W/m 13,5 C 0,0 km/h (0 Bft)
13.08.2016 09:43 17,6 C 17,6 C 78 % 1024,8 hPa 0,0 mm 0,0 km/h (0 Bft) NW 315 1 min 0,000 mm 3,4 UV-I 540 W/m 13,7 C 0,0 km/h (0 Bft)
13.08.2016 09:44 17,6 C 17,6 C 77 % 1024,8 hPa 0,0 mm 0,0 km/h (0 Bft) NW 315 1 min 0,000 mm 3,4 UV-I 541 W/m 13,5 C 0,0 km/h (0 Bft)
13.08.2016 09:45 17,6 C 17,6 C 78 % 1024,8 hPa 0,0 mm 0,0 km/h (0 Bft) NW 315 1 min 0,000 mm 3,4 UV-I 547 W/m 13,7 C 0,0 km/h (0 Bft)
13.08.2016 09:46 17,6 C 17,6 C 77 % 1024,8 hPa 0,0 mm 0,0 km/h (0 Bft) NW 315 1 min 0,000 mm 3,5 UV-I 548 W/m 13,5 C 0,0 km/h (0 Bft)
13.08.2016 09:47 17,5 C 17,6 C 80 % 1024,8 hPa 0,0 mm 0,0 km/h (0 Bft) NW 315 1 min 0,000 mm 3,5 UV-I 550 W/m 14,0 C 0,0 km/h (0 Bft)
13.08.2016 09:48 17,4 C 17,5 C 79 % 1024,8 hPa 0,0 mm 0,0 km/h (0 Bft) NW 315 1 min 0,000 mm 3,5 UV-I 554 W/m 13,7 C 0,0 km/h (0 Bft)
13.08.2016 09:49 17,4 C 17,4 C 79 % 1024,7 hPa 0,0 mm 0,0 km/h (0 Bft) NW 315 1 min 0,000 mm 3,5 UV-I 555 W/m 13,7 C 0,0 km/h (0 Bft)
13.08.2016 09:50 17,4 C 17,4 C 83 % 1024,7 hPa 0,0 mm 0,0 km/h (0 Bft) NW 315 1 min 0,000 mm 3,6 UV-I 559 W/m 14,5 C 0,0 km/h (0 Bft)
13.08.2016 09:51 17,6 C 17,6 C 81 % 1024,7 hPa 0,0 mm 0,2 km/h (0 Bft) NW 315 1 min 0,000 mm 3,6 UV-I 561 W/m 14,3 C 1,6 km/h (1 Bft)
13.08.2016 09:52 17,8 C 17,8 C 82 % 1024,8 hPa 0,0 mm 0,1 km/h (0 Bft) NW 315 1 min 0,000 mm 3,6 UV-I 563 W/m 14,7 C 1,6 km/h (1 Bft)
13.08.2016 09:53 18,1 C 18,1 C 82 % 1024,8 hPa 0,0 mm 0,0 km/h (0 Bft) NW 315 1 min 0,000 mm 3,6 UV-I 564 W/m 15,0 C 0,0 km/h (0 Bft)
13.08.2016 09:54 18,2 C 18,2 C 82 % 1024,7 hPa 0,0 mm 0,0 km/h (0 Bft) NW 315 1 min 0,000 mm 3,7 UV-I 568 W/m 15,1 C 0,0 km/h (0 Bft)
13.08.2016 09:55 18,3 C 18,3 C 74 % 1024,7 hPa 0,0 mm 0,5 km/h (0 Bft) W-NW 291 1 min 0,000 mm 3,7 UV-I 568 W/m 13,6 C 3,2 km/h (1 Bft)
13.08.2016 09:56 18,4 C 18,4 C 75 % 1024,8 hPa 0,0 mm 1,7 km/h (1 Bft) W-NW 291 1 min 0,000 mm 3,7 UV-I 573 W/m 13,9 C 3,2 km/h (1 Bft)
13.08.2016 09:57 18,4 C 18,4 C 75 % 1024,6 hPa 0,0 mm 0,9 km/h (0 Bft) W-NW 291 1 min 0,000 mm 3,8 UV-I 575 W/m 13,9 C 1,6 km/h (1 Bft)
13.08.2016 09:58 18,5 C 18,5 C 72 % 1024,7 hPa 0,0 mm 1,6 km/h (1 Bft) W-NW 291 1 min 0,000 mm 3,8 UV-I 577 W/m 13,4 C 3,2 km/h (1 Bft)
13.08.2016 09:59 18,6 C 18,7 C 76 % 1024,7 hPa 0,0 mm 1,9 km/h (1 Bft) W-NW 291 1 min 0,000 mm 3,8 UV-I 578 W/m 14,3 C 3,2 km/h (1 Bft)
13.08.2016 10:00 18,7 C 18,7 C 70 % 1024,7 hPa 0,0 mm 0,3 km/h (0 Bft) W-NW 291 1 min 0,279 mm 3,8 UV-I 580 W/m 13,1 C 1,6 km/h (1 Bft)
13.08.2016 10:01 18,7 C 18,7 C 71 % 1024,7 hPa 0,0 mm 0,6 km/h (0 Bft) W-NW 286 1 min 0,000 mm 3,8 UV-I 582 W/m 13,3 C 1,6 km/h (1 Bft)
13.08.2016 10:02 18,6 C 18,7 C 72 % 1024,7 hPa 0,0 mm 2,5 km/h (1 Bft) NO 49 1 min 0,000 mm 3,9 UV-I 587 W/m 13,4 C 3,2 km/h (1 Bft)
13.08.2016 10:03 18,5 C 18,6 C 72 % 1024,7 hPa 0,0 mm 1,2 km/h (1 Bft) NO 49 1 min 0,000 mm 3,9 UV-I 587 W/m 13,4 C 1,6 km/h (1 Bft)
13.08.2016 10:04 18,4 C 18,5 C 74 % 1024,7 hPa 0,0 mm 1,3 km/h (1 Bft) NO 49 1 min 0,000 mm 3,9 UV-I 592 W/m 13,7 C 3,2 km/h (1 Bft)
13.08.2016 10:05 18,2 C 18,4 C 73 % 1024,7 hPa 0,0 mm 1,3 km/h (1 Bft) NO 49 1 min 0,000 mm 3,9 UV-I 594 W/m 13,3 C 3,2 km/h (1 Bft)
13.08.2016 10:06 18,3 C 18,3 C 79 % 1024,7 hPa 0,0 mm 3,0 km/h (1 Bft) NO 50 1 min 0,000 mm 4,0 UV-I 598 W/m 14,6 C 4,8 km/h (1 Bft)
13.08.2016 10:07 18,4 C 18,4 C 71 % 1024,8 hPa 0,0 mm 3,0 km/h (1 Bft) NO 50 1 min 0,000 mm 4,0 UV-I 599 W/m 13,0 C 4,8 km/h (1 Bft)
13.08.2016 10:08 18,5 C 18,5 C 70 % 1024,8 hPa 0,0 mm 2,4 km/h (1 Bft) NO 50 1 min 0,000 mm 4,0 UV-I 603 W/m 12,9 C 3,2 km/h (1 Bft)
13.08.2016 10:09 18,6 C 18,6 C 71 % 1024,7 hPa 0,0 mm 1,9 km/h (1 Bft) NO 49 1 min 0,000 mm 4,0 UV-I 605 W/m 13,2 C 3,2 km/h (1 Bft)
13.08.2016 10:10 18,7 C 18,7 C 74 % 1024,7 hPa 0,0 mm 2,8 km/h (1 Bft) O 84 1 min 0,000 mm 4,1 UV-I 606 W/m 14,0 C 4,8 km/h (1 Bft)
13.08.2016 10:11 18,4 C 18,7 C 76 % 1024,7 hPa 0,0 mm 4,0 km/h (1 Bft) O 84 1 min 0,000 mm 4,1 UV-I 610 W/m 14,1 C 4,8 km/h (1 Bft)
13.08.2016 10:12 18,3 C 18,4 C 72 % 1024,7 hPa 0,0 mm 2,2 km/h (1 Bft) O 84 1 min 0,000 mm 4,1 UV-I 612 W/m 13,2 C 4,8 km/h (1 Bft)
13.08.2016 10:13 18,3 C 18,3 C 72 % 1024,7 hPa 0,0 mm 0,3 km/h (0 Bft) O 84 1 min 0,000 mm 4,1 UV-I 613 W/m 13,2 C 1,6 km/h (1 Bft)
13.08.2016 10:14 18,4 C 18,4 C 71 % 1024,8 hPa 0,0 mm 2,6 km/h (1 Bft) O 84 1 min 0,000 mm 4,1 UV-I 617 W/m 13,0 C 4,8 km/h (1 Bft)
13.08.2016 10:15 18,3 C 18,4 C 72 % 1024,7 hPa 0,0 mm 2,5 km/h (1 Bft) O 84 1 min 0,000 mm 4,2 UV-I 619 W/m 13,2 C 4,8 km/h (1 Bft)
13.08.2016 10:16 18,2 C 18,3 C 74 % 1024,7 hPa 0,0 mm 1,8 km/h (1 Bft) O-NO 63 1 min 0,000 mm 4,2 UV-I 621 W/m 13,5 C 3,2 km/h (1 Bft)
13.08.2016 10:17 18,2 C 18,2 C 73 % 1024,7 hPa 0,0 mm 0,9 km/h (0 Bft) O-NO 63 1 min 0,000 mm 4,2 UV-I 624 W/m 13,3 C 3,2 km/h (1 Bft)
13.08.2016 10:18 18,3 C 18,3 C 78 % 1024,8 hPa 0,0 mm 0,3 km/h (0 Bft) O-NO 63 1 min 0,000 mm 4,2 UV-I 626 W/m 14,4 C 1,6 km/h (1 Bft)
13.08.2016 10:19 18,6 C 18,6 C 75 % 1024,8 hPa 0,0 mm 0,9 km/h (0 Bft) O-NO 59 1 min 0,000 mm 4,2 UV-I 628 W/m 14,1 C 3,2 km/h (1 Bft)
13.08.2016 10:20 18,8 C 18,8 C 75 % 1024,7 hPa 0,0 mm 0,6 km/h (0 Bft) O-NO 59 1 min 0,000 mm 4,3 UV-I 629 W/m 14,3 C 1,6 km/h (1 Bft)
13.08.2016 10:21 18,9 C 18,9 C 73 % 1024,7 hPa 0,0 mm 2,5 km/h (1 Bft) N-NO 33 1 min 0,000 mm 4,3 UV-I 631 W/m 13,9 C 4,8 km/h (1 Bft)
13.08.2016 10:22 18,9 C 18,9 C 73 % 1024,8 hPa 0,0 mm 3,3 km/h (1 Bft) N-NO 23 1 min 0,000 mm 4,3 UV-I 635 W/m 13,9 C 4,8 km/h (1 Bft)
13.08.2016 10:23 18,8 C 18,9 C 70 % 1024,7 hPa 0,0 mm 2,7 km/h (1 Bft) NW 323 1 min 0,000 mm 4,4 UV-I 636 W/m 13,2 C 4,8 km/h (1 Bft)
13.08.2016 10:24 18,8 C 18,8 C 66 % 1024,7 hPa 0,0 mm 2,6 km/h (1 Bft) NW 323 1 min 0,000 mm 4,4 UV-I 638 W/m 12,3 C 3,2 km/h (1 Bft)
13.08.2016 10:25 18,9 C 18,9 C 74 % 1024,7 hPa 0,0 mm 1,7 km/h (1 Bft) NW 322 1 min 0,000 mm 4,4 UV-I 640 W/m 14,2 C 3,2 km/h (1 Bft)
13.08.2016 10:26 19,2 C 19,2 C 75 % 1024,7 hPa 0,0 mm 4,4 km/h (1 Bft) N-NW 328 1 min 0,000 mm 4,4 UV-I 643 W/m 14,7 C 6,4 km/h (2 Bft)
13.08.2016 10:27 19,3 C 19,3 C 65 % 1024,7 hPa 0,0 mm 3,6 km/h (1 Bft) N-NW 348 1 min 0,000 mm 4,5 UV-I 643 W/m 12,6 C 4,8 km/h (1 Bft)
13.08.2016 10:28 19,4 C 19,4 C 69 % 1024,7 hPa 0,0 mm 2,8 km/h (1 Bft) N 355 1 min 0,000 mm 4,5 UV-I 647 W/m 13,6 C 3,2 km/h (1 Bft)
13.08.2016 10:29 19,4 C 19,5 C 66 % 1024,7 hPa 0,0 mm 2,9 km/h (1 Bft) N 355 1 min 0,000 mm 4,5 UV-I 649 W/m 12,9 C 3,2 km/h (1 Bft)
13.08.2016 10:30 19,5 C 19,6 C 67 % 1024,8 hPa 0,0 mm 1,8 km/h (1 Bft) N 355 1 min 0,000 mm 4,5 UV-I 650 W/m 13,2 C 3,2 km/h (1 Bft)
13.08.2016 10:31 19,5 C 19,5 C 68 % 1024,8 hPa 0,0 mm 0,4 km/h (0 Bft) N 355 1 min 0,000 mm 4,5 UV-I 652 W/m 13,4 C 1,6 km/h (1 Bft)
13.08.2016 10:32 19,4 C 19,5 C 67 % 1024,8 hPa 0,0 mm 0,3 km/h (0 Bft) N 355 1 min 0,000 mm 4,6 UV-I 656 W/m 13,1 C 1,6 km/h (1 Bft)
13.08.2016 10:33 19,4 C 19,4 C 71 % 1024,8 hPa 0,0 mm 1,6 km/h (1 Bft) N 355 1 min 0,000 mm 4,6 UV-I 657 W/m 14,0 C 3,2 km/h (1 Bft)
13.08.2016 10:34 19,7 C 19,7 C 73 % 1024,8 hPa 0,0 mm 2,7 km/h (1 Bft) NW 324 1 min 0,000 mm 4,6 UV-I 659 W/m 14,7 C 3,2 km/h (1 Bft)
13.08.2016 10:35 19,7 C 19,7 C 67 % 1024,8 hPa 0,0 mm 3,3 km/h (1 Bft) NW 323 1 min 0,000 mm 4,7 UV-I 661 W/m 13,4 C 4,8 km/h (1 Bft)
13.08.2016 10:36 19,6 C 19,7 C 63 % 1024,8 hPa 0,0 mm 2,4 km/h (1 Bft) NW 317 1 min 0,000 mm 4,7 UV-I 663 W/m 12,4 C 3,2 km/h (1 Bft)
13.08.2016 10:37 19,6 C 19,6 C 66 % 1024,8 hPa 0,0 mm 2,6 km/h (1 Bft) W-NW 303 1 min 0,000 mm 4,7 UV-I 666 W/m 13,1 C 3,2 km/h (1 Bft)
13.08.2016 10:38 19,6 C 19,6 C 61 % 1024,8 hPa 0,0 mm 1,6 km/h (1 Bft) W-NW 302 1 min 0,000 mm 4,7 UV-I 668 W/m 11,9 C 3,2 km/h (1 Bft)
13.08.2016 10:39 19,6 C 19,6 C 67 % 1024,8 hPa 0,0 mm 0,8 km/h (0 Bft) W-NW 302 1 min 0,000 mm 4,8 UV-I 670 W/m 13,3 C 1,6 km/h (1 Bft)
13.08.2016 10:40 19,7 C 19,7 C 65 % 1024,8 hPa 0,0 mm 1,1 km/h (1 Bft) W-NW 302 1 min 0,000 mm 4,8 UV-I 671 W/m 12,9 C 1,6 km/h (1 Bft)
13.08.2016 10:41 19,8 C 19,8 C 67 % 1024,8 hPa 0,0 mm 0,3 km/h (0 Bft) W-NW 302 1 min 0,000 mm 4,8 UV-I 673 W/m 13,5 C 1,6 km/h (1 Bft)
13.08.2016 10:42 19,8 C 19,8 C 67 % 1024,8 hPa 0,0 mm 0,2 km/h (0 Bft) W-NW 302 1 min 0,000 mm 4,8 UV-I 673 W/m 13,5 C 1,6 km/h (1 Bft)
13.08.2016 10:43 19,7 C 19,8 C 64 % 1024,8 hPa 0,0 mm 1,1 km/h (1 Bft) W-NW 302 1 min 0,000 mm 4,8 UV-I 679 W/m 12,7 C 3,2 km/h (1 Bft)
13.08.2016 10:44 19,4 C 19,7 C 69 % 1024,9 hPa 0,0 mm 0,7 km/h (0 Bft) W-NW 298 1 min 0,000 mm 4,9 UV-I 680 W/m 13,6 C 3,2 km/h (1 Bft)
13.08.2016 10:45 19,3 C 19,4 C 64 % 1024,8 hPa 0,0 mm 1,3 km/h (1 Bft) O 100 1 min 0,000 mm 4,9 UV-I 682 W/m 12,3 C 3,2 km/h (1 Bft)
13.08.2016 10:46 19,3 C 19,3 C 65 % 1024,7 hPa 0,0 mm 4,3 km/h (1 Bft) O 82 1 min 0,000 mm 4,9 UV-I 686 W/m 12,6 C 4,8 km/h (1 Bft)
13.08.2016 10:47 19,2 C 19,3 C 68 % 1024,8 hPa 0,0 mm 4,4 km/h (1 Bft) O-NO 67 1 min 0,000 mm 4,9 UV-I 687 W/m 13,1 C 6,4 km/h (2 Bft)
13.08.2016 10:48 19,3 C 19,3 C 66 % 1024,8 hPa 0,0 mm 4,7 km/h (1 Bft) O-NO 71 1 min 0,000 mm 4,9 UV-I 689 W/m 12,8 C 6,4 km/h (2 Bft)
13.08.2016 10:49 19,3 C 19,3 C 63 % 1024,8 hPa 0,0 mm 2,7 km/h (1 Bft) O-NO 71 1 min 0,000 mm 5,0 UV-I 691 W/m 12,1 C 4,8 km/h (1 Bft)
13.08.2016 10:50 19,3 C 19,3 C 62 % 1024,8 hPa 0,0 mm 0,9 km/h (0 Bft) O-NO 71 1 min 0,000 mm 5,0 UV-I 693 W/m 11,8 C 1,6 km/h (1 Bft)
13.08.2016 10:51 19,4 C 19,4 C 66 % 1024,8 hPa 0,0 mm 0,2 km/h (0 Bft) O-NO 71 1 min 0,000 mm 5,0 UV-I 694 W/m 12,9 C 1,6 km/h (1 Bft)
13.08.2016 10:52 19,4 C 19,4 C 62 % 1024,8 hPa 0,0 mm 0,5 km/h (0 Bft) O-NO 71 1 min 0,000 mm 5,0 UV-I 696 W/m 11,9 C 3,2 km/h (1 Bft)
13.08.2016 10:53 19,4 C 19,5 C 63 % 1024,8 hPa 0,0 mm 2,2 km/h (1 Bft) O-NO 72 1 min 0,000 mm 5,1 UV-I 696 W/m 12,2 C 3,2 km/h (1 Bft)
13.08.2016 10:54 19,3 C 19,4 C 63 % 1024,8 hPa 0,0 mm 1,0 km/h (0 Bft) O-NO 72 1 min 0,000 mm 5,1 UV-I 700 W/m 12,1 C 1,6 km/h (1 Bft)
13.08.2016 10:55 19,3 C 19,3 C 69 % 1024,8 hPa 0,0 mm 1,3 km/h (1 Bft) O-NO 72 1 min 0,000 mm 5,1 UV-I 703 W/m 13,5 C 3,2 km/h (1 Bft)
13.08.2016 10:56 19,3 C 19,3 C 67 % 1024,8 hPa 0,0 mm 1,9 km/h (1 Bft) O-NO 72 1 min 0,000 mm 5,1 UV-I 703 W/m 13,0 C 3,2 km/h (1 Bft)
13.08.2016 10:57 19,3 C 19,3 C 67 % 1024,8 hPa 0,0 mm 3,1 km/h (1 Bft) O 79 1 min 0,000 mm 5,1 UV-I 705 W/m 13,0 C 4,8 km/h (1 Bft)
13.08.2016 10:58 19,3 C 19,3 C 70 % 1024,8 hPa 0,0 mm 2,6 km/h (1 Bft) O 79 1 min 0,000 mm 5,2 UV-I 707 W/m 13,7 C 3,2 km/h (1 Bft)
13.08.2016 10:59 19,3 C 19,3 C 69 % 1024,8 hPa 0,0 mm 1,2 km/h (1 Bft) O 80 1 min 0,000 mm 5,2 UV-I 708 W/m 13,5 C 1,6 km/h (1 Bft)
13.08.2016 11:00 19,3 C 19,3 C 67 % 1024,8 hPa 0,0 mm 2,7 km/h (1 Bft) O 80 1 min 0,381 mm 5,2 UV-I 708 W/m 13,0 C 3,2 km/h (1 Bft)
13.08.2016 11:01 19,4 C 19,4 C 67 % 1024,8 hPa 0,0 mm 1,7 km/h (1 Bft) O 80 1 min 0,000 mm 5,2 UV-I 712 W/m 13,1 C 3,2 km/h (1 Bft)
13.08.2016 11:02 19,4 C 19,4 C 67 % 1024,8 hPa 0,0 mm 1,1 km/h (1 Bft) O 84 1 min 0,000 mm 5,2 UV-I 712 W/m 13,1 C 3,2 km/h (1 Bft)
13.08.2016 11:03 19,6 C 19,6 C 68 % 1024,8 hPa 0,0 mm 1,2 km/h (1 Bft) O 84 1 min 0,000 mm 5,3 UV-I 714 W/m 13,5 C 1,6 km/h (1 Bft)
13.08.2016 11:04 19,7 C 19,7 C 70 % 1024,8 hPa 0,0 mm 0,4 km/h (0 Bft) NO 45 1 min 0,000 mm 5,3 UV-I 715 W/m 14,1 C 1,6 km/h (1 Bft)
13.08.2016 11:05 19,7 C 19,7 C 67 % 1024,8 hPa 0,0 mm 3,6 km/h (1 Bft) N-NO 30 1 min 0,000 mm 5,3 UV-I 717 W/m 13,4 C 4,8 km/h (1 Bft)
13.08.2016 11:06 19,8 C 19,8 C 72 % 1024,8 hPa 0,0 mm 3,6 km/h (1 Bft) NO 49 1 min 0,000 mm 5,3 UV-I 715 W/m 14,6 C 4,8 km/h (1 Bft)
13.08.2016 11:07 19,9 C 19,9 C 68 % 1024,8 hPa 0,0 mm 2,4 km/h (1 Bft) NO 41 1 min 0,000 mm 5,3 UV-I 719 W/m 13,8 C 3,2 km/h (1 Bft)
13.08.2016 11:08 20,0 C 20,1 C 65 % 1024,8 hPa 0,0 mm 2,9 km/h (1 Bft) O-NO 67 1 min 0,000 mm 5,4 UV-I 721 W/m 13,2 C 4,8 km/h (1 Bft)
13.08.2016 11:09 19,8 C 20,0 C 67 % 1024,8 hPa 0,0 mm 4,4 km/h (1 Bft) NO 54 1 min 0,000 mm 5,4 UV-I 722 W/m 13,5 C 6,4 km/h (2 Bft)
13.08.2016 11:10 19,8 C 19,8 C 63 % 1024,8 hPa 0,0 mm 3,2 km/h (1 Bft) O-SO 109 1 min 0,000 mm 5,4 UV-I 724 W/m 12,5 C 4,8 km/h (1 Bft)
13.08.2016 11:11 19,8 C 19,9 C 67 % 1024,8 hPa 0,0 mm 5,4 km/h (1 Bft) O 82 1 min 0,000 mm 5,4 UV-I 724 W/m 13,5 C 6,4 km/h (2 Bft)
13.08.2016 11:12 19,8 C 19,8 C 64 % 1024,8 hPa 0,0 mm 4,3 km/h (1 Bft) O 98 1 min 0,000 mm 5,4 UV-I 728 W/m 12,8 C 6,4 km/h (2 Bft)
13.08.2016 11:13 19,8 C 19,8 C 66 % 1024,8 hPa 0,0 mm 3,8 km/h (1 Bft) O 88 1 min 0,000 mm 5,5 UV-I 731 W/m 13,3 C 4,8 km/h (1 Bft)
13.08.2016 11:14 20,0 C 20,0 C 72 % 1024,8 hPa 0,0 mm 3,3 km/h (1 Bft) O 89 1 min 0,000 mm 5,5 UV-I 729 W/m 14,8 C 4,8 km/h (1 Bft)
13.08.2016 11:15 20,0 C 20,1 C 64 % 1024,8 hPa 0,0 mm 1,3 km/h (1 Bft) O 89 1 min 0,000 mm 5,5 UV-I 733 W/m 13,0 C 1,6 km/h (1 Bft)
13.08.2016 11:16 20,0 C 20,0 C 66 % 1024,7 hPa 0,0 mm 1,9 km/h (1 Bft) O 86 1 min 0,000 mm 5,5 UV-I 735 W/m 13,4 C 4,8 km/h (1 Bft)
13.08.2016 11:17 19,9 C 20,0 C 66 % 1024,7 hPa 0,0 mm 3,0 km/h (1 Bft) O 86 1 min 0,000 mm 5,5 UV-I 737 W/m 13,4 C 4,8 km/h (1 Bft)
13.08.2016 11:18 19,9 C 19,9 C 66 % 1024,7 hPa 0,0 mm 2,6 km/h (1 Bft) O 86 1 min 0,000 mm 5,6 UV-I 738 W/m 13,4 C 3,2 km/h (1 Bft)
13.08.2016 11:19 20,1 C 20,1 C 69 % 1024,7 hPa 0,0 mm 2,5 km/h (1 Bft) O 86 1 min 0,000 mm 5,6 UV-I 740 W/m 14,2 C 3,2 km/h (1 Bft)
13.08.2016 11:20 20,2 C 20,2 C 71 % 1024,7 hPa 0,0 mm 2,3 km/h (1 Bft) O 86 1 min 0,000 mm 5,6 UV-I 742 W/m 14,8 C 3,2 km/h (1 Bft)
13.08.2016 11:21 20,1 C 20,2 C 64 % 1024,7 hPa 0,0 mm 1,8 km/h (1 Bft) O 86 1 min 0,000 mm 5,6 UV-I 744 W/m 13,1 C 3,2 km/h (1 Bft)
13.08.2016 11:22 20,1 C 20,2 C 65 % 1024,7 hPa 0,0 mm 1,4 km/h (1 Bft) O 86 1 min 0,000 mm 5,7 UV-I 745 W/m 13,3 C 3,2 km/h (1 Bft)
13.08.2016 11:23 20,1 C 20,1 C 65 % 1024,7 hPa 0,0 mm 1,7 km/h (1 Bft) N-NO 22 1 min 0,000 mm 5,7 UV-I 745 W/m 13,3 C 3,2 km/h (1 Bft)
13.08.2016 11:24 20,3 C 20,3 C 76 % 1024,7 hPa 0,0 mm 3,4 km/h (1 Bft) NW 321 1 min 0,000 mm 5,7 UV-I 749 W/m 15,9 C 4,8 km/h (1 Bft)
13.08.2016 11:25 20,4 C 20,4 C 76 % 1024,7 hPa 0,0 mm 5,1 km/h (1 Bft) NW 314 1 min 0,000 mm 5,7 UV-I 749 W/m 16,0 C 8,0 km/h (2 Bft)
13.08.2016 11:26 20,6 C 20,6 C 66 % 1024,7 hPa 0,0 mm 5,7 km/h (1 Bft) NW 308 1 min 0,000 mm 5,7 UV-I 751 W/m 14,0 C 8,0 km/h (2 Bft)
13.08.2016 11:27 20,7 C 20,7 C 61 % 1024,7 hPa 0,0 mm 3,6 km/h (1 Bft) NW 311 1 min 0,000 mm 5,7 UV-I 751 W/m 12,9 C 4,8 km/h (1 Bft)
13.08.2016 11:28 20,7 C 20,8 C 61 % 1024,7 hPa 0,0 mm 1,7 km/h (1 Bft) W 281 1 min 0,000 mm 5,8 UV-I 751 W/m 12,9 C 4,8 km/h (1 Bft)
13.08.2016 11:29 20,8 C 20,8 C 64 % 1024,6 hPa 0,0 mm 0,3 km/h (0 Bft) W 281 1 min 0,000 mm 5,8 UV-I 754 W/m 13,7 C 1,6 km/h (1 Bft)
13.08.2016 11:30 20,8 C 20,8 C 65 % 1024,7 hPa 0,0 mm 0,2 km/h (0 Bft) W 281 1 min 0,000 mm 5,8 UV-I 754 W/m 14,0 C 1,6 km/h (1 Bft)
13.08.2016 11:31 20,8 C 20,8 C 64 % 1024,7 hPa 0,0 mm 3,9 km/h (1 Bft) W-NW 302 1 min 0,000 mm 5,8 UV-I 756 W/m 13,7 C 6,4 km/h (2 Bft)
13.08.2016 11:32 20,8 C 20,8 C 62 % 1024,6 hPa 0,0 mm 3,6 km/h (1 Bft) W-NW 285 1 min 0,000 mm 5,8 UV-I 756 W/m 13,2 C 4,8 km/h (1 Bft)
13.08.2016 11:33 20,8 C 20,9 C 61 % 1024,6 hPa 0,0 mm 1,2 km/h (1 Bft) W-NW 285 1 min 0,000 mm 5,8 UV-I 759 W/m 13,0 C 4,8 km/h (1 Bft)
13.08.2016 11:34 20,8 C 20,8 C 65 % 1024,6 hPa 0,0 mm 1,5 km/h (1 Bft) W-NW 284 1 min 0,000 mm 5,9 UV-I 759 W/m 14,0 C 3,2 km/h (1 Bft)
13.08.2016 11:35 20,8 C 20,8 C 60 % 1024,6 hPa 0,0 mm 2,2 km/h (1 Bft) N-NW 329 1 min 0,000 mm 5,9 UV-I 761 W/m 12,7 C 4,8 km/h (1 Bft)
13.08.2016 11:36 20,9 C 20,9 C 62 % 1024,6 hPa 0,0 mm 3,7 km/h (1 Bft) N 355 1 min 0,000 mm 5,9 UV-I 763 W/m 13,3 C 6,4 km/h (2 Bft)
13.08.2016 11:37 21,1 C 21,1 C 61 % 1024,6 hPa 0,0 mm 4,4 km/h (1 Bft) W-NW 294 1 min 0,000 mm 5,9 UV-I 765 W/m 13,3 C 4,8 km/h (1 Bft)
13.08.2016 11:38 21,1 C 21,1 C 59 % 1024,6 hPa 0,0 mm 1,1 km/h (1 Bft) W-NW 294 1 min 0,000 mm 5,9 UV-I 766 W/m 12,8 C 4,8 km/h (1 Bft)
13.08.2016 11:39 21,1 C 21,1 C 59 % 1024,6 hPa 0,0 mm 0,0 km/h (0 Bft) W-NW 294 1 min 0,000 mm 6,0 UV-I 766 W/m 12,8 C 0,0 km/h (0 Bft)
13.08.2016 11:40 21,0 C 21,1 C 57 % 1024,6 hPa 0,0 mm 0,0 km/h (0 Bft) W-NW 294 1 min 0,000 mm 6,0 UV-I 768 W/m 12,1 C 0,0 km/h (0 Bft)
13.08.2016 11:41 21,0 C 21,0 C 56 % 1024,5 hPa 0,0 mm 1,4 km/h (1 Bft) W-NW 294 1 min 0,000 mm 6,0 UV-I 770 W/m 11,9 C 3,2 km/h (1 Bft)
13.08.2016 11:42 20,9 C 21,0 C 61 % 1024,5 hPa 0,0 mm 1,7 km/h (1 Bft) W 273 1 min 0,000 mm 6,0 UV-I 773 W/m 13,1 C 3,2 km/h (1 Bft)
13.08.2016 11:43 20,9 C 20,9 C 63 % 1024,5 hPa 0,0 mm 0,5 km/h (0 Bft) SW 232 1 min 0,000 mm 6,0 UV-I 773 W/m 13,6 C 3,2 km/h (1 Bft)
13.08.2016 11:44 20,8 C 20,9 C 63 % 1024,5 hPa 0,0 mm 2,9 km/h (1 Bft) S 175 1 min 0,000 mm 6,1 UV-I 775 W/m 13,5 C 4,8 km/h (1 Bft)
13.08.2016 11:45 20,9 C 20,9 C 69 % 1024,5 hPa 0,0 mm 1,0 km/h (0 Bft) S 175 1 min 0,000 mm 6,1 UV-I 777 W/m 15,0 C 1,6 km/h (1 Bft)
13.08.2016 11:46 20,7 C 20,9 C 60 % 1024,5 hPa 0,0 mm 1,1 km/h (1 Bft) S 175 1 min 0,000 mm 6,1 UV-I 777 W/m 12,7 C 1,6 km/h (1 Bft)
13.08.2016 11:47 20,6 C 20,7 C 60 % 1024,5 hPa 0,0 mm 2,1 km/h (1 Bft) S 173 1 min 0,000 mm 6,1 UV-I 780 W/m 12,6 C 3,2 km/h (1 Bft)
13.08.2016 11:48 20,4 C 20,6 C 61 % 1024,5 hPa 0,0 mm 2,2 km/h (1 Bft) S 173 1 min 0,000 mm 6,1 UV-I 780 W/m 12,6 C 3,2 km/h (1 Bft)
13.08.2016 11:49 20,3 C 20,4 C 63 % 1024,5 hPa 0,0 mm 2,1 km/h (1 Bft) S 169 1 min 0,000 mm 6,2 UV-I 782 W/m 13,0 C 3,2 km/h (1 Bft)
13.08.2016 11:50 20,4 C 20,4 C 63 % 1024,5 hPa 0,0 mm 2,5 km/h (1 Bft) S-SO 167 1 min 0,000 mm 6,2 UV-I 782 W/m 13,1 C 4,8 km/h (1 Bft)
13.08.2016 11:51 20,3 C 20,4 C 67 % 1024,5 hPa 0,0 mm 1,7 km/h (1 Bft) S-SO 150 1 min 0,000 mm 6,2 UV-I 782 W/m 14,0 C 3,2 km/h (1 Bft)
13.08.2016 11:52 20,3 C 20,3 C 65 % 1024,4 hPa 0,0 mm 5,6 km/h (1 Bft) O-NO 59 1 min 0,000 mm 6,2 UV-I 784 W/m 13,5 C 9,7 km/h (2 Bft)
13.08.2016 11:53 20,5 C 20,5 C 70 % 1024,5 hPa 0,0 mm 5,4 km/h (1 Bft) O-NO 72 1 min 0,000 mm 6,2 UV-I 786 W/m 14,8 C 8,0 km/h (2 Bft)
13.08.2016 11:54 20,6 C 20,6 C 66 % 1024,4 hPa 0,0 mm 4,1 km/h (1 Bft) O 84 1 min 0,000 mm 6,2 UV-I 788 W/m 14,0 C 4,8 km/h (1 Bft)
13.08.2016 11:55 20,7 C 20,7 C 64 % 1024,5 hPa 0,0 mm 2,8 km/h (1 Bft) O 84 1 min 0,000 mm 6,2 UV-I 789 W/m 13,6 C 4,8 km/h (1 Bft)
13.08.2016 11:56 20,7 C 20,7 C 63 % 1024,4 hPa 0,0 mm 1,5 km/h (1 Bft) NO 40 1 min 0,000 mm 6,2 UV-I 789 W/m 13,4 C 3,2 km/h (1 Bft)
13.08.2016 11:57 20,9 C 20,9 C 62 % 1024,4 hPa 0,0 mm 4,8 km/h (1 Bft) NW 311 1 min 0,000 mm 6,2 UV-I 789 W/m 13,3 C 6,4 km/h (2 Bft)
13.08.2016 11:58 21,1 C 21,1 C 62 % 1024,4 hPa 0,0 mm 2,1 km/h (1 Bft) W-NW 292 1 min 0,000 mm 6,3 UV-I 789 W/m 13,5 C 3,2 km/h (1 Bft)
13.08.2016 11:59 21,2 C 21,2 C 67 % 1024,4 hPa 0,0 mm 1,4 km/h (1 Bft) W 277 1 min 0,000 mm 6,3 UV-I 791 W/m 14,8 C 1,6 km/h (1 Bft)
13.08.2016 12:00 21,4 C 21,4 C 69 % 1024,4 hPa 0,0 mm 2,2 km/h (1 Bft) O-NO 69 1 min 0,000 mm 6,3 UV-I 793 W/m 15,5 C 8,0 km/h (2 Bft)
13.08.2016 12:01 21,3 C 21,4 C 70 % 1024,4 hPa 0,0 mm 5,8 km/h (2 Bft) NO 43 1 min 0,457 mm 6,3 UV-I 795 W/m 15,6 C 8,0 km/h (2 Bft)
13.08.2016 12:02 21,2 C 21,3 C 70 % 1024,4 hPa 0,0 mm 0,5 km/h (0 Bft) NO 43 1 min 0,000 mm 6,3 UV-I 795 W/m 15,5 C 1,6 km/h (1 Bft)
13.08.2016 12:03 21,2 C 21,2 C 66 % 1024,3 hPa 0,0 mm 2,5 km/h (1 Bft) NW 318 1 min 0,000 mm 6,3 UV-I 796 W/m 14,6 C 6,4 km/h (2 Bft)
13.08.2016 12:04 21,3 C 21,3 C 61 % 1024,4 hPa 0,0 mm 4,2 km/h (1 Bft) W-NW 298 1 min 0,000 mm 6,3 UV-I 796 W/m 13,5 C 11,3 km/h (2 Bft)
13.08.2016 12:05 21,4 C 21,4 C 60 % 1024,4 hPa 0,0 mm 5,0 km/h (1 Bft) NW 315 1 min 0,000 mm 6,4 UV-I 798 W/m 13,3 C 6,4 km/h (2 Bft)
13.08.2016 12:06 21,5 C 21,5 C 62 % 1024,3 hPa 0,0 mm 3,8 km/h (1 Bft) NW 317 1 min 0,000 mm 6,4 UV-I 800 W/m 13,9 C 6,4 km/h (2 Bft)
13.08.2016 12:07 21,6 C 21,6 C 62 % 1024,3 hPa 0,0 mm 2,8 km/h (1 Bft) W 260 1 min 0,000 mm 6,4 UV-I 800 W/m 14,0 C 4,8 km/h (1 Bft)
13.08.2016 12:08 21,6 C 21,6 C 59 % 1024,3 hPa 0,0 mm 2,6 km/h (1 Bft) W-SW 241 1 min 0,000 mm 6,4 UV-I 800 W/m 13,2 C 4,8 km/h (1 Bft)
13.08.2016 12:09 21,6 C 21,7 C 65 % 1024,3 hPa 0,0 mm 1,0 km/h (0 Bft) S-SW 194 1 min 0,000 mm 6,4 UV-I 800 W/m 14,7 C 1,6 km/h (1 Bft)
13.08.2016 12:10 21,5 C 21,6 C 61 % 1024,2 hPa 0,0 mm 4,9 km/h (1 Bft) NW 308 1 min 0,000 mm 6,4 UV-I 802 W/m 13,7 C 8,0 km/h (2 Bft)
13.08.2016 12:11 21,6 C 21,6 C 63 % 1024,3 hPa 0,0 mm 3,9 km/h (1 Bft) NW 323 1 min 0,000 mm 6,4 UV-I 803 W/m 14,2 C 6,4 km/h (2 Bft)
13.08.2016 12:12 21,6 C 21,6 C 61 % 1024,2 hPa 0,0 mm 0,3 km/h (0 Bft) NW 323 1 min 0,000 mm 6,5 UV-I 805 W/m 13,7 C 1,6 km/h (1 Bft)
13.08.2016 12:13 21,6 C 21,6 C 60 % 1024,2 hPa 0,0 mm 4,2 km/h (1 Bft) W 270 1 min 0,000 mm 6,5 UV-I 805 W/m 13,5 C 4,8 km/h (1 Bft)
13.08.2016 12:14 21,5 C 21,6 C 59 % 1024,2 hPa 0,0 mm 2,3 km/h (1 Bft) W 262 1 min 0,000 mm 6,5 UV-I 805 W/m 13,1 C 3,2 km/h (1 Bft)
13.08.2016 12:15 21,4 C 21,5 C 57 % 1024,2 hPa 0,0 mm 3,8 km/h (1 Bft) W-SW 246 1 min 0,000 mm 6,5 UV-I 807 W/m 12,5 C 4,8 km/h (1 Bft)
13.08.2016 12:16 21,4 C 21,4 C 64 % 1024,2 hPa 0,0 mm 3,2 km/h (1 Bft) W-NW 296 1 min 0,000 mm 6,5 UV-I 807 W/m 14,3 C 4,8 km/h (1 Bft)
13.08.2016 12:17 21,4 C 21,4 C 62 % 1024,2 hPa 0,0 mm 4,4 km/h (1 Bft) W-NW 302 1 min 0,000 mm 6,5 UV-I 809 W/m 13,8 C 8,0 km/h (2 Bft)
13.08.2016 12:18 21,4 C 21,5 C 60 % 1024,1 hPa 0,0 mm 5,6 km/h (1 Bft) N-NW 331 1 min 0,000 mm 6,6 UV-I 809 W/m 13,3 C 6,4 km/h (2 Bft)
13.08.2016 12:19 21,4 C 21,4 C 61 % 1024,2 hPa 0,0 mm 4,2 km/h (1 Bft) N-NW 329 1 min 0,000 mm 6,6 UV-I 812 W/m 13,6 C 6,4 km/h (2 Bft)
13.08.2016 12:20 21,5 C 21,5 C 63 % 1024,1 hPa 0,0 mm 2,9 km/h (1 Bft) N-NO 24 1 min 0,000 mm 6,6 UV-I 810 W/m 14,2 C 4,8 km/h (1 Bft)
13.08.2016 12:21 21,5 C 21,6 C 56 % 1024,1 hPa 0,0 mm 2,5 km/h (1 Bft) N-NO 24 1 min 0,000 mm 6,6 UV-I 812 W/m 12,3 C 4,8 km/h (1 Bft)
13.08.2016 12:22 21,5 C 21,5 C 60 % 1024,1 hPa 0,0 mm 0,1 km/h (0 Bft) N-NO 24 1 min 0,000 mm 6,6 UV-I 812 W/m 13,4 C 1,6 km/h (1 Bft)
13.08.2016 12:23 21,6 C 21,6 C 61 % 1024,1 hPa 0,0 mm 0,8 km/h (0 Bft) O-NO 77 1 min 0,000 mm 6,6 UV-I 814 W/m 13,7 C 3,2 km/h (1 Bft)
13.08.2016 12:24 21,5 C 21,6 C 60 % 1024,1 hPa 0,0 mm 2,3 km/h (1 Bft) N 5 1 min 0,000 mm 6,6 UV-I 814 W/m 13,4 C 3,2 km/h (1 Bft)
13.08.2016 12:25 21,6 C 21,6 C 67 % 1024,1 hPa 0,0 mm 2,7 km/h (1 Bft) NW 321 1 min 0,000 mm 6,6 UV-I 816 W/m 15,2 C 3,2 km/h (1 Bft)
13.08.2016 12:26 21,4 C 21,6 C 60 % 1024,1 hPa 0,0 mm 3,4 km/h (1 Bft) W-NW 284 1 min 0,000 mm 6,6 UV-I 817 W/m 13,3 C 4,8 km/h (1 Bft)
13.08.2016 12:27 21,4 C 21,5 C 59 % 1024,0 hPa 0,0 mm 1,1 km/h (1 Bft) N-NW 340 1 min 0,000 mm 6,7 UV-I 817 W/m 13,0 C 3,2 km/h (1 Bft)
13.08.2016 12:28 21,4 C 21,4 C 59 % 1024,1 hPa 0,0 mm 1,2 km/h (1 Bft) O-SO 114 1 min 0,000 mm 6,7 UV-I 819 W/m 13,0 C 3,2 km/h (1 Bft)
13.08.2016 12:29 21,4 C 21,4 C 62 % 1024,0 hPa 0,0 mm 3,1 km/h (1 Bft) NO 36 1 min 0,000 mm 6,7 UV-I 821 W/m 13,8 C 6,4 km/h (2 Bft)
13.08.2016 12:30 21,6 C 21,6 C 64 % 1024,0 hPa 0,0 mm 5,2 km/h (1 Bft) N-NW 346 1 min 0,000 mm 6,7 UV-I 821 W/m 14,5 C 6,4 km/h (2 Bft)
13.08.2016 12:31 21,7 C 21,7 C 62 % 1024,0 hPa 0,0 mm 3,1 km/h (1 Bft) N 355 1 min 0,000 mm 6,7 UV-I 821 W/m 14,1 C 4,8 km/h (1 Bft)
13.08.2016 12:32 21,8 C 21,8 C 64 % 1024,0 hPa 0,0 mm 6,8 km/h (2 Bft) N 11 1 min 0,000 mm 6,7 UV-I 821 W/m 14,7 C 11,3 km/h (2 Bft)
13.08.2016 12:33 21,9 C 21,9 C 58 % 1024,0 hPa 0,0 mm 8,9 km/h (2 Bft) N-NO 18 1 min 0,000 mm 6,7 UV-I 821 W/m 13,3 C 12,9 km/h (3 Bft)
13.08.2016 12:34 22,0 C 22,0 C 61 % 1024,0 hPa 0,0 mm 6,0 km/h (2 Bft) N 355 1 min 0,000 mm 6,7 UV-I 821 W/m 14,1 C 8,0 km/h (2 Bft)
13.08.2016 12:35 22,1 C 22,1 C 60 % 1024,0 hPa 0,0 mm 4,7 km/h (1 Bft) N-NO 19 1 min 0,000 mm 6,7 UV-I 821 W/m 14,0 C 6,4 km/h (2 Bft)
13.08.2016 12:36 22,1 C 22,1 C 58 % 1024,0 hPa 0,0 mm 3,8 km/h (1 Bft) N-NO 30 1 min 0,000 mm 6,7 UV-I 823 W/m 13,4 C 6,4 km/h (2 Bft)
13.08.2016 12:37 22,1 C 22,1 C 59 % 1024,0 hPa 0,0 mm 1,8 km/h (1 Bft) NO 56 1 min 0,000 mm 6,7 UV-I 823 W/m 13,7 C 4,8 km/h (1 Bft)
13.08.2016 12:38 21,9 C 22,1 C 63 % 1023,9 hPa 0,0 mm 2,6 km/h (1 Bft) N-NO 15 1 min 0,000 mm 6,7 UV-I 824 W/m 14,5 C 4,8 km/h (1 Bft)
13.08.2016 12:39 21,9 C 22,0 C 58 % 1023,9 hPa 0,0 mm 3,0 km/h (1 Bft) W-NW 303 1 min 0,000 mm 6,7 UV-I 824 W/m 13,3 C 4,8 km/h (1 Bft)
13.08.2016 12:40 22,1 C 22,1 C 65 % 1023,8 hPa 0,0 mm 2,3 km/h (1 Bft) N 360 1 min 0,000 mm 6,7 UV-I 826 W/m 15,2 C 4,8 km/h (1 Bft)
13.08.2016 12:41 21,8 C 22,1 C 65 % 1023,9 hPa 0,0 mm 0,7 km/h (0 Bft) N 360 1 min 0,000 mm 6,7 UV-I 828 W/m 14,9 C 1,6 km/h (1 Bft)
13.08.2016 12:42 21,7 C 21,8 C 60 % 1023,9 hPa 0,0 mm 1,5 km/h (1 Bft) N-NO 16 1 min 0,000 mm 6,7 UV-I 826 W/m 13,6 C 3,2 km/h (1 Bft)
13.08.2016 12:43 21,8 C 21,8 C 68 % 1023,9 hPa 0,0 mm 1,3 km/h (1 Bft) N 355 1 min 0,000 mm 6,7 UV-I 826 W/m 15,6 C 3,2 km/h (1 Bft)
13.08.2016 12:44 22,1 C 22,1 C 66 % 1023,9 hPa 0,0 mm 4,9 km/h (1 Bft) W-NW 284 1 min 0,000 mm 6,7 UV-I 828 W/m 15,4 C 11,3 km/h (2 Bft)
13.08.2016 12:45 22,1 C 22,2 C 58 % 1023,8 hPa 0,0 mm 5,2 km/h (1 Bft) W-NW 298 1 min 0,000 mm 6,8 UV-I 828 W/m 13,4 C 6,4 km/h (2 Bft)
13.08.2016 12:46 22,1 C 22,2 C 58 % 1023,9 hPa 0,0 mm 3,3 km/h (1 Bft) W 279 1 min 0,000 mm 6,8 UV-I 828 W/m 13,4 C 4,8 km/h (1 Bft)
13.08.2016 12:47 21,9 C 22,1 C 58 % 1023,9 hPa 0,0 mm 3,5 km/h (1 Bft) W-NW 296 1 min 0,000 mm 6,8 UV-I 826 W/m 13,3 C 6,4 km/h (2 Bft)
13.08.2016 12:48 21,9 C 21,9 C 61 % 1023,9 hPa 0,0 mm 3,6 km/h (1 Bft) N 350 1 min 0,000 mm 6,8 UV-I 828 W/m 14,0 C 6,4 km/h (2 Bft)
13.08.2016 12:49 21,9 C 21,9 C 60 % 1023,9 hPa 0,0 mm 2,1 km/h (1 Bft) O-NO 60 1 min 0,000 mm 6,8 UV-I 826 W/m 13,8 C 3,2 km/h (1 Bft)
13.08.2016 12:50 22,0 C 22,0 C 59 % 1023,9 hPa 0,0 mm 5,2 km/h (1 Bft) N 355 1 min 0,000 mm 6,8 UV-I 828 W/m 13,6 C 8,0 km/h (2 Bft)
13.08.2016 12:51 22,1 C 22,1 C 57 % 1023,9 hPa 0,0 mm 4,0 km/h (1 Bft) N-NO 27 1 min 0,000 mm 6,8 UV-I 826 W/m 13,2 C 8,0 km/h (2 Bft)
13.08.2016 12:52 22,2 C 22,2 C 56 % 1023,8 hPa 0,0 mm 3,5 km/h (1 Bft) N-NW 331 1 min 0,000 mm 6,8 UV-I 830 W/m 13,0 C 6,4 km/h (2 Bft)
13.08.2016 12:53 22,3 C 22,3 C 59 % 1023,8 hPa 0,0 mm 2,8 km/h (1 Bft) NW 323 1 min 0,000 mm 6,8 UV-I 830 W/m 13,9 C 4,8 km/h (1 Bft)
13.08.2016 12:54 22,3 C 22,4 C 58 % 1023,8 hPa 0,0 mm 1,7 km/h (1 Bft) NW 311 1 min 0,000 mm 6,8 UV-I 830 W/m 13,6 C 3,2 km/h (1 Bft)
13.08.2016 12:55 22,3 C 22,4 C 56 % 1023,8 hPa 0,0 mm 4,6 km/h (1 Bft) NW 309 1 min 0,000 mm 6,8 UV-I 831 W/m 13,1 C 6,4 km/h (2 Bft)
13.08.2016 12:56 22,4 C 22,4 C 57 % 1023,8 hPa 0,0 mm 2,7 km/h (1 Bft) N 355 1 min 0,000 mm 6,8 UV-I 831 W/m 13,5 C 3,2 km/h (1 Bft)
13.08.2016 12:57 22,6 C 22,6 C 57 % 1023,8 hPa 0,0 mm 3,1 km/h (1 Bft) W-NW 302 1 min 0,000 mm 6,8 UV-I 830 W/m 13,6 C 9,7 km/h (2 Bft)
13.08.2016 12:58 22,6 C 22,7 C 56 % 1023,8 hPa 0,0 mm 5,6 km/h (1 Bft) W-NW 292 1 min 0,000 mm 6,8 UV-I 831 W/m 13,4 C 8,0 km/h (2 Bft)
13.08.2016 12:59 22,5 C 22,6 C 56 % 1023,8 hPa 0,0 mm 6,8 km/h (2 Bft) N 350 1 min 0,000 mm 6,8 UV-I 833 W/m 13,3 C 12,9 km/h (3 Bft)
13.08.2016 13:00 22,4 C 22,5 C 59 % 1023,8 hPa 0,0 mm 2,5 km/h (1 Bft) W-NW 288 1 min 0,000 mm 6,8 UV-I 831 W/m 14,0 C 4,8 km/h (1 Bft)
13.08.2016 13:01 22,2 C 22,4 C 56 % 1023,8 hPa 0,0 mm 2,0 km/h (1 Bft) N-NO 23 1 min 0,508 mm 6,8 UV-I 831 W/m 13,0 C 3,2 km/h (1 Bft)
13.08.2016 13:02 22,2 C 22,2 C 56 % 1023,8 hPa 0,0 mm 5,2 km/h (1 Bft) N 355 1 min 0,000 mm 6,8 UV-I 835 W/m 13,0 C 8,0 km/h (2 Bft)
13.08.2016 13:03 22,2 C 22,3 C 54 % 1023,8 hPa 0,0 mm 2,6 km/h (1 Bft) W-NW 283 1 min 0,000 mm 6,8 UV-I 831 W/m 12,4 C 3,2 km/h (1 Bft)
13.08.2016 13:04 22,1 C 22,2 C 56 % 1023,7 hPa 0,0 mm 3,1 km/h (1 Bft) NW 309 1 min 0,000 mm 6,9 UV-I 833 W/m 12,9 C 4,8 km/h (1 Bft)
13.08.2016 13:05 22,2 C 22,2 C 61 % 1023,7 hPa 0,0 mm 4,0 km/h (1 Bft) W-NW 286 1 min 0,000 mm 6,8 UV-I 831 W/m 14,3 C 8,0 km/h (2 Bft)
13.08.2016 13:06 22,2 C 22,2 C 56 % 1023,8 hPa 0,0 mm 4,2 km/h (1 Bft) W 278 1 min 0,000 mm 6,9 UV-I 831 W/m 13,0 C 8,0 km/h (2 Bft)
13.08.2016 13:07 22,2 C 22,2 C 57 % 1023,8 hPa 0,0 mm 3,3 km/h (1 Bft) W-NW 290 1 min 0,000 mm 6,9 UV-I 830 W/m 13,3 C 4,8 km/h (1 Bft)
13.08.2016 13:08 22,2 C 22,2 C 58 % 1023,7 hPa 0,0 mm 3,2 km/h (1 Bft) W-NW 301 1 min 0,000 mm 6,9 UV-I 830 W/m 13,5 C 8,0 km/h (2 Bft)
13.08.2016 13:09 22,3 C 22,3 C 56 % 1023,8 hPa 0,0 mm 6,0 km/h (2 Bft) N 355 1 min 0,000 mm 6,9 UV-I 831 W/m 13,1 C 8,0 km/h (2 Bft)
13.08.2016 13:10 22,3 C 22,3 C 60 % 1023,7 hPa 0,0 mm 5,8 km/h (2 Bft) N-NW 343 1 min 0,000 mm 6,8 UV-I 830 W/m 14,2 C 6,4 km/h (2 Bft)
13.08.2016 13:11 22,3 C 22,3 C 58 % 1023,8 hPa 0,0 mm 3,9 km/h (1 Bft) N 5 1 min 0,000 mm 6,9 UV-I 830 W/m 13,6 C 4,8 km/h (1 Bft)
13.08.2016 13:12 22,4 C 22,4 C 60 % 1023,7 hPa 0,0 mm 4,2 km/h (1 Bft) W-NW 291 1 min 0,000 mm 6,9 UV-I 831 W/m 14,2 C 6,4 km/h (2 Bft)
13.08.2016 13:13 22,4 C 22,4 C 58 % 1023,8 hPa 0,0 mm 3,6 km/h (1 Bft) W-NW 301 1 min 0,000 mm 6,9 UV-I 831 W/m 13,7 C 6,4 km/h (2 Bft)
13.08.2016 13:14 22,6 C 22,6 C 61 % 1023,8 hPa 0,0 mm 3,3 km/h (1 Bft) N-NW 327 1 min 0,000 mm 6,9 UV-I 831 W/m 14,7 C 4,8 km/h (1 Bft)
13.08.2016 13:15 22,6 C 22,6 C 59 % 1023,8 hPa 0,0 mm 1,4 km/h (1 Bft) N-NW 327 1 min 0,000 mm 6,9 UV-I 835 W/m 14,2 C 3,2 km/h (1 Bft)
13.08.2016 13:16 22,7 C 22,7 C 61 % 1023,8 hPa 0,0 mm 2,7 km/h (1 Bft) NW 306 1 min 0,000 mm 6,9 UV-I 833 W/m 14,8 C 4,8 km/h (1 Bft)
13.08.2016 13:17 22,8 C 22,8 C 63 % 1023,8 hPa 0,0 mm 1,1 km/h (1 Bft) NW 306 1 min 0,000 mm 6,9 UV-I 831 W/m 15,4 C 3,2 km/h (1 Bft)
13.08.2016 13:18 22,9 C 22,9 C 63 % 1023,8 hPa 0,0 mm 0,0 km/h (0 Bft) NW 307 1 min 0,000 mm 6,9 UV-I 830 W/m 15,5 C 0,0 km/h (0 Bft)
13.08.2016 13:19 22,9 C 22,9 C 59 % 1023,8 hPa 0,0 mm 3,8 km/h (1 Bft) N-NW 329 1 min 0,000 mm 6,9 UV-I 831 W/m 14,5 C 6,4 km/h (2 Bft)
13.08.2016 13:20 22,8 C 22,9 C 55 % 1023,8 hPa 0,0 mm 3,3 km/h (1 Bft) W-NW 294 1 min 0,000 mm 6,9 UV-I 831 W/m 13,3 C 4,8 km/h (1 Bft)
13.08.2016 13:21 22,6 C 22,8 C 55 % 1023,8 hPa 0,0 mm 4,8 km/h (1 Bft) NW 325 1 min 0,000 mm 6,9 UV-I 833 W/m 13,1 C 6,4 km/h (2 Bft)
13.08.2016 13:22 22,6 C 22,6 C 57 % 1023,8 hPa 0,0 mm 5,6 km/h (1 Bft) NW 311 1 min 0,000 mm 6,9 UV-I 833 W/m 13,6 C 9,7 km/h (2 Bft)
13.08.2016 13:23 22,7 C 22,7 C 60 % 1023,8 hPa 0,0 mm 6,8 km/h (2 Bft) NW 317 1 min 0,000 mm 6,9 UV-I 833 W/m 14,5 C 11,3 km/h (2 Bft)
13.08.2016 13:24 22,7 C 22,7 C 57 % 1023,8 hPa 0,0 mm 5,8 km/h (2 Bft) NW 312 1 min 0,000 mm 6,9 UV-I 833 W/m 13,7 C 8,0 km/h (2 Bft)
13.08.2016 13:25 22,6 C 22,7 C 57 % 1023,8 hPa 0,0 mm 5,2 km/h (1 Bft) N 5 1 min 0,000 mm 6,9 UV-I 835 W/m 13,6 C 11,3 km/h (2 Bft)
13.08.2016 13:26 22,6 C 22,6 C 58 % 1023,9 hPa 0,0 mm 2,9 km/h (1 Bft) O-NO 57 1 min 0,000 mm 6,9 UV-I 831 W/m 13,9 C 4,8 km/h (1 Bft)
13.08.2016 13:27 22,6 C 22,6 C 60 % 1023,8 hPa 0,0 mm 3,4 km/h (1 Bft) NW 323 1 min 0,000 mm 6,9 UV-I 831 W/m 14,4 C 6,4 km/h (2 Bft)
13.08.2016 13:28 22,6 C 22,6 C 55 % 1023,8 hPa 0,0 mm 4,3 km/h (1 Bft) W-NW 296 1 min 0,000 mm 6,9 UV-I 831 W/m 13,1 C 12,9 km/h (3 Bft)
13.08.2016 13:29 22,6 C 22,6 C 58 % 1023,8 hPa 0,0 mm 6,5 km/h (2 Bft) W-NW 301 1 min 0,000 mm 6,9 UV-I 831 W/m 13,9 C 12,9 km/h (3 Bft)
13.08.2016 13:30 22,7 C 22,7 C 58 % 1023,9 hPa 0,0 mm 6,1 km/h (2 Bft) W-NW 291 1 min 0,000 mm 6,9 UV-I 831 W/m 14,0 C 8,0 km/h (2 Bft)
13.08.2016 13:31 22,6 C 22,7 C 58 % 1023,9 hPa 0,0 mm 5,6 km/h (1 Bft) W-NW 288 1 min 0,000 mm 6,9 UV-I 831 W/m 13,9 C 9,7 km/h (2 Bft)
13.08.2016 13:32 22,6 C 22,6 C 60 % 1023,9 hPa 0,0 mm 5,4 km/h (1 Bft) W-SW 241 1 min 0,000 mm 6,9 UV-I 831 W/m 14,4 C 6,4 km/h (2 Bft)
13.08.2016 13:33 22,4 C 22,6 C 57 % 1023,8 hPa 0,0 mm 6,0 km/h (2 Bft) NW 319 1 min 0,000 mm 6,9 UV-I 830 W/m 13,5 C 9,7 km/h (2 Bft)
13.08.2016 13:34 22,4 C 22,4 C 58 % 1023,9 hPa 0,0 mm 9,6 km/h (2 Bft) NW 324 1 min 0,000 mm 6,8 UV-I 830 W/m 13,7 C 12,9 km/h (3 Bft)
13.08.2016 13:35 22,4 C 22,4 C 60 % 1023,8 hPa 0,0 mm 6,1 km/h (2 Bft) NW 307 1 min 0,000 mm 6,8 UV-I 830 W/m 14,2 C 8,0 km/h (2 Bft)
13.08.2016 13:36 22,4 C 22,4 C 56 % 1023,9 hPa 0,0 mm 4,0 km/h (1 Bft) W-NW 303 1 min 0,000 mm 6,8 UV-I 830 W/m 13,2 C 6,4 km/h (2 Bft)
13.08.2016 13:37 22,4 C 22,4 C 56 % 1023,9 hPa 0,0 mm 2,2 km/h (1 Bft) N-NW 348 1 min 0,000 mm 6,8 UV-I 830 W/m 13,2 C 3,2 km/h (1 Bft)
13.08.2016 13:38 22,4 C 22,4 C 55 % 1023,8 hPa 0,0 mm 1,4 km/h (1 Bft) NO 52 1 min 0,000 mm 6,8 UV-I 828 W/m 12,9 C 3,2 km/h (1 Bft)
13.08.2016 13:39 22,3 C 22,4 C 59 % 1023,8 hPa 0,0 mm 2,0 km/h (1 Bft) O-SO 110 1 min 0,000 mm 6,8 UV-I 828 W/m 13,9 C 3,2 km/h (1 Bft)
13.08.2016 13:40 22,3 C 22,3 C 56 % 1023,7 hPa 0,0 mm 1,9 km/h (1 Bft) O-SO 119 1 min 0,000 mm 6,8 UV-I 828 W/m 13,1 C 3,2 km/h (1 Bft)
13.08.2016 13:41 22,3 C 22,3 C 55 % 1023,7 hPa 0,0 mm 1,9 km/h (1 Bft) O-SO 119 1 min 0,000 mm 6,8 UV-I 828 W/m 12,8 C 3,2 km/h (1 Bft)
13.08.2016 13:42 22,2 C 22,3 C 60 % 1023,7 hPa 0,0 mm 1,1 km/h (1 Bft) N-NO 13 1 min 0,000 mm 6,8 UV-I 828 W/m 14,1 C 3,2 km/h (1 Bft)
13.08.2016 13:43 22,3 C 22,3 C 64 % 1023,7 hPa 0,0 mm 3,6 km/h (1 Bft) N-NO 13 1 min 0,000 mm 6,8 UV-I 828 W/m 15,2 C 4,8 km/h (1 Bft)
13.08.2016 13:44 22,3 C 22,3 C 64 % 1023,7 hPa 0,0 mm 3,7 km/h (1 Bft) N-NO 23 1 min 0,000 mm 6,8 UV-I 828 W/m 15,2 C 6,4 km/h (2 Bft)
13.08.2016 13:45 22,3 C 22,3 C 57 % 1023,7 hPa 0,0 mm 2,5 km/h (1 Bft) N 11 1 min 0,000 mm 6,8 UV-I 826 W/m 13,4 C 4,8 km/h (1 Bft)
13.08.2016 13:46 22,6 C 22,6 C 59 % 1023,7 hPa 0,0 mm 3,9 km/h (1 Bft) N-NW 343 1 min 0,000 mm 6,8 UV-I 823 W/m 14,2 C 4,8 km/h (1 Bft)
13.08.2016 13:47 22,8 C 22,8 C 59 % 1023,7 hPa 0,0 mm 4,8 km/h (1 Bft) NW 325 1 min 0,000 mm 6,8 UV-I 826 W/m 14,4 C 6,4 km/h (2 Bft)
13.08.2016 13:48 22,9 C 22,9 C 59 % 1023,8 hPa 0,0 mm 5,5 km/h (1 Bft) NW 306 1 min 0,000 mm 6,8 UV-I 824 W/m 14,5 C 9,7 km/h (2 Bft)
13.08.2016 13:49 23,0 C 23,0 C 60 % 1023,8 hPa 0,0 mm 6,2 km/h (2 Bft) W-NW 297 1 min 0,000 mm 6,8 UV-I 824 W/m 14,8 C 11,3 km/h (2 Bft)
13.08.2016 13:50 22,9 C 23,0 C 59 % 1023,8 hPa 0,0 mm 4,0 km/h (1 Bft) N 355 1 min 0,000 mm 6,8 UV-I 823 W/m 14,5 C 6,4 km/h (2 Bft)
13.08.2016 13:51 22,8 C 22,9 C 57 % 1023,8 hPa 0,0 mm 3,8 km/h (1 Bft) N 350 1 min 0,000 mm 6,8 UV-I 824 W/m 13,8 C 6,4 km/h (2 Bft)
13.08.2016 13:52 22,9 C 22,9 C 59 % 1023,8 hPa 0,0 mm 3,7 km/h (1 Bft) W-NW 294 1 min 0,000 mm 6,8 UV-I 821 W/m 14,5 C 8,0 km/h (2 Bft)
13.08.2016 13:53 23,0 C 23,0 C 61 % 1023,8 hPa 0,0 mm 4,7 km/h (1 Bft) N 355 1 min 0,000 mm 6,7 UV-I 824 W/m 15,1 C 6,4 km/h (2 Bft)
13.08.2016 13:54 23,0 C 23,0 C 57 % 1023,8 hPa 0,0 mm 7,8 km/h (2 Bft) N-NO 15 1 min 0,000 mm 6,7 UV-I 819 W/m 14,0 C 14,5 km/h (3 Bft)
13.08.2016 13:55 23,0 C 23,0 C 59 % 1023,9 hPa 0,0 mm 7,3 km/h (2 Bft) N 349 1 min 0,000 mm 6,7 UV-I 821 W/m 14,5 C 12,9 km/h (3 Bft)
13.08.2016 13:56 22,9 C 23,0 C 56 % 1023,8 hPa 0,0 mm 3,2 km/h (1 Bft) N 360 1 min 0,000 mm 6,7 UV-I 817 W/m 13,6 C 6,4 km/h (2 Bft)
13.08.2016 13:57 22,8 C 22,9 C 56 % 1023,8 hPa 0,0 mm 1,3 km/h (1 Bft) N-NO 27 1 min 0,000 mm 6,7 UV-I 817 W/m 13,6 C 3,2 km/h (1 Bft)
13.08.2016 13:58 22,8 C 22,8 C 58 % 1023,8 hPa 0,0 mm 4,2 km/h (1 Bft) N 11 1 min 0,000 mm 6,7 UV-I 816 W/m 14,1 C 6,4 km/h (2 Bft)
13.08.2016 13:59 22,9 C 22,9 C 58 % 1023,8 hPa 0,0 mm 8,4 km/h (2 Bft) NW 314 1 min 0,000 mm 6,7 UV-I 817 W/m 14,2 C 12,9 km/h (3 Bft)
13.08.2016 14:00 22,9 C 22,9 C 58 % 1023,8 hPa 0,0 mm 8,1 km/h (2 Bft) N-NW 327 1 min 0,534 mm 6,7 UV-I 816 W/m 14,2 C 12,9 km/h (3 Bft)
13.08.2016 14:01 23,0 C 23,0 C 61 % 1023,8 hPa 0,0 mm 5,9 km/h (2 Bft) N 5 1 min 0,000 mm 6,7 UV-I 816 W/m 15,1 C 12,9 km/h (3 Bft)
13.08.2016 14:02 23,1 C 23,1 C 57 % 1023,8 hPa 0,0 mm 8,6 km/h (2 Bft) N 355 1 min 0,000 mm 6,7 UV-I 817 W/m 14,1 C 12,9 km/h (3 Bft)
13.08.2016 14:03 23,1 C 23,1 C 56 % 1023,8 hPa 0,0 mm 6,4 km/h (2 Bft) NW 322 1 min 0,000 mm 6,7 UV-I 817 W/m 13,8 C 9,7 km/h (2 Bft)
13.08.2016 14:04 23,1 C 23,1 C 56 % 1023,7 hPa 0,0 mm 6,8 km/h (2 Bft) O-NO 57 1 min 0,000 mm 6,7 UV-I 817 W/m 13,8 C 12,9 km/h (3 Bft)
13.08.2016 14:05 23,1 C 23,2 C 55 % 1023,8 hPa 0,0 mm 2,7 km/h (1 Bft) N 5 1 min 0,000 mm 6,6 UV-I 816 W/m 13,6 C 6,4 km/h (2 Bft)
13.08.2016 14:06 23,0 C 23,1 C 57 % 1023,7 hPa 0,0 mm 5,6 km/h (1 Bft) W-NW 302 1 min 0,000 mm 6,6 UV-I 814 W/m 14,0 C 9,7 km/h (2 Bft)
13.08.2016 14:07 23,0 C 23,0 C 58 % 1023,8 hPa 0,0 mm 8,0 km/h (2 Bft) NW 319 1 min 0,000 mm 6,6 UV-I 812 W/m 14,3 C 14,5 km/h (3 Bft)
13.08.2016 14:08 22,9 C 23,0 C 55 % 1023,8 hPa 0,0 mm 3,3 km/h (1 Bft) N-NW 338 1 min 0,000 mm 6,6 UV-I 812 W/m 13,4 C 6,4 km/h (2 Bft)
13.08.2016 14:09 22,8 C 22,9 C 60 % 1023,7 hPa 0,0 mm 1,1 km/h (1 Bft) W-SW 252 1 min 0,000 mm 6,6 UV-I 810 W/m 14,6 C 3,2 km/h (1 Bft)
13.08.2016 14:10 22,8 C 22,8 C 56 % 1023,7 hPa 0,0 mm 0,7 km/h (0 Bft) W-SW 252 1 min 0,000 mm 6,6 UV-I 810 W/m 13,6 C 3,2 km/h (1 Bft)
13.08.2016 14:11 22,8 C 22,8 C 61 % 1023,7 hPa 0,0 mm 5,2 km/h (1 Bft) NO 40 1 min 0,000 mm 6,6 UV-I 817 W/m 14,9 C 8,0 km/h (2 Bft)
13.08.2016 14:12 22,8 C 22,8 C 61 % 1023,6 hPa 0,0 mm 3,4 km/h (1 Bft) NO 40 1 min 0,000 mm 6,7 UV-I 828 W/m 14,9 C 8,0 km/h (2 Bft)
13.08.2016 14:13 22,7 C 22,8 C 59 % 1023,6 hPa 0,0 mm 1,5 km/h (1 Bft) NO 40 1 min 0,000 mm 6,6 UV-I 824 W/m 14,3 C 3,2 km/h (1 Bft)
13.08.2016 14:14 22,7 C 22,7 C 60 % 1023,7 hPa 0,0 mm 1,9 km/h (1 Bft) N-NO 30 1 min 0,000 mm 6,6 UV-I 810 W/m 14,5 C 3,2 km/h (1 Bft)
13.08.2016 14:15 22,8 C 22,8 C 58 % 1023,6 hPa 0,0 mm 0,3 km/h (0 Bft) N-NO 30 1 min 0,000 mm 6,5 UV-I 809 W/m 14,1 C 1,6 km/h (1 Bft)
13.08.2016 14:16 22,9 C 22,9 C 62 % 1023,6 hPa 0,0 mm 1,1 km/h (1 Bft) O-NO 67 1 min 0,000 mm 6,6 UV-I 807 W/m 15,2 C 4,8 km/h (1 Bft)
13.08.2016 14:17 22,9 C 23,0 C 58 % 1023,6 hPa 0,0 mm 3,6 km/h (1 Bft) O 81 1 min 0,000 mm 6,6 UV-I 817 W/m 14,2 C 4,8 km/h (1 Bft)
13.08.2016 14:18 23,1 C 23,1 C 58 % 1023,6 hPa 0,0 mm 4,4 km/h (1 Bft) N 355 1 min 0,000 mm 6,6 UV-I 833 W/m 14,4 C 6,4 km/h (2 Bft)
13.08.2016 14:19 23,3 C 23,3 C 57 % 1023,6 hPa 0,0 mm 5,6 km/h (1 Bft) NO 53 1 min 0,000 mm 6,7 UV-I 842 W/m 14,3 C 8,0 km/h (2 Bft)
13.08.2016 14:20 23,2 C 23,3 C 56 % 1023,5 hPa 0,0 mm 4,3 km/h (1 Bft) N 350 1 min 0,000 mm 6,7 UV-I 823 W/m 13,9 C 8,0 km/h (2 Bft)
13.08.2016 14:21 23,3 C 23,3 C 57 % 1023,6 hPa 0,0 mm 7,0 km/h (2 Bft) N 5 1 min 0,000 mm 6,5 UV-I 809 W/m 14,3 C 11,3 km/h (2 Bft)
13.08.2016 14:22 23,3 C 23,3 C 59 % 1023,6 hPa 0,0 mm 5,5 km/h (1 Bft) NW 325 1 min 0,000 mm 6,5 UV-I 802 W/m 14,8 C 11,3 km/h (2 Bft)
13.08.2016 14:23 23,3 C 23,3 C 58 % 1023,5 hPa 0,0 mm 7,6 km/h (2 Bft) N 351 1 min 0,000 mm 6,5 UV-I 800 W/m 14,6 C 11,3 km/h (2 Bft)
13.08.2016 14:24 23,3 C 23,3 C 57 % 1023,5 hPa 0,0 mm 3,6 km/h (1 Bft) N-NO 19 1 min 0,000 mm 6,5 UV-I 800 W/m 14,3 C 8,0 km/h (2 Bft)
13.08.2016 14:25 23,2 C 23,3 C 54 % 1023,5 hPa 0,0 mm 3,7 km/h (1 Bft) O-NO 71 1 min 0,000 mm 6,5 UV-I 800 W/m 13,4 C 4,8 km/h (1 Bft)
13.08.2016 14:26 23,1 C 23,2 C 56 % 1023,4 hPa 0,0 mm 2,8 km/h (1 Bft) NO 42 1 min 0,000 mm 6,5 UV-I 800 W/m 13,8 C 6,4 km/h (2 Bft)
13.08.2016 14:27 23,1 C 23,1 C 56 % 1023,4 hPa 0,0 mm 1,8 km/h (1 Bft) NO 42 1 min 0,000 mm 6,4 UV-I 800 W/m 13,8 C 4,8 km/h (1 Bft)
13.08.2016 14:28 23,2 C 23,2 C 61 % 1023,4 hPa 0,0 mm 5,1 km/h (1 Bft) N-NW 345 1 min 0,000 mm 6,4 UV-I 798 W/m 15,3 C 12,9 km/h (3 Bft)
13.08.2016 14:29 23,2 C 23,2 C 57 % 1023,4 hPa 0,0 mm 4,1 km/h (1 Bft) NW 304 1 min 0,000 mm 6,4 UV-I 796 W/m 14,2 C 8,0 km/h (2 Bft)
13.08.2016 14:30 23,1 C 23,2 C 56 % 1023,4 hPa 0,0 mm 4,1 km/h (1 Bft) W-NW 296 1 min 0,000 mm 6,4 UV-I 795 W/m 13,8 C 11,3 km/h (2 Bft)
13.08.2016 14:31 23,0 C 23,1 C 60 % 1023,4 hPa 0,0 mm 7,0 km/h (2 Bft) N 360 1 min 0,000 mm 6,4 UV-I 791 W/m 14,8 C 11,3 km/h (2 Bft)
13.08.2016 14:32 23,2 C 23,2 C 60 % 1023,4 hPa 0,0 mm 4,8 km/h (1 Bft) N-NW 348 1 min 0,000 mm 6,3 UV-I 789 W/m 15,0 C 8,0 km/h (2 Bft)
13.08.2016 14:33 23,3 C 23,3 C 59 % 1023,4 hPa 0,0 mm 2,5 km/h (1 Bft) W-NW 298 1 min 0,000 mm 6,3 UV-I 789 W/m 14,8 C 6,4 km/h (2 Bft)
13.08.2016 14:34 23,2 C 23,3 C 57 % 1023,4 hPa 0,0 mm 8,2 km/h (2 Bft) W 266 1 min 0,000 mm 6,3 UV-I 788 W/m 14,2 C 11,3 km/h (2 Bft)
13.08.2016 14:35 23,1 C 23,2 C 57 % 1023,4 hPa 0,0 mm 6,4 km/h (2 Bft) W-NW 294 1 min 0,000 mm 6,3 UV-I 788 W/m 14,1 C 9,7 km/h (2 Bft)
13.08.2016 14:36 22,9 C 23,1 C 55 % 1023,3 hPa 0,0 mm 7,6 km/h (2 Bft) N-NW 337 1 min 0,000 mm 6,3 UV-I 786 W/m 13,4 C 11,3 km/h (2 Bft)
13.08.2016 14:37 22,9 C 22,9 C 58 % 1023,4 hPa 0,0 mm 5,8 km/h (2 Bft) N-NW 344 1 min 0,000 mm 6,3 UV-I 784 W/m 14,2 C 8,0 km/h (2 Bft)
13.08.2016 14:38 22,9 C 22,9 C 59 % 1023,3 hPa 0,0 mm 2,6 km/h (1 Bft) N-NW 340 1 min 0,000 mm 6,3 UV-I 782 W/m 14,5 C 4,8 km/h (1 Bft)
13.08.2016 14:39 23,0 C 23,0 C 57 % 1023,3 hPa 0,0 mm 1,5 km/h (1 Bft) N-NW 341 1 min 0,000 mm 6,2 UV-I 780 W/m 14,0 C 3,2 km/h (1 Bft)
13.08.2016 14:40 23,1 C 23,1 C 59 % 1023,3 hPa 0,0 mm 6,3 km/h (2 Bft) N-NW 342 1 min 0,000 mm 6,2 UV-I 779 W/m 14,6 C 9,7 km/h (2 Bft)
13.08.2016 14:41 23,1 C 23,1 C 56 % 1023,4 hPa 0,0 mm 4,9 km/h (1 Bft) N-NW 333 1 min 0,000 mm 6,2 UV-I 779 W/m 13,8 C 8,0 km/h (2 Bft)
13.08.2016 14:42 23,1 C 23,1 C 56 % 1023,3 hPa 0,0 mm 3,4 km/h (1 Bft) N-NO 31 1 min 0,000 mm 6,2 UV-I 779 W/m 13,8 C 6,4 km/h (2 Bft)
13.08.2016 14:43 23,1 C 23,1 C 56 % 1023,3 hPa 0,0 mm 2,8 km/h (1 Bft) NO 37 1 min 0,000 mm 6,2 UV-I 777 W/m 13,8 C 4,8 km/h (1 Bft)
13.08.2016 14:44 23,0 C 23,1 C 57 % 1023,3 hPa 0,0 mm 2,8 km/h (1 Bft) N-NO 30 1 min 0,000 mm 6,2 UV-I 777 W/m 14,0 C 4,8 km/h (1 Bft)
13.08.2016 14:45 23,1 C 23,1 C 59 % 1023,3 hPa 0,0 mm 2,8 km/h (1 Bft) N-NO 30 1 min 0,000 mm 6,2 UV-I 775 W/m 14,6 C 3,2 km/h (1 Bft)
13.08.2016 14:46 23,2 C 23,2 C 57 % 1023,2 hPa 0,0 mm 1,1 km/h (1 Bft) N-NO 30 1 min 0,000 mm 6,2 UV-I 772 W/m 14,2 C 1,6 km/h (1 Bft)
13.08.2016 14:47 23,1 C 23,2 C 54 % 1023,2 hPa 0,0 mm 2,4 km/h (1 Bft) NW 308 1 min 0,000 mm 6,1 UV-I 772 W/m 13,3 C 3,2 km/h (1 Bft)
13.08.2016 14:48 22,9 C 23,1 C 54 % 1023,2 hPa 0,0 mm 1,3 km/h (1 Bft) NW 306 1 min 0,000 mm 6,1 UV-I 770 W/m 13,1 C 3,2 km/h (1 Bft)
13.08.2016 14:49 22,9 C 22,9 C 54 % 1023,2 hPa 0,0 mm 1,6 km/h (1 Bft) NW 306 1 min 0,000 mm 6,1 UV-I 770 W/m 13,1 C 1,6 km/h (1 Bft)
13.08.2016 15:48 23,9 C 23,9 C 54 % 1022,8 hPa 0,0 mm 5,1 km/h (1 Bft) N-NW 343 5 min 0,508 mm 4,9 UV-I 668 W/m 14,0 C 6,4 km/h (2 Bft)
13.08.2016 15:49 23,8 C 23,9 C 53 % 1022,8 hPa 0,0 mm 4,7 km/h (1 Bft) N-NO 32 1 min 0,000 mm 4,9 UV-I 666 W/m 13,6 C 8,0 km/h (2 Bft)
13.08.2016 15:50 23,8 C 23,8 C 56 % 1022,8 hPa 0,0 mm 3,4 km/h (1 Bft) O-NO 66 1 min 0,000 mm 4,9 UV-I 664 W/m 14,5 C 6,4 km/h (2 Bft)
13.08.2016 15:51 23,7 C 23,8 C 56 % 1022,8 hPa 0,0 mm 1,0 km/h (0 Bft) N-NO 30 1 min 0,000 mm 4,8 UV-I 663 W/m 14,4 C 3,2 km/h (1 Bft)
13.08.2016 15:52 23,6 C 23,7 C 56 % 1022,8 hPa 0,0 mm 3,7 km/h (1 Bft) O 83 1 min 0,000 mm 4,8 UV-I 663 W/m 14,3 C 6,4 km/h (2 Bft)
13.08.2016 15:53 23,4 C 23,6 C 55 % 1022,7 hPa 0,0 mm 3,9 km/h (1 Bft) NO 49 1 min 0,000 mm 4,8 UV-I 661 W/m 13,8 C 6,4 km/h (2 Bft)
13.08.2016 15:54 23,4 C 23,4 C 56 % 1022,7 hPa 0,0 mm 1,9 km/h (1 Bft) NO 47 1 min 0,000 mm 4,8 UV-I 657 W/m 14,1 C 3,2 km/h (1 Bft)
13.08.2016 15:55 23,4 C 23,4 C 59 % 1022,7 hPa 0,0 mm 1,0 km/h (0 Bft) N 10 1 min 0,000 mm 4,8 UV-I 656 W/m 14,9 C 3,2 km/h (1 Bft)
13.08.2016 15:56 23,4 C 23,4 C 60 % 1022,7 hPa 0,0 mm 6,8 km/h (2 Bft) N-NW 342 1 min 0,000 mm 4,7 UV-I 652 W/m 15,2 C 9,7 km/h (2 Bft)
13.08.2016 15:57 23,4 C 23,4 C 56 % 1022,7 hPa 0,0 mm 5,1 km/h (1 Bft) W 281 1 min 0,000 mm 4,7 UV-I 652 W/m 14,1 C 9,7 km/h (2 Bft)
13.08.2016 15:58 23,4 C 23,4 C 55 % 1022,7 hPa 0,0 mm 5,9 km/h (2 Bft) W 263 1 min 0,000 mm 4,7 UV-I 650 W/m 13,8 C 9,7 km/h (2 Bft)
13.08.2016 15:59 23,3 C 23,4 C 54 % 1022,7 hPa 0,0 mm 2,4 km/h (1 Bft) W-NW 295 1 min 0,000 mm 4,7 UV-I 650 W/m 13,5 C 4,8 km/h (1 Bft)
13.08.2016 16:00 23,3 C 23,3 C 55 % 1022,8 hPa 0,0 mm 1,6 km/h (1 Bft) W-NW 295 1 min 0,000 mm 4,7 UV-I 647 W/m 13,7 C 3,2 km/h (1 Bft)
13.08.2016 16:01 23,3 C 23,3 C 57 % 1022,7 hPa 0,0 mm 2,5 km/h (1 Bft) NW 308 1 min 0,457 mm 4,6 UV-I 645 W/m 14,3 C 4,8 km/h (1 Bft)
13.08.2016 16:02 23,2 C 23,3 C 58 % 1022,7 hPa 0,0 mm 5,2 km/h (1 Bft) N-NW 329 1 min 0,000 mm 4,6 UV-I 643 W/m 14,5 C 8,0 km/h (2 Bft)
13.08.2016 16:03 23,3 C 23,3 C 58 % 1022,8 hPa 0,0 mm 6,0 km/h (2 Bft) NW 323 1 min 0,000 mm 4,6 UV-I 642 W/m 14,6 C 9,7 km/h (2 Bft)
13.08.2016 16:04 23,3 C 23,3 C 55 % 1022,7 hPa 0,0 mm 5,7 km/h (1 Bft) NW 320 1 min 0,000 mm 4,6 UV-I 640 W/m 13,7 C 11,3 km/h (2 Bft)
13.08.2016 16:05 23,3 C 23,3 C 54 % 1022,7 hPa 0,0 mm 2,5 km/h (1 Bft) W-SW 240 1 min 0,000 mm 4,5 UV-I 635 W/m 13,5 C 3,2 km/h (1 Bft)
13.08.2016 16:06 23,4 C 23,4 C 55 % 1022,7 hPa 0,0 mm 2,0 km/h (1 Bft) NW 309 1 min 0,000 mm 4,5 UV-I 633 W/m 13,8 C 4,8 km/h (1 Bft)
13.08.2016 16:07 23,4 C 23,4 C 56 % 1022,7 hPa 0,0 mm 4,2 km/h (1 Bft) N-NW 334 1 min 0,000 mm 4,5 UV-I 629 W/m 14,1 C 6,4 km/h (2 Bft)
13.08.2016 16:08 23,4 C 23,4 C 60 % 1022,7 hPa 0,0 mm 2,0 km/h (1 Bft) NO 35 1 min 0,000 mm 4,5 UV-I 628 W/m 15,2 C 3,2 km/h (1 Bft)
13.08.2016 16:09 23,5 C 23,5 C 56 % 1022,7 hPa 0,0 mm 5,2 km/h (1 Bft) NW 323 1 min 0,000 mm 4,4 UV-I 624 W/m 14,2 C 8,0 km/h (2 Bft)
13.08.2016 16:10 23,6 C 23,6 C 56 % 1022,7 hPa 0,0 mm 8,4 km/h (2 Bft) N-NW 339 1 min 0,000 mm 4,4 UV-I 622 W/m 14,3 C 12,9 km/h (3 Bft)
13.08.2016 16:11 23,7 C 23,7 C 54 % 1022,7 hPa 0,0 mm 4,6 km/h (1 Bft) N-NO 23 1 min 0,000 mm 4,4 UV-I 619 W/m 13,8 C 9,7 km/h (2 Bft)
13.08.2016 16:12 23,7 C 23,7 C 55 % 1022,7 hPa 0,0 mm 10,0 km/h (2 Bft) N 360 1 min 0,000 mm 4,3 UV-I 617 W/m 14,1 C 14,5 km/h (3 Bft)
13.08.2016 16:13 23,7 C 23,7 C 55 % 1022,7 hPa 0,0 mm 8,0 km/h (2 Bft) N-NW 348 1 min 0,000 mm 4,3 UV-I 617 W/m 14,1 C 12,9 km/h (3 Bft)
13.08.2016 16:14 23,7 C 23,7 C 57 % 1022,8 hPa 0,0 mm 6,0 km/h (2 Bft) W-NW 293 1 min 0,000 mm 4,3 UV-I 615 W/m 14,7 C 8,0 km/h (2 Bft)
13.08.2016 16:15 23,7 C 23,7 C 54 % 1022,7 hPa 0,0 mm 4,5 km/h (1 Bft) W 269 1 min 0,000 mm 4,3 UV-I 613 W/m 13,8 C 6,4 km/h (2 Bft)
13.08.2016 16:16 23,6 C 23,7 C 54 % 1022,7 hPa 0,0 mm 3,9 km/h (1 Bft) W 281 1 min 0,000 mm 4,1 UV-I 578 W/m 13,7 C 6,4 km/h (2 Bft)
13.08.2016 16:17 23,4 C 23,6 C 53 % 1022,7 hPa 0,0 mm 2,4 km/h (1 Bft) O-NO 63 1 min 0,000 mm 2,9 UV-I 578 W/m 13,3 C 4,8 km/h (1 Bft)
13.08.2016 16:18 23,3 C 23,4 C 54 % 1022,7 hPa 0,0 mm 5,6 km/h (1 Bft) N 11 0 min 0,000 mm 1,9 UV-I 62 W/m 13,5 C 8,0 km/h (2 Bft)
13.08.2016 16:19 23,3 C 23,3 C 54 % 1022,7 hPa 0,0 mm 3,8 km/h (1 Bft) N-NW 342 0 min 0,000 mm 0,0 UV-I 42 W/m 13,5 C 6,4 km/h (2 Bft)
13.08.2016 16:20 23,3 C 23,3 C 56 % 1022,7 hPa 0,0 mm 4,3 km/h (1 Bft) NW 321 0 min 0,000 mm 0,0 UV-I 49 W/m 14,0 C 4,8 km/h (1 Bft)
13.08.2016 16:21 23,3 C 23,3 C 56 % 1022,7 hPa 0,0 mm 4,9 km/h (1 Bft) N-NW 344 0 min 0,000 mm 1,9 UV-I 60 W/m 14,0 C 6,4 km/h (2 Bft)
13.08.2016 16:22 23,4 C 23,4 C 58 % 1022,6 hPa 0,0 mm 3,4 km/h (1 Bft) NO 46 0 min 0,000 mm 0,0 UV-I 51 W/m 14,7 C 6,4 km/h (2 Bft)
13.08.2016 16:23 23,4 C 23,4 C 55 % 1022,7 hPa 0,0 mm 3,8 km/h (1 Bft) O-NO 66 0 min 0,000 mm 0,0 UV-I 40 W/m 13,8 C 6,4 km/h (2 Bft)
13.08.2016 16:24 23,4 C 23,4 C 54 % 1022,6 hPa 0,0 mm 3,7 km/h (1 Bft) N-NW 335 0 min 0,000 mm 0,0 UV-I 40 W/m 13,6 C 4,8 km/h (1 Bft)
13.08.2016 16:25 23,5 C 23,5 C 54 % 1022,6 hPa 0,0 mm 5,7 km/h (1 Bft) W 277 0 min 0,000 mm 0,0 UV-I 39 W/m 13,6 C 9,7 km/h (2 Bft)
13.08.2016 16:26 23,5 C 23,5 C 57 % 1022,6 hPa 0,0 mm 3,8 km/h (1 Bft) W-NW 284 0 min 0,000 mm 0,0 UV-I 39 W/m 14,5 C 6,4 km/h (2 Bft)
13.08.2016 16:27 23,4 C 23,5 C 57 % 1022,7 hPa 0,0 mm 4,5 km/h (1 Bft) NW 319 0 min 0,000 mm 0,0 UV-I 39 W/m 14,4 C 6,4 km/h (2 Bft)
13.08.2016 16:28 23,4 C 23,4 C 57 % 1022,6 hPa 0,0 mm 6,7 km/h (2 Bft) W 275 0 min 0,000 mm 0,0 UV-I 39 W/m 14,4 C 14,5 km/h (3 Bft)
13.08.2016 16:29 23,4 C 23,4 C 56 % 1022,6 hPa 0,0 mm 3,7 km/h (1 Bft) NW 313 0 min 0,000 mm 0,0 UV-I 40 W/m 14,1 C 4,8 km/h (1 Bft)
13.08.2016 16:30 23,3 C 23,4 C 56 % 1022,7 hPa 0,0 mm 5,3 km/h (1 Bft) W-NW 301 0 min 0,000 mm 0,0 UV-I 44 W/m 14,0 C 8,0 km/h (2 Bft)
13.08.2016 16:31 23,3 C 23,3 C 58 % 1022,7 hPa 0,0 mm 4,7 km/h (1 Bft) N 5 0 min 0,000 mm 1,9 UV-I 74 W/m 14,6 C 8,0 km/h (2 Bft)
13.08.2016 16:32 23,4 C 23,4 C 58 % 1022,7 hPa 0,0 mm 5,5 km/h (1 Bft) N-NW 330 0 min 0,000 mm 1,9 UV-I 77 W/m 14,7 C 12,9 km/h (3 Bft)
13.08.2016 16:33 23,4 C 23,4 C 57 % 1022,7 hPa 0,0 mm 7,5 km/h (2 Bft) NW 314 0 min 0,000 mm 1,9 UV-I 56 W/m 14,4 C 11,3 km/h (2 Bft)
13.08.2016 16:34 23,4 C 23,4 C 55 % 1022,7 hPa 0,0 mm 5,5 km/h (1 Bft) NW 309 0 min 0,000 mm 0,0 UV-I 47 W/m 13,8 C 8,0 km/h (2 Bft)
13.08.2016 16:35 23,4 C 23,4 C 56 % 1022,7 hPa 0,0 mm 5,7 km/h (1 Bft) N 351 0 min 0,000 mm 0,0 UV-I 40 W/m 14,1 C 9,7 km/h (2 Bft)
13.08.2016 16:36 23,4 C 23,4 C 55 % 1022,7 hPa 0,0 mm 5,0 km/h (1 Bft) N-NW 331 0 min 0,000 mm 0,0 UV-I 40 W/m 13,8 C 8,0 km/h (2 Bft)
13.08.2016 16:37 23,4 C 23,4 C 56 % 1022,7 hPa 0,0 mm 3,3 km/h (1 Bft) N 355 0 min 0,000 mm 0,0 UV-I 40 W/m 14,1 C 6,4 km/h (2 Bft)
13.08.2016 16:38 23,4 C 23,4 C 56 % 1022,7 hPa 0,0 mm 5,8 km/h (2 Bft) NW 319 0 min 0,000 mm 0,0 UV-I 39 W/m 14,1 C 8,0 km/h (2 Bft)
13.08.2016 16:39 23,3 C 23,4 C 54 % 1022,6 hPa 0,0 mm 2,3 km/h (1 Bft) N-NW 333 0 min 0,000 mm 0,0 UV-I 39 W/m 13,5 C 6,4 km/h (2 Bft)
13.08.2016 16:40 23,3 C 23,4 C 55 % 1022,6 hPa 0,0 mm 1,7 km/h (1 Bft) O-NO 73 0 min 0,000 mm 0,0 UV-I 39 W/m 13,7 C 4,8 km/h (1 Bft)
13.08.2016 16:41 23,3 C 23,3 C 61 % 1022,6 hPa 0,0 mm 3,3 km/h (1 Bft) NO 44 0 min 0,000 mm 0,0 UV-I 39 W/m 15,3 C 4,8 km/h (1 Bft)
13.08.2016 16:42 23,3 C 23,3 C 54 % 1022,6 hPa 0,0 mm 1,5 km/h (1 Bft) NO 44 0 min 0,000 mm 0,0 UV-I 40 W/m 13,5 C 3,2 km/h (1 Bft)
13.08.2016 16:43 23,2 C 23,3 C 54 % 1022,6 hPa 0,0 mm 2,0 km/h (1 Bft) NO 46 0 min 0,000 mm 0,0 UV-I 40 W/m 13,4 C 4,8 km/h (1 Bft)
13.08.2016 16:44 23,3 C 23,3 C 57 % 1022,6 hPa 0,0 mm 2,5 km/h (1 Bft) NO 45 0 min 0,000 mm 0,0 UV-I 40 W/m 14,3 C 4,8 km/h (1 Bft)
13.08.2016 16:45 23,3 C 23,3 C 54 % 1022,6 hPa 0,0 mm 1,3 km/h (1 Bft) N-NO 22 0 min 0,000 mm 0,0 UV-I 62 W/m 13,5 C 3,2 km/h (1 Bft)
13.08.2016 16:46 23,2 C 23,3 C 56 % 1022,6 hPa 0,0 mm 1,7 km/h (1 Bft) N 5 0 min 0,000 mm 1,7 UV-I 156 W/m 13,9 C 3,2 km/h (1 Bft)
13.08.2016 16:47 23,3 C 23,3 C 57 % 1022,6 hPa 0,0 mm 1,7 km/h (1 Bft) N-NW 327 0 min 0,000 mm 1,8 UV-I 181 W/m 14,3 C 3,2 km/h (1 Bft)
13.08.2016 16:48 23,3 C 23,3 C 57 % 1022,5 hPa 0,0 mm 6,4 km/h (2 Bft) W 272 0 min 0,000 mm 1,7 UV-I 107 W/m 14,3 C 12,9 km/h (3 Bft)
13.08.2016 16:49 23,3 C 23,3 C 59 % 1022,6 hPa 0,0 mm 8,0 km/h (2 Bft) W 275 0 min 0,000 mm 1,8 UV-I 74 W/m 14,8 C 14,5 km/h (3 Bft)
13.08.2016 16:50 23,3 C 23,3 C 57 % 1022,6 hPa 0,0 mm 6,8 km/h (2 Bft) N-NW 335 0 min 0,000 mm 1,7 UV-I 67 W/m 14,3 C 8,0 km/h (2 Bft)
13.08.2016 16:51 23,4 C 23,4 C 56 % 1022,6 hPa 0,0 mm 7,1 km/h (2 Bft) N-NW 327 0 min 0,000 mm 0,0 UV-I 47 W/m 14,1 C 11,3 km/h (2 Bft)
13.08.2016 16:52 23,4 C 23,4 C 57 % 1022,6 hPa 0,0 mm 4,3 km/h (1 Bft) NW 308 0 min 0,000 mm 0,0 UV-I 46 W/m 14,4 C 8,0 km/h (2 Bft)
13.08.2016 16:53 23,4 C 23,4 C 56 % 1022,6 hPa 0,0 mm 3,6 km/h (1 Bft) W 271 0 min 0,000 mm 1,6 UV-I 58 W/m 14,1 C 6,4 km/h (2 Bft)
13.08.2016 16:54 23,4 C 23,4 C 58 % 1022,6 hPa 0,0 mm 4,0 km/h (1 Bft) W-NW 286 0 min 0,000 mm 0,0 UV-I 49 W/m 14,7 C 6,4 km/h (2 Bft)
13.08.2016 16:55 23,4 C 23,4 C 55 % 1022,6 hPa 0,0 mm 1,5 km/h (1 Bft) W-NW 286 0 min 0,000 mm 0,0 UV-I 46 W/m 13,8 C 3,2 km/h (1 Bft)
13.08.2016 16:56 23,3 C 23,4 C 55 % 1022,5 hPa 0,0 mm 0,1 km/h (0 Bft) W-NW 286 0 min 0,000 mm 0,0 UV-I 46 W/m 13,7 C 1,6 km/h (1 Bft)
13.08.2016 16:57 23,3 C 23,3 C 59 % 1022,5 hPa 0,0 mm 1,0 km/h (0 Bft) W-NW 298 0 min 0,000 mm 0,0 UV-I 46 W/m 14,8 C 3,2 km/h (1 Bft)
13.08.2016 16:58 23,3 C 23,3 C 57 % 1022,5 hPa 0,0 mm 2,2 km/h (1 Bft) NW 320 0 min 0,000 mm 0,0 UV-I 40 W/m 14,3 C 3,2 km/h (1 Bft)
13.08.2016 16:59 23,3 C 23,3 C 62 % 1022,5 hPa 0,0 mm 1,9 km/h (1 Bft) N-NO 22 0 min 0,000 mm 0,0 UV-I 37 W/m 15,6 C 4,8 km/h (1 Bft)
13.08.2016 17:00 23,3 C 23,3 C 60 % 1022,5 hPa 0,0 mm 1,4 km/h (1 Bft) NO 49 0 min 0,000 mm 0,0 UV-I 35 W/m 15,1 C 3,2 km/h (1 Bft)
13.08.2016 17:01 23,3 C 23,3 C 58 % 1022,5 hPa 0,0 mm 1,1 km/h (1 Bft) NO 42 0 min 0,152 mm 0,0 UV-I 35 W/m 14,6 C 3,2 km/h (1 Bft)
13.08.2016 17:02 23,3 C 23,3 C 55 % 1022,4 hPa 0,0 mm 1,7 km/h (1 Bft) N 350 0 min 0,000 mm 0,0 UV-I 37 W/m 13,7 C 3,2 km/h (1 Bft)
13.08.2016 17:03 23,3 C 23,3 C 57 % 1022,5 hPa 0,0 mm 2,3 km/h (1 Bft) NW 313 0 min 0,000 mm 0,0 UV-I 37 W/m 14,3 C 3,2 km/h (1 Bft)
13.08.2016 17:04 23,3 C 23,3 C 58 % 1022,4 hPa 0,0 mm 3,3 km/h (1 Bft) N 355 0 min 0,000 mm 0,0 UV-I 37 W/m 14,6 C 4,8 km/h (1 Bft)
13.08.2016 17:05 23,3 C 23,3 C 59 % 1022,4 hPa 0,0 mm 2,7 km/h (1 Bft) N 355 0 min 0,000 mm 0,0 UV-I 37 W/m 14,8 C 4,8 km/h (1 Bft)
13.08.2016 17:06 23,4 C 23,4 C 57 % 1022,5 hPa 0,0 mm 3,8 km/h (1 Bft) W 274 0 min 0,000 mm 0,0 UV-I 37 W/m 14,4 C 6,4 km/h (2 Bft)
13.08.2016 17:07 23,4 C 23,4 C 57 % 1022,5 hPa 0,0 mm 3,1 km/h (1 Bft) NW 311 0 min 0,000 mm 0,0 UV-I 39 W/m 14,4 C 6,4 km/h (2 Bft)
13.08.2016 17:08 23,4 C 23,4 C 60 % 1022,5 hPa 0,0 mm 4,8 km/h (1 Bft) NW 326 0 min 0,000 mm 0,0 UV-I 40 W/m 15,2 C 6,4 km/h (2 Bft)
13.08.2016 17:09 23,4 C 23,4 C 58 % 1022,5 hPa 0,0 mm 5,5 km/h (1 Bft) W-NW 302 0 min 0,000 mm 0,0 UV-I 44 W/m 14,7 C 6,4 km/h (2 Bft)
13.08.2016 17:10 23,5 C 23,5 C 57 % 1022,5 hPa 0,0 mm 5,8 km/h (2 Bft) W-NW 292 0 min 0,000 mm 1,5 UV-I 58 W/m 14,5 C 8,0 km/h (2 Bft)
13.08.2016 17:11 23,6 C 23,6 C 58 % 1022,5 hPa 0,0 mm 4,2 km/h (1 Bft) N 360 0 min 0,000 mm 1,5 UV-I 62 W/m 14,8 C 6,4 km/h (2 Bft)
13.08.2016 17:12 23,6 C 23,6 C 59 % 1022,5 hPa 0,0 mm 4,9 km/h (1 Bft) N 355 0 min 0,000 mm 1,5 UV-I 83 W/m 15,1 C 8,0 km/h (2 Bft)
13.08.2016 17:13 23,6 C 23,6 C 59 % 1022,5 hPa 0,0 mm 4,0 km/h (1 Bft) W-NW 288 0 min 0,000 mm 1,4 UV-I 58 W/m 15,1 C 4,8 km/h (1 Bft)
13.08.2016 17:14 23,6 C 23,6 C 56 % 1022,5 hPa 0,0 mm 3,4 km/h (1 Bft) N-NW 337 0 min 0,000 mm 0,0 UV-I 42 W/m 14,3 C 4,8 km/h (1 Bft)
13.08.2016 17:15 23,5 C 23,6 C 57 % 1022,5 hPa 0,0 mm 4,0 km/h (1 Bft) NW 313 0 min 0,000 mm 0,0 UV-I 37 W/m 14,5 C 6,4 km/h (2 Bft)
13.08.2016 17:16 23,4 C 23,5 C 58 % 1022,4 hPa 0,0 mm 5,8 km/h (2 Bft) W 267 0 min 0,000 mm 0,0 UV-I 35 W/m 14,7 C 9,7 km/h (2 Bft)
13.08.2016 17:17 23,4 C 23,4 C 58 % 1022,4 hPa 0,0 mm 5,8 km/h (2 Bft) NW 305 0 min 0,000 mm 0,0 UV-I 35 W/m 14,7 C 9,7 km/h (2 Bft)
13.08.2016 17:18 23,4 C 23,4 C 58 % 1022,4 hPa 0,0 mm 4,7 km/h (1 Bft) NW 306 0 min 0,000 mm 0,0 UV-I 39 W/m 14,7 C 9,7 km/h (2 Bft)
13.08.2016 17:19 23,5 C 23,5 C 58 % 1022,4 hPa 0,0 mm 6,1 km/h (2 Bft) NW 313 0 min 0,000 mm 0,0 UV-I 44 W/m 14,7 C 8,0 km/h (2 Bft)
13.08.2016 17:20 23,5 C 23,5 C 58 % 1022,4 hPa 0,0 mm 5,5 km/h (1 Bft) N 355 0 min 0,000 mm 0,0 UV-I 42 W/m 14,7 C 6,4 km/h (2 Bft)
13.08.2016 17:21 23,5 C 23,6 C 56 % 1022,4 hPa 0,0 mm 4,5 km/h (1 Bft) N-NW 342 0 min 0,000 mm 0,0 UV-I 33 W/m 14,2 C 8,0 km/h (2 Bft)
13.08.2016 17:22 23,5 C 23,5 C 56 % 1022,4 hPa 0,0 mm 3,7 km/h (1 Bft) N-NO 22 0 min 0,000 mm 0,0 UV-I 33 W/m 14,2 C 8,0 km/h (2 Bft)
13.08.2016 17:23 23,4 C 23,5 C 56 % 1022,4 hPa 0,0 mm 7,0 km/h (2 Bft) N 360 0 min 0,000 mm 0,0 UV-I 33 W/m 14,1 C 11,3 km/h (2 Bft)
13.08.2016 17:24 23,4 C 23,4 C 58 % 1022,4 hPa 0,0 mm 5,0 km/h (1 Bft) N-NW 338 0 min 0,000 mm 0,0 UV-I 33 W/m 14,7 C 6,4 km/h (2 Bft)
13.08.2016 17:25 23,4 C 23,4 C 57 % 1022,3 hPa 0,0 mm 4,9 km/h (1 Bft) N 355 0 min 0,000 mm 0,0 UV-I 33 W/m 14,4 C 8,0 km/h (2 Bft)
13.08.2016 17:26 23,5 C 23,5 C 57 % 1022,4 hPa 0,0 mm 4,4 km/h (1 Bft) N 355 0 min 0,000 mm 0,0 UV-I 33 W/m 14,5 C 6,4 km/h (2 Bft)
13.08.2016 17:27 23,5 C 23,5 C 57 % 1022,4 hPa 0,0 mm 4,2 km/h (1 Bft) N-NW 346 0 min 0,000 mm 0,0 UV-I 33 W/m 14,5 C 6,4 km/h (2 Bft)
13.08.2016 17:28 23,5 C 23,5 C 58 % 1022,4 hPa 0,0 mm 4,9 km/h (1 Bft) N 5 0 min 0,000 mm 0,0 UV-I 33 W/m 14,7 C 8,0 km/h (2 Bft)
13.08.2016 17:29 23,6 C 23,6 C 57 % 1022,4 hPa 0,0 mm 6,0 km/h (2 Bft) N 355 0 min 0,000 mm 0,0 UV-I 33 W/m 14,6 C 8,0 km/h (2 Bft)
13.08.2016 17:30 23,6 C 23,6 C 56 % 1022,4 hPa 0,0 mm 6,6 km/h (2 Bft) NW 321 0 min 0,000 mm 0,0 UV-I 33 W/m 14,3 C 11,3 km/h (2 Bft)
13.08.2016 17:31 23,6 C 23,6 C 57 % 1022,4 hPa 0,0 mm 4,3 km/h (1 Bft) N-NW 329 0 min 0,000 mm 0,0 UV-I 33 W/m 14,6 C 8,0 km/h (2 Bft)
13.08.2016 17:32 23,6 C 23,6 C 57 % 1022,4 hPa 0,0 mm 6,2 km/h (2 Bft) N-NO 15 0 min 0,000 mm 0,0 UV-I 33 W/m 14,6 C 11,3 km/h (2 Bft)
13.08.2016 17:33 23,6 C 23,6 C 56 % 1022,4 hPa 0,0 mm 7,6 km/h (2 Bft) N-NO 18 0 min 0,000 mm 0,0 UV-I 33 W/m 14,3 C 11,3 km/h (2 Bft)
13.08.2016 17:34 23,5 C 23,6 C 56 % 1022,4 hPa 0,0 mm 5,8 km/h (2 Bft) W-NW 301 0 min 0,000 mm 0,0 UV-I 33 W/m 14,2 C 8,0 km/h (2 Bft)
13.08.2016 17:35 23,6 C 23,6 C 58 % 1022,4 hPa 0,0 mm 4,7 km/h (1 Bft) W 266 0 min 0,000 mm 0,0 UV-I 35 W/m 14,8 C 6,4 km/h (2 Bft)
13.08.2016 17:36 23,6 C 23,6 C 58 % 1022,4 hPa 0,0 mm 5,0 km/h (1 Bft) W-NW 298 0 min 0,000 mm 0,0 UV-I 33 W/m 14,8 C 6,4 km/h (2 Bft)
13.08.2016 17:37 23,5 C 23,6 C 57 % 1022,4 hPa 0,0 mm 4,2 km/h (1 Bft) NW 311 0 min 0,000 mm 0,0 UV-I 33 W/m 14,5 C 6,4 km/h (2 Bft)
13.08.2016 17:38 23,4 C 23,5 C 56 % 1022,4 hPa 0,0 mm 5,0 km/h (1 Bft) W-NW 300 0 min 0,000 mm 0,0 UV-I 33 W/m 14,1 C 6,4 km/h (2 Bft)
13.08.2016 17:39 23,4 C 23,4 C 57 % 1022,5 hPa 0,0 mm 6,0 km/h (2 Bft) NW 304 0 min 0,000 mm 0,0 UV-I 33 W/m 14,4 C 8,0 km/h (2 Bft)
13.08.2016 17:40 23,3 C 23,4 C 58 % 1022,4 hPa 0,0 mm 3,4 km/h (1 Bft) W 263 0 min 0,000 mm 0,0 UV-I 33 W/m 14,6 C 4,8 km/h (1 Bft)
13.08.2016 17:41 23,3 C 23,3 C 58 % 1022,4 hPa 0,0 mm 2,5 km/h (1 Bft) N-NW 333 0 min 0,000 mm 0,0 UV-I 33 W/m 14,6 C 4,8 km/h (1 Bft)
13.08.2016 17:42 23,3 C 23,3 C 60 % 1022,5 hPa 0,0 mm 7,7 km/h (2 Bft) W-NW 289 0 min 0,000 mm 0,0 UV-I 33 W/m 15,1 C 12,9 km/h (3 Bft)
13.08.2016 17:43 23,4 C 23,4 C 60 % 1022,4 hPa 0,0 mm 9,0 km/h (2 Bft) NW 318 0 min 0,000 mm 0,0 UV-I 33 W/m 15,2 C 12,9 km/h (3 Bft)
13.08.2016 17:44 23,4 C 23,4 C 59 % 1022,5 hPa 0,0 mm 5,0 km/h (1 Bft) W 280 0 min 0,000 mm 0,0 UV-I 33 W/m 14,9 C 8,0 km/h (2 Bft)
13.08.2016 17:45 23,4 C 23,4 C 58 % 1022,5 hPa 0,0 mm 6,9 km/h (2 Bft) W 272 0 min 0,000 mm 0,0 UV-I 33 W/m 14,7 C 9,7 km/h (2 Bft)
13.08.2016 17:46 23,4 C 23,4 C 58 % 1022,4 hPa 0,0 mm 6,6 km/h (2 Bft) NW 322 0 min 0,000 mm 0,0 UV-I 33 W/m 14,7 C 9,7 km/h (2 Bft)
13.08.2016 17:47 23,4 C 23,4 C 59 % 1022,5 hPa 0,0 mm 6,2 km/h (2 Bft) W 279 0 min 0,000 mm 0,0 UV-I 33 W/m 14,9 C 11,3 km/h (2 Bft)
13.08.2016 17:48 23,4 C 23,4 C 57 % 1022,4 hPa 0,0 mm 6,0 km/h (2 Bft) W-NW 298 0 min 0,000 mm 0,0 UV-I 33 W/m 14,4 C 6,4 km/h (2 Bft)
13.08.2016 17:49 23,4 C 23,4 C 58 % 1022,4 hPa 0,0 mm 4,4 km/h (1 Bft) W-SW 240 0 min 0,000 mm 0,0 UV-I 33 W/m 14,7 C 6,4 km/h (2 Bft)
13.08.2016 17:50 23,4 C 23,4 C 57 % 1022,4 hPa 0,0 mm 5,3 km/h (1 Bft) W 263 0 min 0,000 mm 0,0 UV-I 33 W/m 14,4 C 9,7 km/h (2 Bft)
13.08.2016 17:51 23,3 C 23,4 C 59 % 1022,4 hPa 0,0 mm 2,1 km/h (1 Bft) SW 233 0 min 0,000 mm 0,0 UV-I 35 W/m 14,8 C 4,8 km/h (1 Bft)
13.08.2016 17:52 23,3 C 23,3 C 58 % 1022,4 hPa 0,0 mm 5,2 km/h (1 Bft) W 264 0 min 0,000 mm 0,0 UV-I 35 W/m 14,6 C 9,7 km/h (2 Bft)
13.08.2016 17:53 23,3 C 23,3 C 57 % 1022,4 hPa 0,0 mm 3,8 km/h (1 Bft) W-SW 238 0 min 0,000 mm 0,0 UV-I 40 W/m 14,3 C 6,4 km/h (2 Bft)
13.08.2016 17:54 23,2 C 23,3 C 60 % 1022,4 hPa 0,0 mm 3,6 km/h (1 Bft) W-SW 250 0 min 0,000 mm 0,0 UV-I 39 W/m 15,0 C 4,8 km/h (1 Bft)
13.08.2016 17:55 23,2 C 23,2 C 59 % 1022,4 hPa 0,0 mm 2,8 km/h (1 Bft) W-SW 250 0 min 0,000 mm 0,0 UV-I 33 W/m 14,7 C 4,8 km/h (1 Bft)
13.08.2016 17:56 23,2 C 23,2 C 61 % 1022,4 hPa 0,0 mm 2,6 km/h (1 Bft) SW 215 0 min 0,000 mm 0,0 UV-I 32 W/m 15,3 C 4,8 km/h (1 Bft)
13.08.2016 17:57 23,2 C 23,2 C 60 % 1022,4 hPa 0,0 mm 1,6 km/h (1 Bft) SW 215 0 min 0,000 mm 0,0 UV-I 32 W/m 15,0 C 3,2 km/h (1 Bft)
13.08.2016 17:58 23,2 C 23,2 C 59 % 1022,4 hPa 0,0 mm 3,4 km/h (1 Bft) W-SW 252 0 min 0,000 mm 0,0 UV-I 33 W/m 14,7 C 4,8 km/h (1 Bft)
13.08.2016 17:59 23,2 C 23,2 C 58 % 1022,4 hPa 0,0 mm 3,0 km/h (1 Bft) W-SW 252 0 min 0,000 mm 0,0 UV-I 35 W/m 14,5 C 4,8 km/h (1 Bft)
13.08.2016 18:00 23,2 C 23,2 C 58 % 1022,4 hPa 0,0 mm 2,1 km/h (1 Bft) W-NW 290 0 min 0,000 mm 0,0 UV-I 35 W/m 14,5 C 3,2 km/h (1 Bft)
13.08.2016 18:01 23,2 C 23,2 C 59 % 1022,4 hPa 0,0 mm 2,3 km/h (1 Bft) W 259 0 min 0,051 mm 0,0 UV-I 35 W/m 14,7 C 6,4 km/h (2 Bft)
13.08.2016 18:02 23,2 C 23,2 C 60 % 1022,4 hPa 0,0 mm 7,8 km/h (2 Bft) NW 320 0 min 0,000 mm 0,0 UV-I 33 W/m 15,0 C 12,9 km/h (3 Bft)
13.08.2016 18:03 23,2 C 23,2 C 59 % 1022,4 hPa 0,0 mm 6,1 km/h (2 Bft) NW 313 0 min 0,000 mm 0,0 UV-I 35 W/m 14,7 C 9,7 km/h (2 Bft)
13.08.2016 18:04 23,2 C 23,2 C 59 % 1022,4 hPa 0,0 mm 5,0 km/h (1 Bft) NW 317 0 min 0,000 mm 0,0 UV-I 33 W/m 14,7 C 6,4 km/h (2 Bft)
13.08.2016 18:05 23,2 C 23,2 C 57 % 1022,4 hPa 0,0 mm 6,7 km/h (2 Bft) NW 311 0 min 0,000 mm 0,0 UV-I 32 W/m 14,2 C 9,7 km/h (2 Bft)
13.08.2016 18:06 23,2 C 23,2 C 61 % 1022,4 hPa 0,0 mm 4,1 km/h (1 Bft) W-NW 296 0 min 0,000 mm 0,0 UV-I 32 W/m 15,3 C 6,4 km/h (2 Bft)
13.08.2016 18:07 23,2 C 23,2 C 61 % 1022,4 hPa 0,0 mm 4,7 km/h (1 Bft) W-NW 290 0 min 0,000 mm 0,0 UV-I 37 W/m 15,3 C 6,4 km/h (2 Bft)
13.08.2016 18:08 23,2 C 23,2 C 59 % 1022,4 hPa 0,0 mm 3,8 km/h (1 Bft) W-SW 238 0 min 0,000 mm 0,0 UV-I 32 W/m 14,7 C 4,8 km/h (1 Bft)
13.08.2016 18:09 23,2 C 23,2 C 58 % 1022,4 hPa 0,0 mm 5,2 km/h (1 Bft) W 263 0 min 0,000 mm 0,0 UV-I 33 W/m 14,5 C 9,7 km/h (2 Bft)
13.08.2016 18:10 23,1 C 23,2 C 58 % 1022,4 hPa 0,0 mm 3,5 km/h (1 Bft) SW 224 0 min 0,000 mm 0,0 UV-I 33 W/m 14,4 C 6,4 km/h (2 Bft)
13.08.2016 18:11 23,1 C 23,1 C 60 % 1022,3 hPa 0,0 mm 3,8 km/h (1 Bft) W-SW 252 0 min 0,000 mm 0,0 UV-I 32 W/m 14,9 C 4,8 km/h (1 Bft)
13.08.2016 18:12 23,0 C 23,1 C 58 % 1022,3 hPa 0,0 mm 3,9 km/h (1 Bft) W 276 0 min 0,000 mm 0,0 UV-I 32 W/m 14,3 C 4,8 km/h (1 Bft)
13.08.2016 18:13 23,0 C 23,0 C 59 % 1022,3 hPa 0,0 mm 3,1 km/h (1 Bft) N-NW 335 0 min 0,000 mm 0,0 UV-I 35 W/m 14,5 C 4,8 km/h (1 Bft)
13.08.2016 18:14 23,0 C 23,0 C 59 % 1022,3 hPa 0,0 mm 3,6 km/h (1 Bft) N 355 0 min 0,000 mm 0,0 UV-I 32 W/m 14,5 C 4,8 km/h (1 Bft)
13.08.2016 18:15 23,1 C 23,1 C 58 % 1022,3 hPa 0,0 mm 4,0 km/h (1 Bft) N-NW 327 0 min 0,000 mm 0,0 UV-I 33 W/m 14,4 C 4,8 km/h (1 Bft)
13.08.2016 18:16 23,1 C 23,1 C 58 % 1022,3 hPa 0,0 mm 5,4 km/h (1 Bft) W-NW 292 0 min 0,000 mm 0,0 UV-I 33 W/m 14,4 C 8,0 km/h (2 Bft)
13.08.2016 18:17 23,1 C 23,1 C 59 % 1022,3 hPa 0,0 mm 6,4 km/h (2 Bft) W-NW 290 0 min 0,000 mm 0,0 UV-I 44 W/m 14,6 C 8,0 km/h (2 Bft)
13.08.2016 18:18 23,1 C 23,1 C 57 % 1022,2 hPa 0,0 mm 5,2 km/h (1 Bft) W-SW 247 0 min 0,000 mm 1,0 UV-I 88 W/m 14,1 C 6,4 km/h (2 Bft)
13.08.2016 18:19 23,1 C 23,1 C 57 % 1022,3 hPa 0,0 mm 3,9 km/h (1 Bft) NW 304 0 min 0,000 mm 1,0 UV-I 107 W/m 14,1 C 4,8 km/h (1 Bft)
13.08.2016 18:20 23,1 C 23,1 C 59 % 1022,3 hPa 0,0 mm 1,1 km/h (1 Bft) NW 309 0 min 0,000 mm 1,0 UV-I 49 W/m 14,6 C 3,2 km/h (1 Bft)
13.08.2016 18:21 23,0 C 23,1 C 58 % 1022,2 hPa 0,0 mm 0,2 km/h (0 Bft) NW 309 0 min 0,000 mm 0,0 UV-I 39 W/m 14,3 C 1,6 km/h (1 Bft)
13.08.2016 18:22 22,9 C 23,0 C 57 % 1022,3 hPa 0,0 mm 1,5 km/h (1 Bft) NW 310 0 min 0,000 mm 0,0 UV-I 39 W/m 13,9 C 3,2 km/h (1 Bft)
13.08.2016 18:23 22,9 C 22,9 C 58 % 1022,3 hPa 0,0 mm 1,9 km/h (1 Bft) NW 310 0 min 0,000 mm 0,0 UV-I 30 W/m 14,2 C 3,2 km/h (1 Bft)
13.08.2016 18:24 23,0 C 23,0 C 57 % 1022,3 hPa 0,0 mm 1,1 km/h (1 Bft) NW 310 0 min 0,000 mm 0,0 UV-I 30 W/m 14,0 C 1,6 km/h (1 Bft)
13.08.2016 18:25 22,9 C 23,0 C 57 % 1022,2 hPa 0,0 mm 1,6 km/h (1 Bft) NW 310 0 min 0,000 mm 0,0 UV-I 30 W/m 13,9 C 3,2 km/h (1 Bft)
13.08.2016 18:26 22,9 C 22,9 C 57 % 1022,2 hPa 0,0 mm 1,7 km/h (1 Bft) NW 310 0 min 0,000 mm 0,0 UV-I 30 W/m 13,9 C 3,2 km/h (1 Bft)
13.08.2016 18:27 22,8 C 22,9 C 60 % 1022,3 hPa 0,0 mm 1,5 km/h (1 Bft) NW 311 0 min 0,000 mm 0,0 UV-I 30 W/m 14,6 C 3,2 km/h (1 Bft)
13.08.2016 18:28 22,9 C 22,9 C 61 % 1022,3 hPa 0,0 mm 3,1 km/h (1 Bft) NO 47 0 min 0,000 mm 0,0 UV-I 30 W/m 15,0 C 6,4 km/h (2 Bft)
13.08.2016 18:29 22,9 C 22,9 C 58 % 1022,2 hPa 0,0 mm 1,9 km/h (1 Bft) NW 319 0 min 0,000 mm 0,0 UV-I 30 W/m 14,2 C 3,2 km/h (1 Bft)
13.08.2016 18:30 23,0 C 23,0 C 60 % 1022,2 hPa 0,0 mm 5,1 km/h (1 Bft) NW 313 0 min 0,000 mm 0,0 UV-I 32 W/m 14,8 C 8,0 km/h (2 Bft)
13.08.2016 18:31 23,0 C 23,0 C 60 % 1022,2 hPa 0,0 mm 3,8 km/h (1 Bft) W 281 0 min 0,000 mm 0,0 UV-I 30 W/m 14,8 C 6,4 km/h (2 Bft)
13.08.2016 18:32 23,0 C 23,0 C 59 % 1022,2 hPa 0,0 mm 4,1 km/h (1 Bft) NW 325 0 min 0,000 mm 0,0 UV-I 30 W/m 14,5 C 8,0 km/h (2 Bft)
13.08.2016 18:33 23,0 C 23,1 C 59 % 1022,2 hPa 0,0 mm 5,7 km/h (1 Bft) W 280 0 min 0,000 mm 0,0 UV-I 30 W/m 14,5 C 8,0 km/h (2 Bft)
13.08.2016 18:34 23,1 C 23,1 C 60 % 1022,2 hPa 0,0 mm 4,5 km/h (1 Bft) W-NW 287 0 min 0,000 mm 0,0 UV-I 30 W/m 14,9 C 6,4 km/h (2 Bft)
13.08.2016 18:35 23,1 C 23,1 C 60 % 1022,3 hPa 0,0 mm 4,1 km/h (1 Bft) W-NW 290 0 min 0,000 mm 0,0 UV-I 28 W/m 14,9 C 6,4 km/h (2 Bft)
13.08.2016 18:36 23,1 C 23,1 C 59 % 1022,2 hPa 0,0 mm 3,0 km/h (1 Bft) W 263 0 min 0,000 mm 0,0 UV-I 28 W/m 14,6 C 4,8 km/h (1 Bft)
13.08.2016 18:37 23,0 C 23,1 C 59 % 1022,2 hPa 0,0 mm 3,8 km/h (1 Bft) SW 236 0 min 0,000 mm 0,0 UV-I 30 W/m 14,5 C 4,8 km/h (1 Bft)
13.08.2016 18:38 22,9 C 23,0 C 60 % 1022,2 hPa 0,0 mm 2,3 km/h (1 Bft) SW 236 0 min 0,000 mm 0,0 UV-I 30 W/m 14,7 C 3,2 km/h (1 Bft)
13.08.2016 18:39 22,9 C 22,9 C 58 % 1022,2 hPa 0,0 mm 0,9 km/h (0 Bft) SW 236 0 min 0,000 mm 0,0 UV-I 28 W/m 14,2 C 3,2 km/h (1 Bft)
13.08.2016 18:40 22,9 C 22,9 C 61 % 1022,2 hPa 0,0 mm 3,5 km/h (1 Bft) W 281 0 min 0,000 mm 0,0 UV-I 28 W/m 15,0 C 4,8 km/h (1 Bft)
13.08.2016 18:41 22,8 C 22,9 C 60 % 1022,2 hPa 0,0 mm 6,3 km/h (2 Bft) W 265 0 min 0,000 mm 0,0 UV-I 28 W/m 14,6 C 9,7 km/h (2 Bft)
13.08.2016 18:42 22,8 C 22,8 C 58 % 1022,2 hPa 0,0 mm 3,4 km/h (1 Bft) W 269 0 min 0,000 mm 0,0 UV-I 30 W/m 14,1 C 6,4 km/h (2 Bft)
13.08.2016 18:43 22,8 C 22,8 C 59 % 1022,2 hPa 0,0 mm 1,9 km/h (1 Bft) W 261 0 min 0,000 mm 0,0 UV-I 28 W/m 14,4 C 3,2 km/h (1 Bft)
13.08.2016 18:44 22,8 C 22,8 C 59 % 1022,2 hPa 0,0 mm 3,3 km/h (1 Bft) W-SW 253 0 min 0,000 mm 0,0 UV-I 30 W/m 14,4 C 4,8 km/h (1 Bft)
13.08.2016 18:45 22,8 C 22,8 C 59 % 1022,2 hPa 0,0 mm 3,6 km/h (1 Bft) W 260 0 min 0,000 mm 0,0 UV-I 30 W/m 14,4 C 4,8 km/h (1 Bft)
13.08.2016 18:46 22,7 C 22,8 C 59 % 1022,2 hPa 0,0 mm 2,8 km/h (1 Bft) W 271 0 min 0,000 mm 0,0 UV-I 30 W/m 14,3 C 3,2 km/h (1 Bft)
13.08.2016 18:47 22,6 C 22,7 C 61 % 1022,2 hPa 0,0 mm 2,1 km/h (1 Bft) W 271 0 min 0,000 mm 0,0 UV-I 30 W/m 14,7 C 3,2 km/h (1 Bft)
13.08.2016 18:48 22,6 C 22,7 C 61 % 1022,2 hPa 0,0 mm 1,1 km/h (1 Bft) W 271 0 min 0,000 mm 0,0 UV-I 28 W/m 14,7 C 1,6 km/h (1 Bft)
13.08.2016 18:49 22,6 C 22,6 C 63 % 1022,2 hPa 0,0 mm 1,4 km/h (1 Bft) W 271 0 min 0,000 mm 0,0 UV-I 40 W/m 15,2 C 3,2 km/h (1 Bft)
13.08.2016 18:50 22,6 C 22,6 C 61 % 1022,2 hPa 0,0 mm 2,5 km/h (1 Bft) W-NW 298 0 min 0,000 mm 0,0 UV-I 63 W/m 14,7 C 4,8 km/h (1 Bft)
13.08.2016 18:51 22,6 C 22,6 C 61 % 1022,1 hPa 0,0 mm 3,8 km/h (1 Bft) NW 304 0 min 0,000 mm 0,8 UV-I 74 W/m 14,7 C 4,8 km/h (1 Bft)
13.08.2016 18:52 22,7 C 22,7 C 62 % 1022,1 hPa 0,0 mm 3,2 km/h (1 Bft) NW 306 0 min 0,000 mm 0,8 UV-I 95 W/m 15,0 C 4,8 km/h (1 Bft)
13.08.2016 18:53 22,7 C 22,7 C 58 % 1022,2 hPa 0,0 mm 1,1 km/h (1 Bft) NW 306 0 min 0,000 mm 0,8 UV-I 98 W/m 14,0 C 3,2 km/h (1 Bft)
13.08.2016 18:54 22,7 C 22,7 C 60 % 1022,2 hPa 0,0 mm 0,5 km/h (0 Bft) NW 306 0 min 0,000 mm 0,7 UV-I 98 W/m 14,5 C 1,6 km/h (1 Bft)
13.08.2016 18:55 22,7 C 22,7 C 60 % 1022,1 hPa 0,0 mm 2,6 km/h (1 Bft) NW 322 0 min 0,000 mm 0,7 UV-I 40 W/m 14,5 C 4,8 km/h (1 Bft)
13.08.2016 18:56 22,7 C 22,7 C 60 % 1022,2 hPa 0,0 mm 0,9 km/h (0 Bft) NW 322 0 min 0,000 mm 0,0 UV-I 37 W/m 14,5 C 3,2 km/h (1 Bft)
13.08.2016 18:57 22,7 C 22,7 C 62 % 1022,1 hPa 0,0 mm 2,0 km/h (1 Bft) NW 322 0 min 0,000 mm 0,0 UV-I 32 W/m 15,0 C 3,2 km/h (1 Bft)
13.08.2016 18:58 22,7 C 22,7 C 60 % 1022,2 hPa 0,0 mm 2,8 km/h (1 Bft) NW 311 0 min 0,000 mm 0,0 UV-I 33 W/m 14,5 C 3,2 km/h (1 Bft)
13.08.2016 18:59 22,7 C 22,7 C 62 % 1022,2 hPa 0,0 mm 2,3 km/h (1 Bft) W-NW 282 0 min 0,000 mm 0,0 UV-I 28 W/m 15,0 C 3,2 km/h (1 Bft)
13.08.2016 19:00 22,7 C 22,7 C 60 % 1022,2 hPa 0,0 mm 1,8 km/h (1 Bft) W-NW 294 0 min 0,000 mm 0,0 UV-I 33 W/m 14,5 C 3,2 km/h (1 Bft)
13.08.2016 19:01 22,7 C 22,7 C 62 % 1022,1 hPa 0,0 mm 2,3 km/h (1 Bft) W-NW 290 0 min 0,051 mm 0,0 UV-I 46 W/m 15,0 C 3,2 km/h (1 Bft)
13.08.2016 19:02 22,6 C 22,7 C 61 % 1022,2 hPa 0,0 mm 2,3 km/h (1 Bft) W 280 0 min 0,000 mm 0,7 UV-I 58 W/m 14,7 C 3,2 km/h (1 Bft)
13.08.2016 19:03 22,6 C 22,6 C 61 % 1022,1 hPa 0,0 mm 1,4 km/h (1 Bft) W 280 0 min 0,000 mm 0,7 UV-I 93 W/m 14,7 C 1,6 km/h (1 Bft)
13.08.2016 19:04 22,6 C 22,6 C 60 % 1022,1 hPa 0,0 mm 1,5 km/h (1 Bft) W 280 1 min 0,000 mm 0,7 UV-I 132 W/m 14,4 C 3,2 km/h (1 Bft)
13.08.2016 19:05 22,5 C 22,6 C 60 % 1022,1 hPa 0,0 mm 1,3 km/h (1 Bft) W 280 1 min 0,000 mm 0,7 UV-I 148 W/m 14,3 C 1,6 km/h (1 Bft)
13.08.2016 19:06 22,4 C 22,6 C 60 % 1022,1 hPa 0,0 mm 1,1 km/h (1 Bft) W 280 1 min 0,000 mm 0,7 UV-I 148 W/m 14,2 C 1,6 km/h (1 Bft)
13.08.2016 19:07 22,4 C 22,4 C 60 % 1022,1 hPa 0,0 mm 1,1 km/h (1 Bft) W 280 0 min 0,000 mm 0,6 UV-I 102 W/m 14,2 C 3,2 km/h (1 Bft)
13.08.2016 19:08 22,4 C 22,4 C 62 % 1022,1 hPa 0,0 mm 1,3 km/h (1 Bft) W 278 0 min 0,000 mm 0,6 UV-I 65 W/m 14,8 C 3,2 km/h (1 Bft)
13.08.2016 19:09 22,4 C 22,4 C 63 % 1022,1 hPa 0,0 mm 3,3 km/h (1 Bft) W-NW 302 0 min 0,000 mm 0,0 UV-I 39 W/m 15,0 C 4,8 km/h (1 Bft)
13.08.2016 19:10 22,4 C 22,4 C 62 % 1022,1 hPa 0,0 mm 3,1 km/h (1 Bft) NW 308 0 min 0,000 mm 0,0 UV-I 26 W/m 14,8 C 4,8 km/h (1 Bft)
13.08.2016 19:11 22,5 C 22,5 C 62 % 1022,1 hPa 0,0 mm 1,5 km/h (1 Bft) NW 308 0 min 0,000 mm 0,0 UV-I 26 W/m 14,8 C 3,2 km/h (1 Bft)
13.08.2016 19:12 22,5 C 22,5 C 62 % 1022,1 hPa 0,0 mm 1,1 km/h (1 Bft) NW 308 0 min 0,000 mm 0,0 UV-I 28 W/m 14,8 C 1,6 km/h (1 Bft)
13.08.2016 19:13 22,4 C 22,5 C 62 % 1022,1 hPa 0,0 mm 0,5 km/h (0 Bft) NW 308 0 min 0,000 mm 0,0 UV-I 47 W/m 14,8 C 1,6 km/h (1 Bft)
13.08.2016 19:14 22,3 C 22,4 C 63 % 1022,1 hPa 0,0 mm 0,9 km/h (0 Bft) NW 308 0 min 0,000 mm 0,6 UV-I 60 W/m 14,9 C 1,6 km/h (1 Bft)
13.08.2016 19:15 22,2 C 22,3 C 63 % 1022,1 hPa 0,0 mm 1,5 km/h (1 Bft) NW 308 0 min 0,000 mm 0,6 UV-I 88 W/m 14,8 C 3,2 km/h (1 Bft)
13.08.2016 19:16 22,1 C 22,2 C 64 % 1022,1 hPa 0,0 mm 1,6 km/h (1 Bft) NW 307 1 min 0,000 mm 0,5 UV-I 114 W/m 15,0 C 3,2 km/h (1 Bft)
13.08.2016 19:17 22,1 C 22,1 C 63 % 1022,1 hPa 0,0 mm 1,0 km/h (0 Bft) NW 307 1 min 0,000 mm 0,5 UV-I 111 W/m 14,7 C 1,6 km/h (1 Bft)
13.08.2016 19:18 22,0 C 22,1 C 64 % 1022,1 hPa 0,0 mm 1,5 km/h (1 Bft) NW 308 0 min 0,000 mm 0,5 UV-I 77 W/m 14,9 C 3,2 km/h (1 Bft)
13.08.2016 19:19 21,9 C 22,0 C 63 % 1022,1 hPa 0,0 mm 0,9 km/h (0 Bft) NW 307 0 min 0,000 mm 0,0 UV-I 47 W/m 14,5 C 1,6 km/h (1 Bft)
13.08.2016 19:20 21,9 C 22,0 C 63 % 1022,1 hPa 0,0 mm 0,8 km/h (0 Bft) NW 307 0 min 0,000 mm 0,0 UV-I 54 W/m 14,5 C 1,6 km/h (1 Bft)
13.08.2016 19:21 21,9 C 21,9 C 63 % 1022,0 hPa 0,0 mm 0,1 km/h (0 Bft) NW 307 0 min 0,000 mm 0,5 UV-I 56 W/m 14,5 C 1,6 km/h (1 Bft)
13.08.2016 19:22 21,9 C 21,9 C 64 % 1022,1 hPa 0,0 mm 0,4 km/h (0 Bft) NW 307 0 min 0,000 mm 0,5 UV-I 72 W/m 14,8 C 1,6 km/h (1 Bft)
13.08.2016 19:23 21,9 C 21,9 C 63 % 1022,1 hPa 0,0 mm 0,7 km/h (0 Bft) NW 307 0 min 0,000 mm 0,0 UV-I 86 W/m 14,5 C 1,6 km/h (1 Bft)
13.08.2016 19:24 21,9 C 21,9 C 64 % 1022,1 hPa 0,0 mm 0,9 km/h (0 Bft) NW 307 0 min 0,000 mm 0,0 UV-I 67 W/m 14,8 C 1,6 km/h (1 Bft)
13.08.2016 19:25 21,8 C 21,9 C 64 % 1022,1 hPa 0,0 mm 0,6 km/h (0 Bft) NW 308 0 min 0,000 mm 0,0 UV-I 47 W/m 14,7 C 1,6 km/h (1 Bft)
13.08.2016 19:26 21,8 C 21,9 C 64 % 1022,1 hPa 0,0 mm 0,7 km/h (0 Bft) NW 308 0 min 0,000 mm 0,0 UV-I 47 W/m 14,7 C 1,6 km/h (1 Bft)
13.08.2016 19:27 21,9 C 21,9 C 64 % 1022,1 hPa 0,0 mm 0,1 km/h (0 Bft) NW 308 0 min 0,000 mm 0,0 UV-I 33 W/m 14,8 C 1,6 km/h (1 Bft)
13.08.2016 19:28 21,9 C 21,9 C 63 % 1022,1 hPa 0,0 mm 0,5 km/h (0 Bft) NW 308 0 min 0,000 mm 0,0 UV-I 35 W/m 14,5 C 1,6 km/h (1 Bft)
13.08.2016 19:29 21,9 C 21,9 C 63 % 1022,1 hPa 0,0 mm 1,2 km/h (1 Bft) NW 308 0 min 0,000 mm 0,0 UV-I 44 W/m 14,5 C 1,6 km/h (1 Bft)
13.08.2016 19:30 21,9 C 21,9 C 63 % 1022,1 hPa 0,0 mm 2,1 km/h (1 Bft) NW 307 0 min 0,000 mm 0,0 UV-I 32 W/m 14,5 C 3,2 km/h (1 Bft)
13.08.2016 19:31 22,0 C 22,0 C 63 % 1022,1 hPa 0,0 mm 2,5 km/h (1 Bft) W-NW 284 0 min 0,000 mm 0,0 UV-I 28 W/m 14,6 C 4,8 km/h (1 Bft)
13.08.2016 19:32 22,0 C 22,0 C 63 % 1022,1 hPa 0,0 mm 3,8 km/h (1 Bft) W 277 0 min 0,000 mm 0,0 UV-I 33 W/m 14,6 C 4,8 km/h (1 Bft)
13.08.2016 19:33 22,0 C 22,1 C 63 % 1022,2 hPa 0,0 mm 1,2 km/h (1 Bft) W 277 0 min 0,000 mm 0,0 UV-I 37 W/m 14,6 C 3,2 km/h (1 Bft)
13.08.2016 19:34 22,0 C 22,1 C 63 % 1022,1 hPa 0,0 mm 0,0 km/h (0 Bft) W 277 0 min 0,000 mm 0,0 UV-I 33 W/m 14,6 C 0,0 km/h (0 Bft)
13.08.2016 19:35 21,9 C 22,0 C 63 % 1022,1 hPa 0,0 mm 1,0 km/h (0 Bft) W 277 0 min 0,000 mm 0,0 UV-I 35 W/m 14,5 C 1,6 km/h (1 Bft)
13.08.2016 19:36 21,9 C 21,9 C 63 % 1022,1 hPa 0,0 mm 0,1 km/h (0 Bft) W 277 0 min 0,000 mm 0,0 UV-I 33 W/m 14,5 C 1,6 km/h (1 Bft)
13.08.2016 19:37 21,8 C 21,9 C 64 % 1022,1 hPa 0,0 mm 0,1 km/h (0 Bft) W 277 0 min 0,000 mm 0,0 UV-I 26 W/m 14,7 C 1,6 km/h (1 Bft)
13.08.2016 19:38 21,8 C 21,8 C 63 % 1022,1 hPa 0,0 mm 0,0 km/h (0 Bft) W 277 0 min 0,000 mm 0,0 UV-I 26 W/m 14,4 C 0,0 km/h (0 Bft)
13.08.2016 19:39 21,7 C 21,8 C 64 % 1022,1 hPa 0,0 mm 0,0 km/h (0 Bft) W 277 0 min 0,000 mm 0,0 UV-I 25 W/m 14,6 C 0,0 km/h (0 Bft)
13.08.2016 19:40 21,6 C 21,7 C 65 % 1022,2 hPa 0,0 mm 0,0 km/h (0 Bft) W 277 0 min 0,000 mm 0,0 UV-I 23 W/m 14,7 C 0,0 km/h (0 Bft)
13.08.2016 19:41 21,4 C 21,6 C 66 % 1022,1 hPa 0,0 mm 0,0 km/h (0 Bft) W 277 0 min 0,000 mm 0,0 UV-I 32 W/m 14,8 C 0,0 km/h (0 Bft)
13.08.2016 19:42 21,3 C 21,4 C 68 % 1022,1 hPa 0,0 mm 0,0 km/h (0 Bft) W 277 0 min 0,000 mm 0,0 UV-I 51 W/m 15,1 C 0,0 km/h (0 Bft)
13.08.2016 19:43 21,2 C 21,3 C 69 % 1022,1 hPa 0,0 mm 0,3 km/h (0 Bft) W 277 0 min 0,000 mm 0,0 UV-I 49 W/m 15,3 C 1,6 km/h (1 Bft)
13.08.2016 19:44 21,1 C 21,2 C 69 % 1022,1 hPa 0,0 mm 0,1 km/h (0 Bft) W 277 0 min 0,000 mm 0,0 UV-I 47 W/m 15,2 C 1,6 km/h (1 Bft)
13.08.2016 19:45 21,0 C 21,1 C 68 % 1022,1 hPa 0,0 mm 0,0 km/h (0 Bft) W 277 0 min 0,000 mm 0,0 UV-I 46 W/m 14,9 C 0,0 km/h (0 Bft)
13.08.2016 19:46 20,9 C 21,0 C 68 % 1022,1 hPa 0,0 mm 0,1 km/h (0 Bft) W 277 0 min 0,000 mm 0,0 UV-I 40 W/m 14,8 C 1,6 km/h (1 Bft)
13.08.2016 19:47 20,9 C 21,0 C 67 % 1022,1 hPa 0,0 mm 0,1 km/h (0 Bft) W 277 0 min 0,000 mm 0,0 UV-I 32 W/m 14,5 C 1,6 km/h (1 Bft)
13.08.2016 19:48 20,9 C 20,9 C 67 % 1022,2 hPa 0,0 mm 0,0 km/h (0 Bft) W 277 0 min 0,000 mm 0,0 UV-I 23 W/m 14,5 C 0,0 km/h (0 Bft)
13.08.2016 19:49 20,8 C 20,9 C 69 % 1022,2 hPa 0,0 mm 0,0 km/h (0 Bft) W 277 0 min 0,000 mm 0,0 UV-I 23 W/m 14,9 C 0,0 km/h (0 Bft)
13.08.2016 19:50 20,7 C 20,8 C 70 % 1022,1 hPa 0,0 mm 0,7 km/h (0 Bft) W 277 0 min 0,000 mm 0,0 UV-I 21 W/m 15,0 C 1,6 km/h (1 Bft)
13.08.2016 19:51 20,4 C 20,7 C 73 % 1022,1 hPa 0,0 mm 1,3 km/h (1 Bft) W 277 0 min 0,000 mm 0,0 UV-I 21 W/m 15,4 C 1,6 km/h (1 Bft)
13.08.2016 19:52 20,2 C 20,4 C 74 % 1022,2 hPa 0,0 mm 1,3 km/h (1 Bft) W 277 0 min 0,000 mm 0,0 UV-I 21 W/m 15,4 C 1,6 km/h (1 Bft)
13.08.2016 19:53 20,0 C 20,2 C 73 % 1022,1 hPa 0,0 mm 1,1 km/h (1 Bft) W 277 0 min 0,000 mm 0,0 UV-I 21 W/m 15,0 C 1,6 km/h (1 Bft)
13.08.2016 19:54 19,9 C 20,0 C 74 % 1022,1 hPa 0,0 mm 1,2 km/h (1 Bft) W 277 0 min 0,000 mm 0,0 UV-I 21 W/m 15,1 C 1,6 km/h (1 Bft)
13.08.2016 19:55 19,9 C 20,0 C 74 % 1022,2 hPa 0,0 mm 1,7 km/h (1 Bft) W 277 0 min 0,000 mm 0,0 UV-I 21 W/m 15,1 C 3,2 km/h (1 Bft)
13.08.2016 19:56 19,9 C 20,0 C 74 % 1022,2 hPa 0,0 mm 1,7 km/h (1 Bft) W 277 0 min 0,000 mm 0,0 UV-I 19 W/m 15,1 C 3,2 km/h (1 Bft)
13.08.2016 19:57 20,0 C 20,1 C 74 % 1022,2 hPa 0,0 mm 1,9 km/h (1 Bft) W-SW 240 0 min 0,000 mm 0,0 UV-I 21 W/m 15,2 C 3,2 km/h (1 Bft)
13.08.2016 19:58 20,1 C 20,1 C 73 % 1022,1 hPa 0,0 mm 2,1 km/h (1 Bft) W-SW 240 0 min 0,000 mm 0,0 UV-I 19 W/m 15,1 C 3,2 km/h (1 Bft)
13.08.2016 19:59 20,2 C 20,2 C 74 % 1022,2 hPa 0,0 mm 1,3 km/h (1 Bft) W-SW 240 0 min 0,000 mm 0,0 UV-I 19 W/m 15,4 C 1,6 km/h (1 Bft)
13.08.2016 20:00 20,2 C 20,2 C 73 % 1022,1 hPa 0,0 mm 1,1 km/h (1 Bft) W-SW 240 0 min 0,000 mm 0,0 UV-I 19 W/m 15,2 C 1,6 km/h (1 Bft)
13.08.2016 20:01 20,2 C 20,2 C 73 % 1022,2 hPa 0,0 mm 2,0 km/h (1 Bft) W-SW 240 0 min 0,051 mm 0,0 UV-I 19 W/m 15,2 C 3,2 km/h (1 Bft)
13.08.2016 20:02 20,2 C 20,2 C 73 % 1022,1 hPa 0,0 mm 1,9 km/h (1 Bft) W-SW 240 0 min 0,000 mm 0,0 UV-I 18 W/m 15,2 C 3,2 km/h (1 Bft)
13.08.2016 20:03 20,2 C 20,2 C 74 % 1022,1 hPa 0,0 mm 1,5 km/h (1 Bft) W-SW 240 0 min 0,000 mm 0,0 UV-I 18 W/m 15,4 C 3,2 km/h (1 Bft)
13.08.2016 20:04 20,1 C 20,2 C 74 % 1022,1 hPa 0,0 mm 1,6 km/h (1 Bft) W-SW 240 0 min 0,000 mm 0,0 UV-I 18 W/m 15,3 C 1,6 km/h (1 Bft)
13.08.2016 20:05 20,1 C 20,1 C 74 % 1022,1 hPa 0,0 mm 1,3 km/h (1 Bft) W-SW 240 0 min 0,000 mm 0,0 UV-I 16 W/m 15,3 C 1,6 km/h (1 Bft)
13.08.2016 20:06 20,0 C 20,1 C 75 % 1022,1 hPa 0,0 mm 1,8 km/h (1 Bft) W-SW 240 0 min 0,000 mm 0,0 UV-I 16 W/m 15,4 C 3,2 km/h (1 Bft)
13.08.2016 20:07 19,9 C 20,0 C 75 % 1022,1 hPa 0,0 mm 1,6 km/h (1 Bft) W-SW 240 0 min 0,000 mm 0,0 UV-I 16 W/m 15,3 C 3,2 km/h (1 Bft)
13.08.2016 20:08 19,8 C 19,9 C 74 % 1022,1 hPa 0,0 mm 1,1 km/h (1 Bft) W-SW 240 0 min 0,000 mm 0,0 UV-I 16 W/m 15,0 C 3,2 km/h (1 Bft)
13.08.2016 20:09 19,7 C 19,8 C 75 % 1022,1 hPa 0,0 mm 1,5 km/h (1 Bft) W-SW 240 0 min 0,000 mm 0,0 UV-I 16 W/m 15,1 C 1,6 km/h (1 Bft)
13.08.2016 20:10 19,6 C 19,7 C 76 % 1022,1 hPa 0,0 mm 1,4 km/h (1 Bft) W-SW 240 0 min 0,000 mm 0,0 UV-I 14 W/m 15,2 C 1,6 km/h (1 Bft)
13.08.2016 20:11 19,5 C 19,6 C 76 % 1022,1 hPa 0,0 mm 1,0 km/h (0 Bft) W-SW 240 0 min 0,000 mm 0,0 UV-I 14 W/m 15,2 C 1,6 km/h (1 Bft)
13.08.2016 20:12 19,4 C 19,6 C 76 % 1022,1 hPa 0,0 mm 1,3 km/h (1 Bft) W-SW 240 0 min 0,000 mm 0,0 UV-I 14 W/m 15,1 C 1,6 km/h (1 Bft)
13.08.2016 20:13 19,4 C 19,4 C 76 % 1022,1 hPa 0,0 mm 1,3 km/h (1 Bft) W-SW 240 0 min 0,000 mm 0,0 UV-I 14 W/m 15,1 C 1,6 km/h (1 Bft)
13.08.2016 20:14 19,3 C 19,4 C 76 % 1022,1 hPa 0,0 mm 0,9 km/h (0 Bft) W-SW 240 0 min 0,000 mm 0,0 UV-I 14 W/m 15,0 C 1,6 km/h (1 Bft)
13.08.2016 20:15 19,2 C 19,3 C 76 % 1022,2 hPa 0,0 mm 0,7 km/h (0 Bft) W-SW 240 0 min 0,000 mm 0,0 UV-I 12 W/m 14,9 C 1,6 km/h (1 Bft)
13.08.2016 20:16 19,1 C 19,2 C 76 % 1022,1 hPa 0,0 mm 0,7 km/h (0 Bft) W-SW 240 0 min 0,000 mm 0,0 UV-I 12 W/m 14,8 C 1,6 km/h (1 Bft)
13.08.2016 20:17 19,1 C 19,2 C 77 % 1022,1 hPa 0,0 mm 1,3 km/h (1 Bft) W-SW 240 0 min 0,000 mm 0,0 UV-I 11 W/m 15,0 C 1,6 km/h (1 Bft)
13.08.2016 20:18 19,1 C 19,1 C 76 % 1022,1 hPa 0,0 mm 1,4 km/h (1 Bft) W-SW 240 0 min 0,000 mm 0,0 UV-I 11 W/m 14,8 C 1,6 km/h (1 Bft)
13.08.2016 20:19 19,0 C 19,1 C 76 % 1022,1 hPa 0,0 mm 1,5 km/h (1 Bft) W-SW 240 1 min 0,000 mm 0,0 UV-I 11 W/m 14,7 C 1,6 km/h (1 Bft)
13.08.2016 20:20 19,0 C 19,1 C 76 % 1022,1 hPa 0,0 mm 0,9 km/h (0 Bft) W-SW 240 0 min 0,000 mm 0,0 UV-I 9 W/m 14,7 C 1,6 km/h (1 Bft)
13.08.2016 20:21 18,9 C 19,0 C 76 % 1022,1 hPa 0,0 mm 0,9 km/h (0 Bft) W-SW 240 0 min 0,000 mm 0,0 UV-I 9 W/m 14,6 C 1,6 km/h (1 Bft)
13.08.2016 20:22 18,9 C 18,9 C 77 % 1022,1 hPa 0,0 mm 0,8 km/h (0 Bft) W-SW 240 0 min 0,000 mm 0,0 UV-I 9 W/m 14,8 C 1,6 km/h (1 Bft)
13.08.2016 20:23 18,8 C 18,9 C 77 % 1022,0 hPa 0,0 mm 1,1 km/h (1 Bft) W-SW 240 0 min 0,000 mm 0,0 UV-I 7 W/m 14,7 C 1,6 km/h (1 Bft)
13.08.2016 20:24 18,7 C 18,8 C 77 % 1022,1 hPa 0,0 mm 1,7 km/h (1 Bft) W-SW 240 0 min 0,000 mm 0,0 UV-I 5 W/m 14,6 C 3,2 km/h (1 Bft)
13.08.2016 20:25 18,6 C 18,7 C 77 % 1022,1 hPa 0,0 mm 1,6 km/h (1 Bft) W-SW 240 0 min 0,000 mm 0,0 UV-I 5 W/m 14,5 C 1,6 km/h (1 Bft)
13.08.2016 20:26 18,5 C 18,6 C 78 % 1022,1 hPa 0,0 mm 1,7 km/h (1 Bft) W-SW 240 0 min 0,000 mm 0,0 UV-I 5 W/m 14,6 C 3,2 km/h (1 Bft)
13.08.2016 20:27 18,4 C 18,5 C 78 % 1022,1 hPa 0,0 mm 1,4 km/h (1 Bft) W-SW 240 0 min 0,000 mm 0,0 UV-I 5 W/m 14,5 C 3,2 km/h (1 Bft)
13.08.2016 20:28 18,2 C 18,4 C 79 % 1022,1 hPa 0,0 mm 0,8 km/h (0 Bft) W-SW 240 0 min 0,000 mm 0,0 UV-I 5 W/m 14,5 C 1,6 km/h (1 Bft)
13.08.2016 20:29 18,1 C 18,2 C 80 % 1022,1 hPa 0,0 mm 1,6 km/h (1 Bft) W-SW 240 0 min 0,000 mm 0,0 UV-I 5 W/m 14,6 C 3,2 km/h (1 Bft)
13.08.2016 20:30 17,9 C 18,1 C 80 % 1022,1 hPa 0,0 mm 2,0 km/h (1 Bft) W-SW 240 0 min 0,000 mm 0,0 UV-I 5 W/m 14,4 C 3,2 km/h (1 Bft)
13.08.2016 20:31 18,0 C 18,0 C 80 % 1022,1 hPa 0,0 mm 1,5 km/h (1 Bft) W-SW 240 0 min 0,000 mm 0,0 UV-I 0 W/m 14,5 C 1,6 km/h (1 Bft)
13.08.2016 20:32 17,9 C 18,0 C 80 % 1022,1 hPa 0,0 mm 0,8 km/h (0 Bft) W-SW 240 0 min 0,000 mm 0,0 UV-I 0 W/m 14,4 C 1,6 km/h (1 Bft)
13.08.2016 20:33 17,9 C 18,0 C 80 % 1022,1 hPa 0,0 mm 1,4 km/h (1 Bft) W-SW 240 0 min 0,000 mm 0,0 UV-I 0 W/m 14,4 C 3,2 km/h (1 Bft)
13.08.2016 20:34 17,7 C 17,9 C 81 % 1022,1 hPa 0,0 mm 1,4 km/h (1 Bft) SW 234 0 min 0,000 mm 0,0 UV-I 0 W/m 14,4 C 1,6 km/h (1 Bft)
13.08.2016 20:35 17,7 C 17,7 C 81 % 1022,1 hPa 0,0 mm 2,7 km/h (1 Bft) S-SW 196 0 min 0,000 mm 0,0 UV-I 0 W/m 14,4 C 3,2 km/h (1 Bft)
13.08.2016 20:36 17,7 C 17,7 C 81 % 1022,1 hPa 0,0 mm 2,1 km/h (1 Bft) S-SW 196 0 min 0,000 mm 0,0 UV-I 0 W/m 14,4 C 3,2 km/h (1 Bft)
13.08.2016 20:37 17,8 C 17,8 C 81 % 1022,1 hPa 0,0 mm 1,1 km/h (1 Bft) S-SW 196 0 min 0,000 mm 0,0 UV-I 0 W/m 14,5 C 3,2 km/h (1 Bft)
13.08.2016 20:38 17,8 C 17,8 C 81 % 1022,0 hPa 0,0 mm 1,1 km/h (1 Bft) S-SW 196 0 min 0,000 mm 0,0 UV-I 0 W/m 14,5 C 1,6 km/h (1 Bft)
13.08.2016 20:39 17,9 C 17,9 C 80 % 1022,1 hPa 0,0 mm 1,0 km/h (0 Bft) S-SW 196 0 min 0,000 mm 0,0 UV-I 0 W/m 14,4 C 1,6 km/h (1 Bft)
13.08.2016 20:40 17,8 C 17,9 C 80 % 1022,1 hPa 0,0 mm 0,5 km/h (0 Bft) S-SW 196 0 min 0,000 mm 0,0 UV-I 0 W/m 14,3 C 1,6 km/h (1 Bft)
13.08.2016 20:41 17,6 C 17,8 C 81 % 1022,1 hPa 0,0 mm 0,0 km/h (0 Bft) S-SW 196 0 min 0,000 mm 0,0 UV-I 0 W/m 14,3 C 0,0 km/h (0 Bft)
13.08.2016 20:42 17,3 C 17,6 C 81 % 1022,1 hPa 0,0 mm 0,1 km/h (0 Bft) S-SW 196 0 min 0,000 mm 0,0 UV-I 0 W/m 14,0 C 1,6 km/h (1 Bft)
13.08.2016 20:43 17,3 C 17,3 C 82 % 1022,0 hPa 0,0 mm 1,1 km/h (1 Bft) S-SW 196 0 min 0,000 mm 0,0 UV-I 0 W/m 14,2 C 1,6 km/h (1 Bft)
13.08.2016 20:44 17,2 C 17,3 C 83 % 1022,0 hPa 0,0 mm 1,1 km/h (1 Bft) S-SW 196 0 min 0,000 mm 0,0 UV-I 0 W/m 14,3 C 1,6 km/h (1 Bft)
13.08.2016 20:45 17,2 C 17,2 C 83 % 1022,0 hPa 0,0 mm 1,0 km/h (0 Bft) S-SW 196 0 min 0,000 mm 0,0 UV-I 0 W/m 14,3 C 1,6 km/h (1 Bft)
13.08.2016 20:46 17,1 C 17,2 C 83 % 1022,0 hPa 0,0 mm 1,5 km/h (1 Bft) S-SW 196 0 min 0,000 mm 0,0 UV-I 0 W/m 14,2 C 3,2 km/h (1 Bft)
13.08.2016 20:47 17,1 C 17,1 C 83 % 1022,0 hPa 0,0 mm 1,3 km/h (1 Bft) S-SW 196 0 min 0,000 mm 0,0 UV-I 0 W/m 14,2 C 3,2 km/h (1 Bft)
13.08.2016 20:48 17,0 C 17,1 C 83 % 1022,0 hPa 0,0 mm 1,9 km/h (1 Bft) S-SW 196 0 min 0,000 mm 0,0 UV-I 0 W/m 14,1 C 3,2 km/h (1 Bft)
13.08.2016 20:49 16,9 C 17,0 C 84 % 1022,1 hPa 0,0 mm 2,2 km/h (1 Bft) S-SW 196 0 min 0,000 mm 0,0 UV-I 0 W/m 14,2 C 3,2 km/h (1 Bft)
13.08.2016 20:50 16,8 C 16,9 C 83 % 1022,1 hPa 0,0 mm 2,1 km/h (1 Bft) S-SW 196 0 min 0,000 mm 0,0 UV-I 0 W/m 13,9 C 3,2 km/h (1 Bft)
13.08.2016 20:51 16,7 C 16,8 C 84 % 1022,0 hPa 0,0 mm 1,3 km/h (1 Bft) S-SW 196 0 min 0,000 mm 0,0 UV-I 0 W/m 14,0 C 3,2 km/h (1 Bft)
13.08.2016 20:52 16,7 C 16,7 C 85 % 1022,1 hPa 0,0 mm 1,5 km/h (1 Bft) S-SW 196 0 min 0,000 mm 0,0 UV-I 0 W/m 14,2 C 3,2 km/h (1 Bft)
13.08.2016 20:53 16,7 C 16,7 C 85 % 1022,1 hPa 0,0 mm 0,8 km/h (0 Bft) S-SW 196 0 min 0,000 mm 0,0 UV-I 0 W/m 14,2 C 1,6 km/h (1 Bft)
13.08.2016 20:54 16,7 C 16,7 C 84 % 1022,1 hPa 0,0 mm 1,2 km/h (1 Bft) S-SW 196 0 min 0,000 mm 0,0 UV-I 0 W/m 14,0 C 1,6 km/h (1 Bft)
13.08.2016 20:55 16,7 C 16,7 C 84 % 1022,1 hPa 0,0 mm 1,4 km/h (1 Bft) S-SW 196 0 min 0,000 mm 0,0 UV-I 0 W/m 14,0 C 3,2 km/h (1 Bft)
13.08.2016 20:56 16,7 C 16,7 C 85 % 1022,1 hPa 0,0 mm 2,3 km/h (1 Bft) S-SW 196 0 min 0,000 mm 0,0 UV-I 0 W/m 14,2 C 3,2 km/h (1 Bft)
13.08.2016 20:57 16,8 C 16,8 C 84 % 1022,1 hPa 0,0 mm 2,5 km/h (1 Bft) S-SW 193 0 min 0,000 mm 0,0 UV-I 0 W/m 14,1 C 3,2 km/h (1 Bft)
13.08.2016 20:58 16,8 C 16,8 C 84 % 1022,2 hPa 0,0 mm 2,1 km/h (1 Bft) S-SW 192 0 min 0,000 mm 0,0 UV-I 0 W/m 14,1 C 3,2 km/h (1 Bft)
13.08.2016 20:59 16,9 C 16,9 C 84 % 1022,2 hPa 0,0 mm 2,2 km/h (1 Bft) S-SW 192 0 min 0,000 mm 0,0 UV-I 0 W/m 14,2 C 3,2 km/h (1 Bft)
13.08.2016 21:00 16,9 C 16,9 C 84 % 1022,2 hPa 0,0 mm 3,0 km/h (1 Bft) S 178 0 min 0,000 mm 0,0 UV-I 0 W/m 14,2 C 4,8 km/h (1 Bft)
13.08.2016 21:01 16,9 C 16,9 C 84 % 1022,2 hPa 0,0 mm 1,7 km/h (1 Bft) S 178 0 min 0,000 mm 0,0 UV-I 0 W/m 14,2 C 3,2 km/h (1 Bft)
13.08.2016 21:02 16,9 C 16,9 C 84 % 1022,2 hPa 0,0 mm 2,1 km/h (1 Bft) S 178 0 min 0,000 mm 0,0 UV-I 0 W/m 14,2 C 3,2 km/h (1 Bft)
13.08.2016 21:03 16,9 C 16,9 C 84 % 1022,2 hPa 0,0 mm 0,8 km/h (0 Bft) S 178 0 min 0,000 mm 0,0 UV-I 0 W/m 14,2 C 1,6 km/h (1 Bft)
13.08.2016 21:04 17,0 C 17,0 C 84 % 1022,2 hPa 0,0 mm 0,3 km/h (0 Bft) S 178 0 min 0,000 mm 0,0 UV-I 0 W/m 14,3 C 1,6 km/h (1 Bft)
13.08.2016 21:05 17,0 C 17,0 C 84 % 1022,2 hPa 0,0 mm 0,3 km/h (0 Bft) S 178 0 min 0,000 mm 0,0 UV-I 0 W/m 14,3 C 1,6 km/h (1 Bft)
13.08.2016 21:06 16,9 C 17,0 C 84 % 1022,2 hPa 0,0 mm 1,3 km/h (1 Bft) S 178 0 min 0,000 mm 0,0 UV-I 0 W/m 14,2 C 3,2 km/h (1 Bft)
13.08.2016 21:07 16,9 C 16,9 C 83 % 1022,2 hPa 0,0 mm 1,6 km/h (1 Bft) S 178 0 min 0,000 mm 0,0 UV-I 0 W/m 14,0 C 3,2 km/h (1 Bft)
13.08.2016 21:08 16,8 C 16,9 C 84 % 1022,2 hPa 0,0 mm 0,9 km/h (0 Bft) S 178 0 min 0,000 mm 0,0 UV-I 0 W/m 14,1 C 1,6 km/h (1 Bft)
13.08.2016 21:09 16,8 C 16,8 C 83 % 1022,3 hPa 0,0 mm 1,4 km/h (1 Bft) S 179 0 min 0,000 mm 0,0 UV-I 0 W/m 13,9 C 3,2 km/h (1 Bft)
13.08.2016 21:10 16,6 C 16,8 C 83 % 1022,4 hPa 0,0 mm 2,7 km/h (1 Bft) S 179 0 min 0,000 mm 0,0 UV-I 0 W/m 13,7 C 3,2 km/h (1 Bft)
13.08.2016 21:11 16,4 C 16,6 C 84 % 1022,4 hPa 0,0 mm 1,5 km/h (1 Bft) S 179 0 min 0,000 mm 0,0 UV-I 0 W/m 13,7 C 3,2 km/h (1 Bft)
13.08.2016 21:12 16,3 C 16,4 C 84 % 1022,4 hPa 0,0 mm 1,5 km/h (1 Bft) S 179 0 min 0,000 mm 0,0 UV-I 0 W/m 13,6 C 3,2 km/h (1 Bft)
13.08.2016 21:13 16,2 C 16,3 C 84 % 1022,4 hPa 0,0 mm 1,3 km/h (1 Bft) S 179 0 min 0,000 mm 0,0 UV-I 0 W/m 13,5 C 3,2 km/h (1 Bft)
13.08.2016 21:14 16,1 C 16,2 C 85 % 1022,4 hPa 0,0 mm 0,1 km/h (0 Bft) S 179 0 min 0,000 mm 0,0 UV-I 0 W/m 13,6 C 1,6 km/h (1 Bft)
13.08.2016 21:15 16,1 C 16,1 C 85 % 1022,5 hPa 0,0 mm 0,2 km/h (0 Bft) S 179 0 min 0,000 mm 0,0 UV-I 0 W/m 13,6 C 1,6 km/h (1 Bft)
13.08.2016 21:16 16,1 C 16,1 C 86 % 1022,5 hPa 0,0 mm 2,1 km/h (1 Bft) S 179 0 min 0,000 mm 0,0 UV-I 0 W/m 13,8 C 3,2 km/h (1 Bft)
13.08.2016 21:17 16,2 C 16,2 C 85 % 1022,5 hPa 0,0 mm 2,9 km/h (1 Bft) S 179 0 min 0,000 mm 0,0 UV-I 0 W/m 13,7 C 3,2 km/h (1 Bft)
13.08.2016 21:18 16,3 C 16,3 C 85 % 1022,5 hPa 0,0 mm 3,4 km/h (1 Bft) S 179 0 min 0,000 mm 0,0 UV-I 0 W/m 13,8 C 4,8 km/h (1 Bft)
13.08.2016 21:19 16,3 C 16,3 C 85 % 1022,5 hPa 0,0 mm 2,7 km/h (1 Bft) S 177 0 min 0,000 mm 0,0 UV-I 0 W/m 13,8 C 3,2 km/h (1 Bft)
13.08.2016 21:20 16,4 C 16,4 C 85 % 1022,5 hPa 0,0 mm 2,7 km/h (1 Bft) S 177 0 min 0,000 mm 0,0 UV-I 0 W/m 13,9 C 3,2 km/h (1 Bft)
13.08.2016 21:21 16,4 C 16,4 C 85 % 1022,5 hPa 0,0 mm 2,3 km/h (1 Bft) S 177 0 min 0,000 mm 0,0 UV-I 0 W/m 13,9 C 3,2 km/h (1 Bft)
13.08.2016 21:22 16,4 C 16,4 C 85 % 1022,5 hPa 0,0 mm 1,3 km/h (1 Bft) S 177 0 min 0,000 mm 0,0 UV-I 0 W/m 13,9 C 1,6 km/h (1 Bft)
13.08.2016 21:23 16,4 C 16,4 C 85 % 1022,5 hPa 0,0 mm 0,8 km/h (0 Bft) S 177 0 min 0,000 mm 0,0 UV-I 0 W/m 13,9 C 1,6 km/h (1 Bft)
13.08.2016 21:24 16,5 C 16,5 C 85 % 1022,5 hPa 0,0 mm 1,4 km/h (1 Bft) S 178 0 min 0,000 mm 0,0 UV-I 0 W/m 14,0 C 3,2 km/h (1 Bft)
13.08.2016 21:25 16,5 C 16,5 C 85 % 1022,5 hPa 0,0 mm 1,8 km/h (1 Bft) S 177 0 min 0,000 mm 0,0 UV-I 0 W/m 14,0 C 3,2 km/h (1 Bft)
13.08.2016 21:26 16,5 C 16,6 C 84 % 1022,5 hPa 0,0 mm 1,7 km/h (1 Bft) S 177 0 min 0,000 mm 0,0 UV-I 0 W/m 13,8 C 3,2 km/h (1 Bft)
13.08.2016 21:27 16,6 C 16,6 C 84 % 1022,5 hPa 0,0 mm 1,5 km/h (1 Bft) S 177 0 min 0,000 mm 0,0 UV-I 0 W/m 13,9 C 3,2 km/h (1 Bft)
13.08.2016 21:28 16,5 C 16,6 C 84 % 1022,5 hPa 0,0 mm 1,4 km/h (1 Bft) S 177 0 min 0,000 mm 0,0 UV-I 0 W/m 13,8 C 3,2 km/h (1 Bft)
13.08.2016 21:29 16,5 C 16,5 C 85 % 1022,5 hPa 0,0 mm 1,8 km/h (1 Bft) S 177 0 min 0,000 mm 0,0 UV-I 0 W/m 14,0 C 3,2 km/h (1 Bft)
13.08.2016 21:30 16,4 C 16,5 C 85 % 1022,5 hPa 0,0 mm 2,2 km/h (1 Bft) S 177 0 min 0,000 mm 0,0 UV-I 0 W/m 13,9 C 3,2 km/h (1 Bft)
13.08.2016 21:31 16,4 C 16,4 C 85 % 1022,6 hPa 0,0 mm 3,3 km/h (1 Bft) S 177 0 min 0,000 mm 0,0 UV-I 0 W/m 13,9 C 4,8 km/h (1 Bft)
13.08.2016 21:32 16,4 C 16,4 C 85 % 1022,6 hPa 0,0 mm 4,0 km/h (1 Bft) S 177 0 min 0,000 mm 0,0 UV-I 0 W/m 13,9 C 4,8 km/h (1 Bft)
13.08.2016 21:33 16,4 C 16,4 C 85 % 1022,6 hPa 0,0 mm 4,6 km/h (1 Bft) S-SO 162 0 min 0,000 mm 0,0 UV-I 0 W/m 13,9 C 6,4 km/h (2 Bft)
13.08.2016 21:34 16,4 C 16,4 C 85 % 1022,5 hPa 0,0 mm 5,6 km/h (1 Bft) S-SO 162 0 min 0,000 mm 0,0 UV-I 0 W/m 13,9 C 6,4 km/h (2 Bft)
13.08.2016 21:35 16,3 C 16,4 C 85 % 1022,5 hPa 0,0 mm 5,6 km/h (1 Bft) S-SO 162 0 min 0,000 mm 0,0 UV-I 0 W/m 13,8 C 8,0 km/h (2 Bft)
13.08.2016 21:36 16,3 C 16,3 C 85 % 1022,6 hPa 0,0 mm 5,2 km/h (1 Bft) S-SO 162 0 min 0,000 mm 0,0 UV-I 0 W/m 13,8 C 6,4 km/h (2 Bft)
13.08.2016 21:37 16,3 C 16,3 C 85 % 1022,5 hPa 0,0 mm 4,4 km/h (1 Bft) S-SO 162 0 min 0,000 mm 0,0 UV-I 0 W/m 13,8 C 6,4 km/h (2 Bft)
13.08.2016 21:38 16,2 C 16,3 C 85 % 1022,5 hPa 0,0 mm 2,9 km/h (1 Bft) S-SO 162 0 min 0,000 mm 0,0 UV-I 0 W/m 13,7 C 6,4 km/h (2 Bft)
13.08.2016 21:39 16,2 C 16,2 C 85 % 1022,5 hPa 0,0 mm 3,9 km/h (1 Bft) S-SO 162 0 min 0,000 mm 0,0 UV-I 0 W/m 13,7 C 6,4 km/h (2 Bft)
13.08.2016 21:40 16,1 C 16,2 C 85 % 1022,5 hPa 0,0 mm 5,0 km/h (1 Bft) S-SO 162 0 min 0,000 mm 0,0 UV-I 0 W/m 13,6 C 6,4 km/h (2 Bft)
13.08.2016 21:41 16,1 C 16,1 C 86 % 1022,5 hPa 0,0 mm 5,2 km/h (1 Bft) S-SO 162 0 min 0,000 mm 0,0 UV-I 0 W/m 13,8 C 6,4 km/h (2 Bft)
13.08.2016 21:42 16,1 C 16,1 C 86 % 1022,5 hPa 0,0 mm 5,6 km/h (1 Bft) S-SO 162 0 min 0,000 mm 0,0 UV-I 0 W/m 13,8 C 6,4 km/h (2 Bft)
13.08.2016 21:43 16,1 C 16,2 C 85 % 1022,5 hPa 0,0 mm 4,2 km/h (1 Bft) S-SO 162 0 min 0,000 mm 0,0 UV-I 0 W/m 13,6 C 6,4 km/h (2 Bft)
13.08.2016 21:44 16,1 C 16,1 C 86 % 1022,5 hPa 0,0 mm 6,0 km/h (2 Bft) S-SO 167 0 min 0,000 mm 0,0 UV-I 0 W/m 13,8 C 8,0 km/h (2 Bft)
13.08.2016 21:45 16,1 C 16,2 C 86 % 1022,5 hPa 0,0 mm 6,2 km/h (2 Bft) S-SO 167 0 min 0,000 mm 0,0 UV-I 0 W/m 13,8 C 6,4 km/h (2 Bft)
13.08.2016 21:46 16,1 C 16,2 C 86 % 1022,5 hPa 0,0 mm 5,6 km/h (1 Bft) S-SO 167 0 min 0,000 mm 0,0 UV-I 0 W/m 13,8 C 6,4 km/h (2 Bft)
13.08.2016 21:47 16,2 C 16,2 C 86 % 1022,5 hPa 0,0 mm 5,1 km/h (1 Bft) S-SO 167 0 min 0,000 mm 0,0 UV-I 0 W/m 13,9 C 6,4 km/h (2 Bft)
13.08.2016 21:48 16,1 C 16,2 C 85 % 1022,4 hPa 0,0 mm 5,1 km/h (1 Bft) S-SO 168 0 min 0,000 mm 0,0 UV-I 0 W/m 13,6 C 6,4 km/h (2 Bft)
13.08.2016 21:49 16,1 C 16,1 C 85 % 1022,5 hPa 0,0 mm 3,8 km/h (1 Bft) S 169 0 min 0,000 mm 0,0 UV-I 0 W/m 13,6 C 6,4 km/h (2 Bft)
13.08.2016 21:50 15,9 C 16,1 C 85 % 1022,5 hPa 0,0 mm 4,4 km/h (1 Bft) S 174 0 min 0,000 mm 0,0 UV-I 0 W/m 13,4 C 6,4 km/h (2 Bft)
13.08.2016 21:51 15,8 C 15,9 C 85 % 1022,4 hPa 0,0 mm 3,6 km/h (1 Bft) S 175 0 min 0,000 mm 0,0 UV-I 0 W/m 13,3 C 4,8 km/h (1 Bft)
13.08.2016 21:52 15,7 C 15,8 C 86 % 1022,4 hPa 0,0 mm 4,2 km/h (1 Bft) S 174 0 min 0,000 mm 0,0 UV-I 0 W/m 13,4 C 4,8 km/h (1 Bft)
13.08.2016 21:53 15,7 C 15,7 C 87 % 1022,4 hPa 0,0 mm 3,6 km/h (1 Bft) S 173 0 min 0,000 mm 0,0 UV-I 0 W/m 13,5 C 4,8 km/h (1 Bft)
13.08.2016 21:54 15,8 C 15,8 C 87 % 1022,4 hPa 0,0 mm 3,6 km/h (1 Bft) S 173 0 min 0,000 mm 0,0 UV-I 0 W/m 13,6 C 4,8 km/h (1 Bft)
13.08.2016 21:55 15,8 C 15,8 C 87 % 1022,4 hPa 0,0 mm 2,5 km/h (1 Bft) S 173 0 min 0,000 mm 0,0 UV-I 0 W/m 13,6 C 3,2 km/h (1 Bft)
13.08.2016 21:56 15,9 C 15,9 C 87 % 1022,4 hPa 0,0 mm 2,9 km/h (1 Bft) S 174 0 min 0,000 mm 0,0 UV-I 0 W/m 13,7 C 3,2 km/h (1 Bft)
13.08.2016 21:57 15,8 C 15,9 C 86 % 1022,5 hPa 0,0 mm 3,0 km/h (1 Bft) S 174 0 min 0,000 mm 0,0 UV-I 0 W/m 13,5 C 4,8 km/h (1 Bft)
13.08.2016 21:58 15,7 C 15,8 C 86 % 1022,4 hPa 0,0 mm 3,2 km/h (1 Bft) S 174 0 min 0,000 mm 0,0 UV-I 0 W/m 13,4 C 4,8 km/h (1 Bft)
13.08.2016 21:59 15,5 C 15,7 C 86 % 1022,4 hPa 0,0 mm 2,9 km/h (1 Bft) S 175 0 min 0,000 mm 0,0 UV-I 0 W/m 13,2 C 4,8 km/h (1 Bft)
13.08.2016 22:00 15,4 C 15,6 C 87 % 1022,4 hPa 0,0 mm 3,2 km/h (1 Bft) S 174 0 min 0,000 mm 0,0 UV-I 0 W/m 13,2 C 4,8 km/h (1 Bft)
13.08.2016 22:01 15,4 C 15,4 C 88 % 1022,4 hPa 0,0 mm 2,9 km/h (1 Bft) S 175 0 min 0,025 mm 0,0 UV-I 0 W/m 13,4 C 4,8 km/h (1 Bft)
13.08.2016 22:02 15,3 C 15,4 C 87 % 1022,5 hPa 0,0 mm 3,0 km/h (1 Bft) S 175 0 min 0,000 mm 0,0 UV-I 0 W/m 13,1 C 4,8 km/h (1 Bft)
13.08.2016 22:03 15,2 C 15,3 C 88 % 1022,5 hPa 0,0 mm 2,4 km/h (1 Bft) S 175 0 min 0,000 mm 0,0 UV-I 0 W/m 13,2 C 4,8 km/h (1 Bft)
13.08.2016 22:04 15,2 C 15,2 C 88 % 1022,4 hPa 0,0 mm 2,3 km/h (1 Bft) S 175 0 min 0,000 mm 0,0 UV-I 0 W/m 13,2 C 4,8 km/h (1 Bft)
13.08.2016 22:05 15,1 C 15,2 C 88 % 1022,5 hPa 0,0 mm 2,5 km/h (1 Bft) S 175 0 min 0,000 mm 0,0 UV-I 0 W/m 13,1 C 4,8 km/h (1 Bft)
13.08.2016 22:06 15,1 C 15,1 C 88 % 1022,5 hPa 0,0 mm 2,1 km/h (1 Bft) S 175 0 min 0,000 mm 0,0 UV-I 0 W/m 13,1 C 3,2 km/h (1 Bft)
13.08.2016 22:07 15,2 C 15,2 C 89 % 1022,5 hPa 0,0 mm 1,2 km/h (1 Bft) S 175 0 min 0,000 mm 0,0 UV-I 0 W/m 13,4 C 1,6 km/h (1 Bft)
13.08.2016 22:08 15,2 C 15,2 C 88 % 1022,5 hPa 0,0 mm 0,9 km/h (0 Bft) S 175 0 min 0,000 mm 0,0 UV-I 0 W/m 13,2 C 3,2 km/h (1 Bft)
13.08.2016 22:09 15,2 C 15,2 C 88 % 1022,5 hPa 0,0 mm 2,5 km/h (1 Bft) S 175 0 min 0,000 mm 0,0 UV-I 0 W/m 13,2 C 3,2 km/h (1 Bft)
13.08.2016 22:10 15,1 C 15,2 C 88 % 1022,6 hPa 0,0 mm 1,9 km/h (1 Bft) S 175 0 min 0,000 mm 0,0 UV-I 0 W/m 13,1 C 3,2 km/h (1 Bft)
13.08.2016 22:11 15,0 C 15,1 C 87 % 1022,6 hPa 0,0 mm 1,9 km/h (1 Bft) S 175 0 min 0,000 mm 0,0 UV-I 0 W/m 12,9 C 3,2 km/h (1 Bft)
13.08.2016 22:12 15,0 C 15,0 C 88 % 1022,6 hPa 0,0 mm 1,3 km/h (1 Bft) S 175 0 min 0,000 mm 0,0 UV-I 0 W/m 13,0 C 3,2 km/h (1 Bft)
13.08.2016 22:13 15,0 C 15,1 C 89 % 1022,6 hPa 0,0 mm 1,3 km/h (1 Bft) S 175 0 min 0,000 mm 0,0 UV-I 0 W/m 13,2 C 3,2 km/h (1 Bft)
13.08.2016 22:14 15,1 C 15,1 C 88 % 1022,6 hPa 0,0 mm 1,1 km/h (1 Bft) S 175 0 min 0,000 mm 0,0 UV-I 0 W/m 13,1 C 3,2 km/h (1 Bft)
13.08.2016 22:15 15,1 C 15,1 C 88 % 1022,6 hPa 0,0 mm 1,5 km/h (1 Bft) S 175 0 min 0,000 mm 0,0 UV-I 0 W/m 13,1 C 3,2 km/h (1 Bft)
13.08.2016 22:16 15,1 C 15,1 C 89 % 1022,6 hPa 0,0 mm 1,7 km/h (1 Bft) S 174 0 min 0,000 mm 0,0 UV-I 0 W/m 13,3 C 3,2 km/h (1 Bft)
13.08.2016 22:17 15,1 C 15,1 C 88 % 1022,6 hPa 0,0 mm 1,7 km/h (1 Bft) S 175 0 min 0,000 mm 0,0 UV-I 0 W/m 13,1 C 3,2 km/h (1 Bft)
13.08.2016 22:18 15,1 C 15,1 C 88 % 1022,6 hPa 0,0 mm 2,1 km/h (1 Bft) S 175 0 min 0,000 mm 0,0 UV-I 0 W/m 13,1 C 3,2 km/h (1 Bft)
13.08.2016 22:19 15,1 C 15,1 C 89 % 1022,6 hPa 0,0 mm 0,5 km/h (0 Bft) S 175 0 min 0,000 mm 0,0 UV-I 0 W/m 13,3 C 1,6 km/h (1 Bft)
13.08.2016 22:20 15,1 C 15,1 C 88 % 1022,6 hPa 0,0 mm 0,8 km/h (0 Bft) S 175 0 min 0,000 mm 0,0 UV-I 0 W/m 13,1 C 3,2 km/h (1 Bft)
13.08.2016 22:21 15,1 C 15,2 C 88 % 1022,6 hPa 0,0 mm 1,3 km/h (1 Bft) S 174 0 min 0,000 mm 0,0 UV-I 0 W/m 13,1 C 3,2 km/h (1 Bft)
13.08.2016 22:22 15,2 C 15,2 C 89 % 1022,6 hPa 0,0 mm 0,0 km/h (0 Bft) S 175 0 min 0,000 mm 0,0 UV-I 0 W/m 13,4 C 0,0 km/h (0 Bft)
13.08.2016 22:23 15,2 C 15,2 C 88 % 1022,6 hPa 0,0 mm 0,0 km/h (0 Bft) S 175 0 min 0,000 mm 0,0 UV-I 0 W/m 13,2 C 0,0 km/h (0 Bft)
13.08.2016 22:24 15,2 C 15,2 C 88 % 1022,6 hPa 0,0 mm 0,0 km/h (0 Bft) S 175 0 min 0,000 mm 0,0 UV-I 0 W/m 13,2 C 0,0 km/h (0 Bft)
13.08.2016 22:25 15,3 C 15,3 C 88 % 1022,6 hPa 0,0 mm 0,0 km/h (0 Bft) S 175 0 min 0,000 mm 0,0 UV-I 0 W/m 13,3 C 0,0 km/h (0 Bft)
13.08.2016 22:26 15,3 C 15,3 C 88 % 1022,5 hPa 0,0 mm 0,0 km/h (0 Bft) S 175 0 min 0,000 mm 0,0 UV-I 0 W/m 13,3 C 0,0 km/h (0 Bft)
13.08.2016 22:27 15,3 C 15,3 C 88 % 1022,5 hPa 0,0 mm 0,0 km/h (0 Bft) S 175 0 min 0,000 mm 0,0 UV-I 0 W/m 13,3 C 0,0 km/h (0 Bft)
13.08.2016 22:28 15,3 C 15,3 C 88 % 1022,5 hPa 0,0 mm 0,0 km/h (0 Bft) S 175 0 min 0,000 mm 0,0 UV-I 0 W/m 13,3 C 0,0 km/h (0 Bft)
13.08.2016 22:29 15,3 C 15,3 C 88 % 1022,5 hPa 0,0 mm 0,0 km/h (0 Bft) S 175 0 min 0,000 mm 0,0 UV-I 0 W/m 13,3 C 0,0 km/h (0 Bft)
13.08.2016 22:30 15,4 C 15,4 C 88 % 1022,5 hPa 0,0 mm 0,0 km/h (0 Bft) S 175 0 min 0,000 mm 0,0 UV-I 0 W/m 13,4 C 0,0 km/h (0 Bft)
13.08.2016 22:31 15,4 C 15,4 C 88 % 1022,5 hPa 0,0 mm 0,0 km/h (0 Bft) S 175 0 min 0,000 mm 0,0 UV-I 0 W/m 13,4 C 0,0 km/h (0 Bft)
13.08.2016 22:32 15,4 C 15,4 C 88 % 1022,5 hPa 0,0 mm 0,0 km/h (0 Bft) SW 226 0 min 0,000 mm 0,0 UV-I 0 W/m 13,4 C 0,0 km/h (0 Bft)
13.08.2016 22:33 15,4 C 15,4 C 88 % 1022,5 hPa 0,0 mm 0,0 km/h (0 Bft) SW 226 0 min 0,000 mm 0,0 UV-I 0 W/m 13,4 C 0,0 km/h (0 Bft)
13.08.2016 22:34 15,4 C 15,4 C 87 % 1022,5 hPa 0,0 mm 0,0 km/h (0 Bft) SW 225 0 min 0,000 mm 0,0 UV-I 0 W/m 13,2 C 0,0 km/h (0 Bft)
13.08.2016 22:35 15,4 C 15,4 C 88 % 1022,5 hPa 0,0 mm 0,0 km/h (0 Bft) SW 225 0 min 0,000 mm 0,0 UV-I 0 W/m 13,4 C 0,0 km/h (0 Bft)
13.08.2016 22:36 15,5 C 15,5 C 88 % 1022,5 hPa 0,0 mm 0,0 km/h (0 Bft) SW 225 0 min 0,000 mm 0,0 UV-I 0 W/m 13,5 C 0,0 km/h (0 Bft)
13.08.2016 22:37 15,4 C 15,5 C 88 % 1022,5 hPa 0,0 mm 0,0 km/h (0 Bft) SW 225 0 min 0,000 mm 0,0 UV-I 0 W/m 13,4 C 0,0 km/h (0 Bft)
13.08.2016 22:38 15,5 C 15,5 C 87 % 1022,5 hPa 0,0 mm 0,0 km/h (0 Bft) SW 225 0 min 0,000 mm 0,0 UV-I 0 W/m 13,3 C 0,0 km/h (0 Bft)
13.08.2016 22:39 15,4 C 15,5 C 87 % 1022,5 hPa 0,0 mm 0,0 km/h (0 Bft) SW 225 0 min 0,000 mm 0,0 UV-I 0 W/m 13,2 C 0,0 km/h (0 Bft)
13.08.2016 22:40 15,4 C 15,5 C 88 % 1022,5 hPa 0,0 mm 0,0 km/h (0 Bft) SW 225 0 min 0,000 mm 0,0 UV-I 0 W/m 13,4 C 0,0 km/h (0 Bft)
13.08.2016 22:41 15,5 C 15,5 C 88 % 1022,5 hPa 0,0 mm 0,0 km/h (0 Bft) SW 225 0 min 0,000 mm 0,0 UV-I 0 W/m 13,5 C 0,0 km/h (0 Bft)
13.08.2016 22:42 15,5 C 15,5 C 88 % 1022,5 hPa 0,0 mm 0,0 km/h (0 Bft) SW 225 0 min 0,000 mm 0,0 UV-I 0 W/m 13,5 C 0,0 km/h (0 Bft)
13.08.2016 22:43 15,5 C 15,5 C 88 % 1022,5 hPa 0,0 mm 0,0 km/h (0 Bft) SW 225 0 min 0,000 mm 0,0 UV-I 0 W/m 13,5 C 0,0 km/h (0 Bft)
13.08.2016 22:44 15,4 C 15,5 C 88 % 1022,5 hPa 0,0 mm 0,0 km/h (0 Bft) SW 225 0 min 0,000 mm 0,0 UV-I 0 W/m 13,4 C 0,0 km/h (0 Bft)
13.08.2016 22:45 15,4 C 15,4 C 88 % 1022,5 hPa 0,0 mm 0,0 km/h (0 Bft) SW 225 0 min 0,000 mm 0,0 UV-I 0 W/m 13,4 C 0,0 km/h (0 Bft)
13.08.2016 22:46 15,3 C 15,4 C 89 % 1022,5 hPa 0,0 mm 0,0 km/h (0 Bft) SW 225 0 min 0,000 mm 0,0 UV-I 0 W/m 13,5 C 0,0 km/h (0 Bft)
13.08.2016 22:47 15,2 C 15,3 C 88 % 1022,5 hPa 0,0 mm 0,0 km/h (0 Bft) SW 225 0 min 0,000 mm 0,0 UV-I 0 W/m 13,2 C 0,0 km/h (0 Bft)
13.08.2016 22:48 15,1 C 15,2 C 88 % 1022,5 hPa 0,0 mm 0,0 km/h (0 Bft) SW 225 0 min 0,000 mm 0,0 UV-I 0 W/m 13,1 C 0,0 km/h (0 Bft)
13.08.2016 22:49 15,1 C 15,1 C 88 % 1022,5 hPa 0,0 mm 0,0 km/h (0 Bft) SW 225 0 min 0,000 mm 0,0 UV-I 0 W/m 13,1 C 0,0 km/h (0 Bft)
13.08.2016 22:50 15,0 C 15,1 C 89 % 1022,5 hPa 0,0 mm 0,0 km/h (0 Bft) SW 225 0 min 0,000 mm 0,0 UV-I 0 W/m 13,2 C 0,0 km/h (0 Bft)
13.08.2016 22:51 14,9 C 15,0 C 89 % 1022,5 hPa 0,0 mm 0,0 km/h (0 Bft) SW 225 0 min 0,000 mm 0,0 UV-I 0 W/m 13,1 C 0,0 km/h (0 Bft)
13.08.2016 22:52 14,8 C 14,9 C 89 % 1022,5 hPa 0,0 mm 0,0 km/h (0 Bft) SW 225 0 min 0,000 mm 0,0 UV-I 0 W/m 13,0 C 0,0 km/h (0 Bft)
13.08.2016 22:53 14,8 C 14,9 C 90 % 1022,5 hPa 0,0 mm 0,0 km/h (0 Bft) SW 225 0 min 0,000 mm 0,0 UV-I 0 W/m 13,2 C 0,0 km/h (0 Bft)
13.08.2016 22:54 14,8 C 14,8 C 90 % 1022,5 hPa 0,0 mm 0,0 km/h (0 Bft) SW 225 0 min 0,000 mm 0,0 UV-I 0 W/m 13,2 C 0,0 km/h (0 Bft)
13.08.2016 22:55 14,8 C 14,8 C 90 % 1022,5 hPa 0,0 mm 0,0 km/h (0 Bft) SW 225 0 min 0,000 mm 0,0 UV-I 0 W/m 13,2 C 0,0 km/h (0 Bft)
13.08.2016 22:56 14,8 C 14,8 C 90 % 1022,5 hPa 0,0 mm 0,0 km/h (0 Bft) SW 225 0 min 0,000 mm 0,0 UV-I 0 W/m 13,2 C 0,0 km/h (0 Bft)
13.08.2016 22:57 14,7 C 14,8 C 91 % 1022,6 hPa 0,0 mm 0,0 km/h (0 Bft) SW 225 0 min 0,000 mm 0,0 UV-I 0 W/m 13,2 C 0,0 km/h (0 Bft)
13.08.2016 22:58 14,7 C 14,7 C 91 % 1022,5 hPa 0,0 mm 0,0 km/h (0 Bft) SW 225 0 min 0,000 mm 0,0 UV-I 0 W/m 13,2 C 0,0 km/h (0 Bft)
13.08.2016 22:59 14,7 C 14,7 C 90 % 1022,5 hPa 0,0 mm 0,0 km/h (0 Bft) SW 225 0 min 0,000 mm 0,0 UV-I 0 W/m 13,1 C 0,0 km/h (0 Bft)
13.08.2016 23:00 14,6 C 14,7 C 90 % 1022,5 hPa 0,0 mm 0,0 km/h (0 Bft) SW 225 0 min 0,000 mm 0,0 UV-I 0 W/m 13,0 C 0,0 km/h (0 Bft)
13.08.2016 23:01 14,6 C 14,7 C 90 % 1022,5 hPa 0,0 mm 0,0 km/h (0 Bft) SW 225 0 min 0,000 mm 0,0 UV-I 0 W/m 13,0 C 0,0 km/h (0 Bft)
13.08.2016 23:02 14,6 C 14,6 C 90 % 1022,5 hPa 0,0 mm 0,0 km/h (0 Bft) SW 225 0 min 0,000 mm 0,0 UV-I 0 W/m 13,0 C 0,0 km/h (0 Bft)
13.08.2016 23:03 14,6 C 14,6 C 90 % 1022,5 hPa 0,0 mm 0,0 km/h (0 Bft) SW 225 0 min 0,000 mm 0,0 UV-I 0 W/m 13,0 C 0,0 km/h (0 Bft)
13.08.2016 23:04 14,5 C 14,6 C 90 % 1022,5 hPa 0,0 mm 0,0 km/h (0 Bft) SW 225 0 min 0,000 mm 0,0 UV-I 0 W/m 12,9 C 0,0 km/h (0 Bft)
13.08.2016 23:05 14,5 C 14,5 C 90 % 1022,5 hPa 0,0 mm 0,0 km/h (0 Bft) SW 225 0 min 0,000 mm 0,0 UV-I 0 W/m 12,9 C 0,0 km/h (0 Bft)
13.08.2016 23:06 14,4 C 14,5 C 90 % 1022,5 hPa 0,0 mm 0,0 km/h (0 Bft) SW 225 0 min 0,000 mm 0,0 UV-I 0 W/m 12,8 C 0,0 km/h (0 Bft)
13.08.2016 23:07 14,4 C 14,4 C 90 % 1022,5 hPa 0,0 mm 0,0 km/h (0 Bft) SW 225 0 min 0,000 mm 0,0 UV-I 0 W/m 12,8 C 0,0 km/h (0 Bft)
13.08.2016 23:08 14,4 C 14,4 C 90 % 1022,5 hPa 0,0 mm 0,0 km/h (0 Bft) SW 225 0 min 0,000 mm 0,0 UV-I 0 W/m 12,8 C 0,0 km/h (0 Bft)
13.08.2016 23:09 14,4 C 14,4 C 91 % 1022,5 hPa 0,0 mm 0,0 km/h (0 Bft) SW 225 0 min 0,000 mm 0,0 UV-I 0 W/m 12,9 C 0,0 km/h (0 Bft)
13.08.2016 23:10 14,4 C 14,4 C 91 % 1022,5 hPa 0,0 mm 0,0 km/h (0 Bft) SW 225 0 min 0,000 mm 0,0 UV-I 0 W/m 12,9 C 0,0 km/h (0 Bft)
13.08.2016 23:11 14,4 C 14,4 C 90 % 1022,5 hPa 0,0 mm 0,0 km/h (0 Bft) SW 225 0 min 0,000 mm 0,0 UV-I 0 W/m 12,8 C 0,0 km/h (0 Bft)
13.08.2016 23:12 14,4 C 14,4 C 91 % 1022,6 hPa 0,0 mm 0,0 km/h (0 Bft) SW 225 0 min 0,000 mm 0,0 UV-I 0 W/m 12,9 C 0,0 km/h (0 Bft)
13.08.2016 23:13 14,4 C 14,4 C 90 % 1022,6 hPa 0,0 mm 0,0 km/h (0 Bft) SW 225 0 min 0,000 mm 0,0 UV-I 0 W/m 12,8 C 0,0 km/h (0 Bft)
13.08.2016 23:14 14,3 C 14,4 C 90 % 1022,6 hPa 0,0 mm 0,0 km/h (0 Bft) SW 225 0 min 0,000 mm 0,0 UV-I 0 W/m 12,7 C 0,0 km/h (0 Bft)
13.08.2016 23:15 14,3 C 14,3 C 91 % 1022,6 hPa 0,0 mm 0,0 km/h (0 Bft) SW 225 0 min 0,000 mm 0,0 UV-I 0 W/m 12,8 C 0,0 km/h (0 Bft)
13.08.2016 23:16 14,3 C 14,3 C 91 % 1022,6 hPa 0,0 mm 0,0 km/h (0 Bft) SW 225 0 min 0,000 mm 0,0 UV-I 0 W/m 12,8 C 0,0 km/h (0 Bft)
13.08.2016 23:17 14,3 C 14,3 C 91 % 1022,6 hPa 0,0 mm 0,0 km/h (0 Bft) SW 225 0 min 0,000 mm 0,0 UV-I 0 W/m 12,8 C 0,0 km/h (0 Bft)
13.08.2016 23:18 14,2 C 14,3 C 91 % 1022,6 hPa 0,0 mm 0,0 km/h (0 Bft) SW 225 0 min 0,000 mm 0,0 UV-I 0 W/m 12,8 C 0,0 km/h (0 Bft)
13.08.2016 23:19 14,2 C 14,2 C 91 % 1022,6 hPa 0,0 mm 0,0 km/h (0 Bft) SW 225 0 min 0,000 mm 0,0 UV-I 0 W/m 12,8 C 0,0 km/h (0 Bft)
13.08.2016 23:20 14,2 C 14,2 C 91 % 1022,6 hPa 0,0 mm 0,0 km/h (0 Bft) SW 225 0 min 0,000 mm 0,0 UV-I 0 W/m 12,8 C 0,0 km/h (0 Bft)
13.08.2016 23:21 14,2 C 14,2 C 92 % 1022,6 hPa 0,0 mm 0,0 km/h (0 Bft) SW 225 0 min 0,000 mm 0,0 UV-I 0 W/m 12,9 C 0,0 km/h (0 Bft)
13.08.2016 23:22 14,2 C 14,2 C 92 % 1022,6 hPa 0,0 mm 0,0 km/h (0 Bft) SW 225 0 min 0,000 mm 0,0 UV-I 0 W/m 12,9 C 0,0 km/h (0 Bft)
13.08.2016 23:23 14,2 C 14,2 C 92 % 1022,6 hPa 0,0 mm 0,0 km/h (0 Bft) SW 225 0 min 0,000 mm 0,0 UV-I 0 W/m 12,9 C 0,0 km/h (0 Bft)
13.08.2016 23:24 14,2 C 14,2 C 92 % 1022,6 hPa 0,0 mm 0,0 km/h (0 Bft) SW 225 0 min 0,000 mm 0,0 UV-I 0 W/m 12,9 C 0,0 km/h (0 Bft)
13.08.2016 23:25 14,2 C 14,2 C 91 % 1022,6 hPa 0,0 mm 0,0 km/h (0 Bft) SW 225 0 min 0,000 mm 0,0 UV-I 0 W/m 12,8 C 0,0 km/h (0 Bft)
13.08.2016 23:26 14,1 C 14,2 C 91 % 1022,6 hPa 0,0 mm 0,0 km/h (0 Bft) SW 225 0 min 0,000 mm 0,0 UV-I 0 W/m 12,7 C 0,0 km/h (0 Bft)
13.08.2016 23:27 14,1 C 14,1 C 91 % 1022,6 hPa 0,0 mm 0,0 km/h (0 Bft) SW 225 0 min 0,000 mm 0,0 UV-I 0 W/m 12,7 C 0,0 km/h (0 Bft)
13.08.2016 23:28 14,1 C 14,1 C 91 % 1022,6 hPa 0,0 mm 0,0 km/h (0 Bft) SW 225 0 min 0,000 mm 0,0 UV-I 0 W/m 12,7 C 0,0 km/h (0 Bft)
13.08.2016 23:29 14,1 C 14,1 C 92 % 1022,6 hPa 0,0 mm 0,0 km/h (0 Bft) SW 225 0 min 0,000 mm 0,0 UV-I 0 W/m 12,8 C 0,0 km/h (0 Bft)
13.08.2016 23:30 14,1 C 14,1 C 91 % 1022,5 hPa 0,0 mm 0,0 km/h (0 Bft) SW 225 0 min 0,000 mm 0,0 UV-I 0 W/m 12,7 C 0,0 km/h (0 Bft)
13.08.2016 23:31 14,1 C 14,1 C 91 % 1022,5 hPa 0,0 mm 0,0 km/h (0 Bft) SW 225 0 min 0,000 mm 0,0 UV-I 0 W/m 12,7 C 0,0 km/h (0 Bft)
13.08.2016 23:32 14,1 C 14,1 C 92 % 1022,5 hPa 0,0 mm 0,0 km/h (0 Bft) SW 225 0 min 0,000 mm 0,0 UV-I 0 W/m 12,8 C 0,0 km/h (0 Bft)
13.08.2016 23:33 14,1 C 14,1 C 91 % 1022,6 hPa 0,0 mm 0,0 km/h (0 Bft) SW 225 0 min 0,000 mm 0,0 UV-I 0 W/m 12,7 C 0,0 km/h (0 Bft)
13.08.2016 23:34 14,1 C 14,2 C 91 % 1022,5 hPa 0,0 mm 0,0 km/h (0 Bft) SW 225 0 min 0,000 mm 0,0 UV-I 0 W/m 12,7 C 0,0 km/h (0 Bft)
13.08.2016 23:35 14,1 C 14,2 C 91 % 1022,5 hPa 0,0 mm 0,0 km/h (0 Bft) SW 225 0 min 0,000 mm 0,0 UV-I 0 W/m 12,7 C 0,0 km/h (0 Bft)
13.08.2016 23:36 14,2 C 14,2 C 90 % 1022,5 hPa 0,0 mm 0,0 km/h (0 Bft) SW 225 0 min 0,000 mm 0,0 UV-I 0 W/m 12,6 C 0,0 km/h (0 Bft)
13.08.2016 23:37 14,2 C 14,2 C 91 % 1022,5 hPa 0,0 mm 0,0 km/h (0 Bft) SW 225 0 min 0,000 mm 0,0 UV-I 0 W/m 12,8 C 0,0 km/h (0 Bft)
13.08.2016 23:38 14,2 C 14,2 C 91 % 1022,5 hPa 0,0 mm 0,0 km/h (0 Bft) SW 225 0 min 0,000 mm 0,0 UV-I 0 W/m 12,8 C 0,0 km/h (0 Bft)
13.08.2016 23:39 14,2 C 14,3 C 91 % 1022,6 hPa 0,0 mm 0,0 km/h (0 Bft) SW 225 0 min 0,000 mm 0,0 UV-I 0 W/m 12,8 C 0,0 km/h (0 Bft)
13.08.2016 23:40 14,3 C 14,3 C 91 % 1022,5 hPa 0,0 mm 0,0 km/h (0 Bft) SW 225 0 min 0,000 mm 0,0 UV-I 0 W/m 12,8 C 0,0 km/h (0 Bft)
13.08.2016 23:41 14,3 C 14,3 C 91 % 1022,5 hPa 0,0 mm 0,0 km/h (0 Bft) SW 225 0 min 0,000 mm 0,0 UV-I 0 W/m 12,8 C 0,0 km/h (0 Bft)
13.08.2016 23:42 14,4 C 14,4 C 90 % 1022,5 hPa 0,0 mm 0,0 km/h (0 Bft) SW 225 0 min 0,000 mm 0,0 UV-I 0 W/m 12,8 C 0,0 km/h (0 Bft)
13.08.2016 23:43 14,4 C 14,4 C 91 % 1022,5 hPa 0,0 mm 0,0 km/h (0 Bft) SW 225 0 min 0,000 mm 0,0 UV-I 0 W/m 12,9 C 0,0 km/h (0 Bft)
13.08.2016 23:44 14,4 C 14,4 C 90 % 1022,5 hPa 0,0 mm 0,0 km/h (0 Bft) SW 225 0 min 0,000 mm 0,0 UV-I 0 W/m 12,8 C 0,0 km/h (0 Bft)
13.08.2016 23:45 14,4 C 14,4 C 90 % 1022,5 hPa 0,0 mm 0,0 km/h (0 Bft) SW 225 0 min 0,000 mm 0,0 UV-I 0 W/m 12,8 C 0,0 km/h (0 Bft)
13.08.2016 23:46 14,4 C 14,4 C 90 % 1022,5 hPa 0,0 mm 0,0 km/h (0 Bft) SW 225 0 min 0,000 mm 0,0 UV-I 0 W/m 12,8 C 0,0 km/h (0 Bft)
13.08.2016 23:47 14,4 C 14,4 C 90 % 1022,5 hPa 0,0 mm 0,0 km/h (0 Bft) SW 225 0 min 0,000 mm 0,0 UV-I 0 W/m 12,8 C 0,0 km/h (0 Bft)
13.08.2016 23:48 14,3 C 14,4 C 90 % 1022,6 hPa 0,0 mm 0,0 km/h (0 Bft) SW 225 0 min 0,000 mm 0,0 UV-I 0 W/m 12,7 C 0,0 km/h (0 Bft)
13.08.2016 23:49 14,3 C 14,3 C 90 % 1022,5 hPa 0,0 mm 0,0 km/h (0 Bft) SW 225 0 min 0,000 mm 0,0 UV-I 0 W/m 12,7 C 0,0 km/h (0 Bft)
13.08.2016 23:50 14,3 C 14,3 C 91 % 1022,5 hPa 0,0 mm 0,0 km/h (0 Bft) SW 225 0 min 0,000 mm 0,0 UV-I 0 W/m 12,8 C 0,0 km/h (0 Bft)
13.08.2016 23:51 14,2 C 14,3 C 91 % 1022,5 hPa 0,0 mm 0,0 km/h (0 Bft) SW 225 0 min 0,000 mm 0,0 UV-I 0 W/m 12,8 C 0,0 km/h (0 Bft)
13.08.2016 23:52 14,2 C 14,3 C 91 % 1022,6 hPa 0,0 mm 0,0 km/h (0 Bft) SW 225 0 min 0,000 mm 0,0 UV-I 0 W/m 12,8 C 0,0 km/h (0 Bft)
13.08.2016 23:53 14,2 C 14,2 C 92 % 1022,6 hPa 0,0 mm 0,0 km/h (0 Bft) SW 225 0 min 0,000 mm 0,0 UV-I 0 W/m 12,9 C 0,0 km/h (0 Bft)
13.08.2016 23:54 14,2 C 14,2 C 92 % 1022,5 hPa 0,0 mm 0,0 km/h (0 Bft) SW 225 0 min 0,000 mm 0,0 UV-I 0 W/m 12,9 C 0,0 km/h (0 Bft)
13.08.2016 23:55 14,1 C 14,2 C 91 % 1022,6 hPa 0,0 mm 0,0 km/h (0 Bft) SW 225 0 min 0,000 mm 0,0 UV-I 0 W/m 12,7 C 0,0 km/h (0 Bft)
13.08.2016 23:56 14,1 C 14,1 C 91 % 1022,5 hPa 0,0 mm 0,0 km/h (0 Bft) SW 225 0 min 0,000 mm 0,0 UV-I 0 W/m 12,7 C 0,0 km/h (0 Bft)
13.08.2016 23:57 14,1 C 14,1 C 92 % 1022,5 hPa 0,0 mm 0,0 km/h (0 Bft) SW 225 0 min 0,000 mm 0,0 UV-I 0 W/m 12,8 C 0,0 km/h (0 Bft)
13.08.2016 23:58 14,1 C 14,1 C 91 % 1022,5 hPa 0,0 mm 0,0 km/h (0 Bft) SW 225 0 min 0,000 mm 0,0 UV-I 0 W/m 12,7 C 0,0 km/h (0 Bft)
13.08.2016 23:59 14,1 C 14,1 C 91 % 1022,6 hPa 0,0 mm 0,0 km/h (0 Bft) SW 225 0 min 0,000 mm 0,0 UV-I 0 W/m 12,7 C 0,0 km/h (0 Bft)
_ Min-Zeit 06:23 06:27 16:17 20:51 - 23:59 - - - - - - 06:23 23:59
Minimum _ 9,0 C 9,1 C 53 % 1022,0 hPa - 0,0 km/h (0 Bft) - - - - - - 8,2 C 0,0 km/h (0 Bft)
_ Max-Zeit 15:48 15:49 07:08 00:02 23:59 16:12 - - 15:48 14:00 13:33 14:19 11:25 16:49
Maximum _ 23,9 C 23,9 C 96 % 1027,5 hPa 0,0 mm 10,0 km/h
N (2 Bft)
- - 5 min 0,534 mm 6,9 UV-I 842 W/m 16,0 C 14,5 km/h
W (3 Bft)
Durchschnitt _ 16,9 C 16,9 C 78 % 1024,2 hPa #0,0 mm 1,8 km/h (1 Bft) NW - #7:53 h #3,683 mm 4,5 UV-I 241 W/m 12,5 C 3,2 km/h (1 Bft)